<?xml version="1.0" encoding="UTF-8" standalone="no" ?>
<gpx xmlns="http://www.topografix.com/GPX/1/1" xmlns:xsi="http://www.w3.org/2001/XMLSchema-instance" xsi:schemaLocation="http://www.topografix.com/GPX/1/1 http://www.topografix.com/GPX/1/1/gpx.xsd" version="1.1" creator="VisuGPX - https://www.visugpx.com">
  <metadata>
    <name>VTT Monsérieux par les pluis retour par lachau</name>
    <desc><![CDATA[De Gigors prendre la  route de Sisteron , après le col de Sarraut prendre la piste à droite la suivre en prenant d\\\'abord la piste de Montsérieux puis la piste des Pluis . Après la fontaine des Pluis prendre la piste à droite direction Montsérieux , puis prendre à droite pour monter au sommet . Redescendre par al piste de la colle et prendre le sentier monotrace à droite qui par une superbe arête conduit au champas où on prend le sentier Gigors par l\\\'oratoire]]></desc>
  </metadata>
  <trk>
    <name><![CDATA[N°37 bis  Montserieux par les Pluis , retour par Lachaup]]></name>
    <trkseg>
      <trkpt lat="44.41905" lon="6.16087">
        <ele>806.6833496</ele>
        <time>2014-07-15T06:46:59Z</time>
      </trkpt>
      <trkpt lat="44.41893" lon="6.16112">
        <ele>811.0092773</ele>
        <time>2014-07-15T06:47:23Z</time>
      </trkpt>
      <trkpt lat="44.41893" lon="6.16113">
        <ele>815.8161621</ele>
        <time>2014-07-15T06:47:25Z</time>
      </trkpt>
      <trkpt lat="44.41893" lon="6.16114">
        <ele>820.6225586</ele>
        <time>2014-07-15T06:47:27Z</time>
      </trkpt>
      <trkpt lat="44.41893" lon="6.16114">
        <ele>824.9484863</ele>
        <time>2014-07-15T06:47:29Z</time>
      </trkpt>
      <trkpt lat="44.41893" lon="6.16114">
        <ele>828.7939453</ele>
        <time>2014-07-15T06:47:31Z</time>
      </trkpt>
      <trkpt lat="44.41893" lon="6.16114">
        <ele>832.6391602</ele>
        <time>2014-07-15T06:47:33Z</time>
      </trkpt>
      <trkpt lat="44.41892" lon="6.16114">
        <ele>836.484375</ele>
        <time>2014-07-15T06:47:35Z</time>
      </trkpt>
      <trkpt lat="44.41892" lon="6.16114">
        <ele>839.848877</ele>
        <time>2014-07-15T06:47:37Z</time>
      </trkpt>
      <trkpt lat="44.41892" lon="6.16114">
        <ele>843.6940918</ele>
        <time>2014-07-15T06:47:39Z</time>
      </trkpt>
      <trkpt lat="44.41892" lon="6.16114">
        <ele>846.5783691</ele>
        <time>2014-07-15T06:47:41Z</time>
      </trkpt>
      <trkpt lat="44.41892" lon="6.16114">
        <ele>850.9040527</ele>
        <time>2014-07-15T06:47:44Z</time>
      </trkpt>
      <trkpt lat="44.41892" lon="6.16114">
        <ele>855.7106934</ele>
        <time>2014-07-15T06:47:48Z</time>
      </trkpt>
      <trkpt lat="44.41892" lon="6.16114">
        <ele>855.7106934</ele>
        <time>2014-07-15T06:47:49Z</time>
      </trkpt>
      <trkpt lat="44.41892" lon="6.16114">
        <ele>859.5559082</ele>
        <time>2014-07-15T06:47:54Z</time>
      </trkpt>
      <trkpt lat="44.41892" lon="6.16114">
        <ele>862.9206543</ele>
        <time>2014-07-15T06:47:57Z</time>
      </trkpt>
      <trkpt lat="44.41892" lon="6.16114">
        <ele>866.2851563</ele>
        <time>2014-07-15T06:48:01Z</time>
      </trkpt>
      <trkpt lat="44.41892" lon="6.16114">
        <ele>868.6884766</ele>
        <time>2014-07-15T06:48:05Z</time>
      </trkpt>
      <trkpt lat="44.41892" lon="6.16114">
        <ele>872.5336914</ele>
        <time>2014-07-15T06:48:09Z</time>
      </trkpt>
      <trkpt lat="44.41892" lon="6.16114">
        <ele>873.0144043</ele>
        <time>2014-07-15T06:48:10Z</time>
      </trkpt>
      <trkpt lat="44.41892" lon="6.16114">
        <ele>875.4174805</ele>
        <time>2014-07-15T06:48:16Z</time>
      </trkpt>
      <trkpt lat="44.41892" lon="6.16114">
        <ele>878.7824707</ele>
        <time>2014-07-15T06:48:23Z</time>
      </trkpt>
      <trkpt lat="44.41892" lon="6.16114">
        <ele>881.6662598</ele>
        <time>2014-07-15T06:48:32Z</time>
      </trkpt>
      <trkpt lat="44.41891" lon="6.16114">
        <ele>882.6276855</ele>
        <time>2014-07-15T06:48:38Z</time>
      </trkpt>
      <trkpt lat="44.41889" lon="6.16119">
        <ele>884.0695801</ele>
        <time>2014-07-15T06:48:49Z</time>
      </trkpt>
      <trkpt lat="44.41889" lon="6.16119">
        <ele>885.0310059</ele>
        <time>2014-07-15T06:49:01Z</time>
      </trkpt>
      <trkpt lat="44.41888" lon="6.16117">
        <ele>884.550293</ele>
        <time>2014-07-15T06:49:14Z</time>
      </trkpt>
      <trkpt lat="44.41885" lon="6.16118">
        <ele>885.0310059</ele>
        <time>2014-07-15T06:49:25Z</time>
      </trkpt>
      <trkpt lat="44.41886" lon="6.16117">
        <ele>885.5114746</ele>
        <time>2014-07-15T06:49:52Z</time>
      </trkpt>
      <trkpt lat="44.41886" lon="6.16118">
        <ele>885.0310059</ele>
        <time>2014-07-15T06:50:07Z</time>
      </trkpt>
      <trkpt lat="44.41886" lon="6.16118">
        <ele>885.0310059</ele>
        <time>2014-07-15T06:50:09Z</time>
      </trkpt>
      <trkpt lat="44.41866" lon="6.16113">
        <ele>882.1469727</ele>
        <time>2014-07-15T06:50:18Z</time>
      </trkpt>
      <trkpt lat="44.41866" lon="6.16112">
        <ele>882.1469727</ele>
        <time>2014-07-15T06:50:28Z</time>
      </trkpt>
      <trkpt lat="44.41864" lon="6.16108">
        <ele>882.1469727</ele>
        <time>2014-07-15T06:50:30Z</time>
      </trkpt>
      <trkpt lat="44.41866" lon="6.16094">
        <ele>882.1469727</ele>
        <time>2014-07-15T06:50:35Z</time>
      </trkpt>
      <trkpt lat="44.41869" lon="6.16048">
        <ele>883.1081543</ele>
        <time>2014-07-15T06:50:51Z</time>
      </trkpt>
      <trkpt lat="44.41869" lon="6.16046">
        <ele>882.6276855</ele>
        <time>2014-07-15T06:50:58Z</time>
      </trkpt>
      <trkpt lat="44.4187" lon="6.16041">
        <ele>883.1081543</ele>
        <time>2014-07-15T06:51:01Z</time>
      </trkpt>
      <trkpt lat="44.41882" lon="6.15999">
        <ele>883.1081543</ele>
        <time>2014-07-15T06:51:16Z</time>
      </trkpt>
      <trkpt lat="44.41885" lon="6.15989">
        <ele>883.1081543</ele>
        <time>2014-07-15T06:51:19Z</time>
      </trkpt>
      <trkpt lat="44.41893" lon="6.15932">
        <ele>884.0695801</ele>
        <time>2014-07-15T06:51:35Z</time>
      </trkpt>
      <trkpt lat="44.419" lon="6.159">
        <ele>885.0310059</ele>
        <time>2014-07-15T06:51:45Z</time>
      </trkpt>
      <trkpt lat="44.41904" lon="6.15834">
        <ele>886.4729004</ele>
        <time>2014-07-15T06:52:04Z</time>
      </trkpt>
      <trkpt lat="44.41904" lon="6.15831">
        <ele>886.4729004</ele>
        <time>2014-07-15T06:52:05Z</time>
      </trkpt>
      <trkpt lat="44.41904" lon="6.15792">
        <ele>888.3955078</ele>
        <time>2014-07-15T06:52:17Z</time>
      </trkpt>
      <trkpt lat="44.41907" lon="6.15737">
        <ele>889.8374023</ele>
        <time>2014-07-15T06:52:36Z</time>
      </trkpt>
      <trkpt lat="44.41904" lon="6.1568">
        <ele>891.7600098</ele>
        <time>2014-07-15T06:52:54Z</time>
      </trkpt>
      <trkpt lat="44.41901" lon="6.15632">
        <ele>893.6828613</ele>
        <time>2014-07-15T06:53:10Z</time>
      </trkpt>
      <trkpt lat="44.41903" lon="6.15584">
        <ele>895.1247559</ele>
        <time>2014-07-15T06:53:27Z</time>
      </trkpt>
      <trkpt lat="44.41912" lon="6.15523">
        <ele>897.0473633</ele>
        <time>2014-07-15T06:53:49Z</time>
      </trkpt>
      <trkpt lat="44.41919" lon="6.15464">
        <ele>899.4506836</ele>
        <time>2014-07-15T06:54:11Z</time>
      </trkpt>
      <trkpt lat="44.4193" lon="6.15397">
        <ele>902.8151855</ele>
        <time>2014-07-15T06:54:36Z</time>
      </trkpt>
      <trkpt lat="44.41939" lon="6.15343">
        <ele>904.737793</ele>
        <time>2014-07-15T06:54:56Z</time>
      </trkpt>
      <trkpt lat="44.41947" lon="6.1529">
        <ele>907.1411133</ele>
        <time>2014-07-15T06:55:16Z</time>
      </trkpt>
      <trkpt lat="44.41958" lon="6.15238">
        <ele>909.5446777</ele>
        <time>2014-07-15T06:55:36Z</time>
      </trkpt>
      <trkpt lat="44.41978" lon="6.15173">
        <ele>911.947998</ele>
        <time>2014-07-15T06:56:00Z</time>
      </trkpt>
      <trkpt lat="44.41998" lon="6.15117">
        <ele>912.9091797</ele>
        <time>2014-07-15T06:56:21Z</time>
      </trkpt>
      <trkpt lat="44.42013" lon="6.15072">
        <ele>914.3510742</ele>
        <time>2014-07-15T06:56:37Z</time>
      </trkpt>
      <trkpt lat="44.42036" lon="6.1501">
        <ele>915.7932129</ele>
        <time>2014-07-15T06:56:58Z</time>
      </trkpt>
      <trkpt lat="44.42052" lon="6.14972">
        <ele>916.7543945</ele>
        <time>2014-07-15T06:57:11Z</time>
      </trkpt>
      <trkpt lat="44.42066" lon="6.1496">
        <ele>917.2351074</ele>
        <time>2014-07-15T06:57:17Z</time>
      </trkpt>
      <trkpt lat="44.42095" lon="6.14947">
        <ele>916.7543945</ele>
        <time>2014-07-15T06:57:27Z</time>
      </trkpt>
      <trkpt lat="44.4214" lon="6.14937">
        <ele>915.7932129</ele>
        <time>2014-07-15T06:57:37Z</time>
      </trkpt>
      <trkpt lat="44.4215" lon="6.14933">
        <ele>916.2736816</ele>
        <time>2014-07-15T06:57:39Z</time>
      </trkpt>
      <trkpt lat="44.42167" lon="6.14908">
        <ele>915.7932129</ele>
        <time>2014-07-15T06:57:44Z</time>
      </trkpt>
      <trkpt lat="44.42169" lon="6.14879">
        <ele>914.8317871</ele>
        <time>2014-07-15T06:57:48Z</time>
      </trkpt>
      <trkpt lat="44.42157" lon="6.14799">
        <ele>914.8317871</ele>
        <time>2014-07-15T06:58:03Z</time>
      </trkpt>
      <trkpt lat="44.42128" lon="6.14783">
        <ele>916.7543945</ele>
        <time>2014-07-15T06:58:14Z</time>
      </trkpt>
      <trkpt lat="44.42089" lon="6.14778">
        <ele>918.1962891</ele>
        <time>2014-07-15T06:58:29Z</time>
      </trkpt>
      <trkpt lat="44.42088" lon="6.14743">
        <ele>919.6384277</ele>
        <time>2014-07-15T06:58:40Z</time>
      </trkpt>
      <trkpt lat="44.4211" lon="6.14675">
        <ele>921.560791</ele>
        <time>2014-07-15T06:59:03Z</time>
      </trkpt>
      <trkpt lat="44.42131" lon="6.14601">
        <ele>924.4450684</ele>
        <time>2014-07-15T06:59:30Z</time>
      </trkpt>
      <trkpt lat="44.42132" lon="6.1453">
        <ele>926.3676758</ele>
        <time>2014-07-15T06:59:54Z</time>
      </trkpt>
      <trkpt lat="44.42125" lon="6.14463">
        <ele>928.7709961</ele>
        <time>2014-07-15T07:00:16Z</time>
      </trkpt>
      <trkpt lat="44.4212" lon="6.14404">
        <ele>930.2128906</ele>
        <time>2014-07-15T07:00:35Z</time>
      </trkpt>
      <trkpt lat="44.42114" lon="6.14332">
        <ele>933.0966797</ele>
        <time>2014-07-15T07:00:59Z</time>
      </trkpt>
      <trkpt lat="44.42121" lon="6.14261">
        <ele>935.5</ele>
        <time>2014-07-15T07:01:23Z</time>
      </trkpt>
      <trkpt lat="44.42155" lon="6.14207">
        <ele>937.9033203</ele>
        <time>2014-07-15T07:01:45Z</time>
      </trkpt>
      <trkpt lat="44.42161" lon="6.14193">
        <ele>938.8647461</ele>
        <time>2014-07-15T07:01:51Z</time>
      </trkpt>
      <trkpt lat="44.42181" lon="6.1417">
        <ele>939.3452148</ele>
        <time>2014-07-15T07:02:02Z</time>
      </trkpt>
      <trkpt lat="44.42203" lon="6.14137">
        <ele>941.2680664</ele>
        <time>2014-07-15T07:02:17Z</time>
      </trkpt>
      <trkpt lat="44.42224" lon="6.1409">
        <ele>943.1906738</ele>
        <time>2014-07-15T07:02:36Z</time>
      </trkpt>
      <trkpt lat="44.4223" lon="6.14064">
        <ele>943.6713867</ele>
        <time>2014-07-15T07:02:45Z</time>
      </trkpt>
      <trkpt lat="44.4223" lon="6.14031">
        <ele>944.1520996</ele>
        <time>2014-07-15T07:02:56Z</time>
      </trkpt>
      <trkpt lat="44.42191" lon="6.14008">
        <ele>945.1132813</ele>
        <time>2014-07-15T07:03:12Z</time>
      </trkpt>
      <trkpt lat="44.42165" lon="6.13988">
        <ele>946.074707</ele>
        <time>2014-07-15T07:03:24Z</time>
      </trkpt>
      <trkpt lat="44.42158" lon="6.13979">
        <ele>946.5554199</ele>
        <time>2014-07-15T07:03:28Z</time>
      </trkpt>
      <trkpt lat="44.4215" lon="6.13956">
        <ele>947.5166016</ele>
        <time>2014-07-15T07:03:37Z</time>
      </trkpt>
      <trkpt lat="44.4215" lon="6.13949">
        <ele>947.9973145</ele>
        <time>2014-07-15T07:03:40Z</time>
      </trkpt>
      <trkpt lat="44.42142" lon="6.13923">
        <ele>948.9584961</ele>
        <time>2014-07-15T07:03:49Z</time>
      </trkpt>
      <trkpt lat="44.42141" lon="6.13907">
        <ele>949.439209</ele>
        <time>2014-07-15T07:03:55Z</time>
      </trkpt>
      <trkpt lat="44.42138" lon="6.13898">
        <ele>949.9199219</ele>
        <time>2014-07-15T07:03:58Z</time>
      </trkpt>
      <trkpt lat="44.42138" lon="6.13882">
        <ele>949.9199219</ele>
        <time>2014-07-15T07:04:04Z</time>
      </trkpt>
      <trkpt lat="44.42132" lon="6.13859">
        <ele>950.4006348</ele>
        <time>2014-07-15T07:04:11Z</time>
      </trkpt>
      <trkpt lat="44.42128" lon="6.13823">
        <ele>951.8425293</ele>
        <time>2014-07-15T07:04:23Z</time>
      </trkpt>
      <trkpt lat="44.42126" lon="6.13813">
        <ele>952.322998</ele>
        <time>2014-07-15T07:04:26Z</time>
      </trkpt>
      <trkpt lat="44.42127" lon="6.13757">
        <ele>953.7651367</ele>
        <time>2014-07-15T07:04:45Z</time>
      </trkpt>
      <trkpt lat="44.42109" lon="6.13719">
        <ele>955.2070313</ele>
        <time>2014-07-15T07:04:59Z</time>
      </trkpt>
      <trkpt lat="44.42092" lon="6.13674">
        <ele>957.1298828</ele>
        <time>2014-07-15T07:05:14Z</time>
      </trkpt>
      <trkpt lat="44.42089" lon="6.13667">
        <ele>957.6105957</ele>
        <time>2014-07-15T07:05:17Z</time>
      </trkpt>
      <trkpt lat="44.42089" lon="6.13659">
        <ele>957.6105957</ele>
        <time>2014-07-15T07:05:20Z</time>
      </trkpt>
      <trkpt lat="44.42062" lon="6.13632">
        <ele>959.0524902</ele>
        <time>2014-07-15T07:05:34Z</time>
      </trkpt>
      <trkpt lat="44.4205" lon="6.13609">
        <ele>960.0136719</ele>
        <time>2014-07-15T07:05:43Z</time>
      </trkpt>
      <trkpt lat="44.42055" lon="6.13563">
        <ele>962.8977051</ele>
        <time>2014-07-15T07:06:01Z</time>
      </trkpt>
      <trkpt lat="44.4207" lon="6.13535">
        <ele>964.3395996</ele>
        <time>2014-07-15T07:06:13Z</time>
      </trkpt>
      <trkpt lat="44.4208" lon="6.13527">
        <ele>964.3395996</ele>
        <time>2014-07-15T07:06:17Z</time>
      </trkpt>
      <trkpt lat="44.42071" lon="6.13491">
        <ele>966.262207</ele>
        <time>2014-07-15T07:06:30Z</time>
      </trkpt>
      <trkpt lat="44.42071" lon="6.13477">
        <ele>966.7429199</ele>
        <time>2014-07-15T07:06:35Z</time>
      </trkpt>
      <trkpt lat="44.42075" lon="6.13465">
        <ele>966.262207</ele>
        <time>2014-07-15T07:06:40Z</time>
      </trkpt>
      <trkpt lat="44.4202" lon="6.13433">
        <ele>966.7429199</ele>
        <time>2014-07-15T07:06:52Z</time>
      </trkpt>
      <trkpt lat="44.41997" lon="6.13435">
        <ele>968.1848145</ele>
        <time>2014-07-15T07:07:02Z</time>
      </trkpt>
      <trkpt lat="44.41994" lon="6.13432">
        <ele>969.1462402</ele>
        <time>2014-07-15T07:07:06Z</time>
      </trkpt>
      <trkpt lat="44.41996" lon="6.13403">
        <ele>970.5881348</ele>
        <time>2014-07-15T07:07:17Z</time>
      </trkpt>
      <trkpt lat="44.41972" lon="6.13366">
        <ele>971.5493164</ele>
        <time>2014-07-15T07:07:31Z</time>
      </trkpt>
      <trkpt lat="44.41936" lon="6.13367">
        <ele>972.5109863</ele>
        <time>2014-07-15T07:07:46Z</time>
      </trkpt>
      <trkpt lat="44.41902" lon="6.13371">
        <ele>973.9528809</ele>
        <time>2014-07-15T07:08:03Z</time>
      </trkpt>
      <trkpt lat="44.41885" lon="6.13339">
        <ele>975.8754883</ele>
        <time>2014-07-15T07:08:17Z</time>
      </trkpt>
      <trkpt lat="44.41864" lon="6.13285">
        <ele>977.7980957</ele>
        <time>2014-07-15T07:08:37Z</time>
      </trkpt>
      <trkpt lat="44.41848" lon="6.13235">
        <ele>979.7207031</ele>
        <time>2014-07-15T07:08:56Z</time>
      </trkpt>
      <trkpt lat="44.41844" lon="6.13224">
        <ele>980.201416</ele>
        <time>2014-07-15T07:09:00Z</time>
      </trkpt>
      <trkpt lat="44.41844" lon="6.13215">
        <ele>980.201416</ele>
        <time>2014-07-15T07:09:03Z</time>
      </trkpt>
      <trkpt lat="44.41839" lon="6.13199">
        <ele>980.6821289</ele>
        <time>2014-07-15T07:09:09Z</time>
      </trkpt>
      <trkpt lat="44.41829" lon="6.1316">
        <ele>982.6047363</ele>
        <time>2014-07-15T07:09:23Z</time>
      </trkpt>
      <trkpt lat="44.41822" lon="6.1315">
        <ele>983.0852051</ele>
        <time>2014-07-15T07:09:27Z</time>
      </trkpt>
      <trkpt lat="44.41788" lon="6.13124">
        <ele>984.0466309</ele>
        <time>2014-07-15T07:09:42Z</time>
      </trkpt>
      <trkpt lat="44.41766" lon="6.13104">
        <ele>984.5273438</ele>
        <time>2014-07-15T07:09:54Z</time>
      </trkpt>
      <trkpt lat="44.41753" lon="6.13065">
        <ele>985.9692383</ele>
        <time>2014-07-15T07:10:08Z</time>
      </trkpt>
      <trkpt lat="44.41733" lon="6.13004">
        <ele>985.9692383</ele>
        <time>2014-07-15T07:10:24Z</time>
      </trkpt>
      <trkpt lat="44.41711" lon="6.12964">
        <ele>985.9692383</ele>
        <time>2014-07-15T07:10:35Z</time>
      </trkpt>
      <trkpt lat="44.41687" lon="6.1292">
        <ele>985.9692383</ele>
        <time>2014-07-15T07:10:48Z</time>
      </trkpt>
      <trkpt lat="44.41669" lon="6.12876">
        <ele>985.9692383</ele>
        <time>2014-07-15T07:11:01Z</time>
      </trkpt>
      <trkpt lat="44.41643" lon="6.12816">
        <ele>986.4499512</ele>
        <time>2014-07-15T07:11:17Z</time>
      </trkpt>
      <trkpt lat="44.41627" lon="6.12795">
        <ele>986.4499512</ele>
        <time>2014-07-15T07:11:23Z</time>
      </trkpt>
      <trkpt lat="44.41592" lon="6.12755">
        <ele>986.9304199</ele>
        <time>2014-07-15T07:11:38Z</time>
      </trkpt>
      <trkpt lat="44.4156" lon="6.12714">
        <ele>987.4111328</ele>
        <time>2014-07-15T07:11:51Z</time>
      </trkpt>
      <trkpt lat="44.41533" lon="6.12647">
        <ele>986.9304199</ele>
        <time>2014-07-15T07:12:06Z</time>
      </trkpt>
      <trkpt lat="44.41506" lon="6.1256">
        <ele>983.565918</ele>
        <time>2014-07-15T07:12:16Z</time>
      </trkpt>
      <trkpt lat="44.41469" lon="6.1246">
        <ele>982.1240234</ele>
        <time>2014-07-15T07:12:26Z</time>
      </trkpt>
      <trkpt lat="44.41461" lon="6.12409">
        <ele>982.6047363</ele>
        <time>2014-07-15T07:12:31Z</time>
      </trkpt>
      <trkpt lat="44.41462" lon="6.12234">
        <ele>979.2399902</ele>
        <time>2014-07-15T07:12:49Z</time>
      </trkpt>
      <trkpt lat="44.4146" lon="6.12197">
        <ele>977.7980957</ele>
        <time>2014-07-15T07:12:53Z</time>
      </trkpt>
      <trkpt lat="44.41454" lon="6.12174">
        <ele>976.3562012</ele>
        <time>2014-07-15T07:12:56Z</time>
      </trkpt>
      <trkpt lat="44.41428" lon="6.12111">
        <ele>974.9143066</ele>
        <time>2014-07-15T07:13:05Z</time>
      </trkpt>
      <trkpt lat="44.41425" lon="6.12065">
        <ele>973.4724121</ele>
        <time>2014-07-15T07:13:14Z</time>
      </trkpt>
      <trkpt lat="44.41433" lon="6.12063">
        <ele>973.4724121</ele>
        <time>2014-07-15T07:13:29Z</time>
      </trkpt>
      <trkpt lat="44.41435" lon="6.12068">
        <ele>972.9916992</ele>
        <time>2014-07-15T07:14:22Z</time>
      </trkpt>
      <trkpt lat="44.41438" lon="6.12076">
        <ele>974.4335938</ele>
        <time>2014-07-15T07:14:36Z</time>
      </trkpt>
      <trkpt lat="44.41438" lon="6.12078">
        <ele>974.4335938</ele>
        <time>2014-07-15T07:14:44Z</time>
      </trkpt>
      <trkpt lat="44.41435" lon="6.12098">
        <ele>975.8754883</ele>
        <time>2014-07-15T07:14:59Z</time>
      </trkpt>
      <trkpt lat="44.41435" lon="6.12103">
        <ele>976.3562012</ele>
        <time>2014-07-15T07:15:16Z</time>
      </trkpt>
      <trkpt lat="44.41436" lon="6.12111">
        <ele>976.3562012</ele>
        <time>2014-07-15T07:15:19Z</time>
      </trkpt>
      <trkpt lat="44.41443" lon="6.12123">
        <ele>977.317627</ele>
        <time>2014-07-15T07:15:25Z</time>
      </trkpt>
      <trkpt lat="44.41445" lon="6.12125">
        <ele>977.7980957</ele>
        <time>2014-07-15T07:15:27Z</time>
      </trkpt>
      <trkpt lat="44.41447" lon="6.12132">
        <ele>978.2788086</ele>
        <time>2014-07-15T07:15:30Z</time>
      </trkpt>
      <trkpt lat="44.41456" lon="6.12151">
        <ele>979.7207031</ele>
        <time>2014-07-15T07:15:43Z</time>
      </trkpt>
      <trkpt lat="44.41461" lon="6.12157">
        <ele>981.1628418</ele>
        <time>2014-07-15T07:15:49Z</time>
      </trkpt>
      <trkpt lat="44.41462" lon="6.1216">
        <ele>980.201416</ele>
        <time>2014-07-15T07:15:51Z</time>
      </trkpt>
      <trkpt lat="44.41465" lon="6.12162">
        <ele>981.1628418</ele>
        <time>2014-07-15T07:15:54Z</time>
      </trkpt>
      <trkpt lat="44.41479" lon="6.12182">
        <ele>984.0466309</ele>
        <time>2014-07-15T07:16:08Z</time>
      </trkpt>
      <trkpt lat="44.41489" lon="6.12191">
        <ele>985.0080566</ele>
        <time>2014-07-15T07:16:19Z</time>
      </trkpt>
      <trkpt lat="44.41501" lon="6.12203">
        <ele>986.4499512</ele>
        <time>2014-07-15T07:16:30Z</time>
      </trkpt>
      <trkpt lat="44.41504" lon="6.12205">
        <ele>986.9304199</ele>
        <time>2014-07-15T07:16:32Z</time>
      </trkpt>
      <trkpt lat="44.41515" lon="6.12219">
        <ele>988.8535156</ele>
        <time>2014-07-15T07:16:43Z</time>
      </trkpt>
      <trkpt lat="44.41523" lon="6.12235">
        <ele>989.8146973</ele>
        <time>2014-07-15T07:16:51Z</time>
      </trkpt>
      <trkpt lat="44.41526" lon="6.12241">
        <ele>990.7758789</ele>
        <time>2014-07-15T07:16:55Z</time>
      </trkpt>
      <trkpt lat="44.4153" lon="6.12248">
        <ele>991.2565918</ele>
        <time>2014-07-15T07:16:59Z</time>
      </trkpt>
      <trkpt lat="44.41536" lon="6.12256">
        <ele>991.7373047</ele>
        <time>2014-07-15T07:17:04Z</time>
      </trkpt>
      <trkpt lat="44.4154" lon="6.12263">
        <ele>992.2180176</ele>
        <time>2014-07-15T07:17:09Z</time>
      </trkpt>
      <trkpt lat="44.41555" lon="6.12279">
        <ele>995.1018066</ele>
        <time>2014-07-15T07:17:25Z</time>
      </trkpt>
      <trkpt lat="44.4156" lon="6.12287">
        <ele>995.1018066</ele>
        <time>2014-07-15T07:17:31Z</time>
      </trkpt>
      <trkpt lat="44.41567" lon="6.12294">
        <ele>996.0632324</ele>
        <time>2014-07-15T07:17:38Z</time>
      </trkpt>
      <trkpt lat="44.41572" lon="6.123">
        <ele>997.0244141</ele>
        <time>2014-07-15T07:17:43Z</time>
      </trkpt>
      <trkpt lat="44.41572" lon="6.12299">
        <ele>997.505127</ele>
        <time>2014-07-15T07:17:47Z</time>
      </trkpt>
      <trkpt lat="44.4158" lon="6.12308">
        <ele>998.4663086</ele>
        <time>2014-07-15T07:17:56Z</time>
      </trkpt>
      <trkpt lat="44.41587" lon="6.12333">
        <ele>1000.8696289</ele>
        <time>2014-07-15T07:18:07Z</time>
      </trkpt>
      <trkpt lat="44.4159" lon="6.12338">
        <ele>1000.8696289</ele>
        <time>2014-07-15T07:18:10Z</time>
      </trkpt>
      <trkpt lat="44.41591" lon="6.12345">
        <ele>1001.3503418</ele>
        <time>2014-07-15T07:18:14Z</time>
      </trkpt>
      <trkpt lat="44.41602" lon="6.12368">
        <ele>1003.7536621</ele>
        <time>2014-07-15T07:18:31Z</time>
      </trkpt>
      <trkpt lat="44.41609" lon="6.12376">
        <ele>1004.7150879</ele>
        <time>2014-07-15T07:18:36Z</time>
      </trkpt>
      <trkpt lat="44.41624" lon="6.12364">
        <ele>1007.5991211</ele>
        <time>2014-07-15T07:18:53Z</time>
      </trkpt>
      <trkpt lat="44.41621" lon="6.12364">
        <ele>1008.5603027</ele>
        <time>2014-07-15T07:19:05Z</time>
      </trkpt>
      <trkpt lat="44.41623" lon="6.1237">
        <ele>1009.5217285</ele>
        <time>2014-07-15T07:19:08Z</time>
      </trkpt>
      <trkpt lat="44.41623" lon="6.12375">
        <ele>1009.5217285</ele>
        <time>2014-07-15T07:19:11Z</time>
      </trkpt>
      <trkpt lat="44.41617" lon="6.12394">
        <ele>1011.4443359</ele>
        <time>2014-07-15T07:19:22Z</time>
      </trkpt>
      <trkpt lat="44.41616" lon="6.12397">
        <ele>1011.4443359</ele>
        <time>2014-07-15T07:19:25Z</time>
      </trkpt>
      <trkpt lat="44.41614" lon="6.12404">
        <ele>1012.8862305</ele>
        <time>2014-07-15T07:19:31Z</time>
      </trkpt>
      <trkpt lat="44.41606" lon="6.12409">
        <ele>1013.8474121</ele>
        <time>2014-07-15T07:19:36Z</time>
      </trkpt>
      <trkpt lat="44.41605" lon="6.12431">
        <ele>1015.2895508</ele>
        <time>2014-07-15T07:19:52Z</time>
      </trkpt>
      <trkpt lat="44.41606" lon="6.12439">
        <ele>1016.2507324</ele>
        <time>2014-07-15T07:19:58Z</time>
      </trkpt>
      <trkpt lat="44.41598" lon="6.12459">
        <ele>1017.692627</ele>
        <time>2014-07-15T07:20:12Z</time>
      </trkpt>
      <trkpt lat="44.41603" lon="6.12457">
        <ele>1018.1733398</ele>
        <time>2014-07-15T07:20:16Z</time>
      </trkpt>
      <trkpt lat="44.41612" lon="6.12452">
        <ele>1019.1347656</ele>
        <time>2014-07-15T07:20:23Z</time>
      </trkpt>
      <trkpt lat="44.41617" lon="6.12449">
        <ele>1019.6154785</ele>
        <time>2014-07-15T07:20:36Z</time>
      </trkpt>
      <trkpt lat="44.41622" lon="6.12455">
        <ele>1018.1733398</ele>
        <time>2014-07-15T07:21:12Z</time>
      </trkpt>
      <trkpt lat="44.41602" lon="6.12457">
        <ele>1016.7314453</ele>
        <time>2014-07-15T07:21:33Z</time>
      </trkpt>
      <trkpt lat="44.41612" lon="6.12467">
        <ele>1016.2507324</ele>
        <time>2014-07-15T07:22:02Z</time>
      </trkpt>
      <trkpt lat="44.41617" lon="6.12458">
        <ele>1017.2121582</ele>
        <time>2014-07-15T07:22:17Z</time>
      </trkpt>
      <trkpt lat="44.41618" lon="6.12441">
        <ele>1018.6540527</ele>
        <time>2014-07-15T07:22:26Z</time>
      </trkpt>
      <trkpt lat="44.41619" lon="6.12433">
        <ele>1018.6540527</ele>
        <time>2014-07-15T07:22:31Z</time>
      </trkpt>
      <trkpt lat="44.4162" lon="6.12425">
        <ele>1019.1347656</ele>
        <time>2014-07-15T07:22:35Z</time>
      </trkpt>
      <trkpt lat="44.4162" lon="6.12418">
        <ele>1020.0961914</ele>
        <time>2014-07-15T07:22:40Z</time>
      </trkpt>
      <trkpt lat="44.41625" lon="6.12406">
        <ele>1021.5380859</ele>
        <time>2014-07-15T07:22:50Z</time>
      </trkpt>
      <trkpt lat="44.41626" lon="6.124">
        <ele>1022.0187988</ele>
        <time>2014-07-15T07:22:54Z</time>
      </trkpt>
      <trkpt lat="44.41622" lon="6.12388">
        <ele>1022.9802246</ele>
        <time>2014-07-15T07:23:02Z</time>
      </trkpt>
      <trkpt lat="44.41629" lon="6.12365">
        <ele>1024.902832</ele>
        <time>2014-07-15T07:23:19Z</time>
      </trkpt>
      <trkpt lat="44.41634" lon="6.12355">
        <ele>1025.8640137</ele>
        <time>2014-07-15T07:23:27Z</time>
      </trkpt>
      <trkpt lat="44.41637" lon="6.12344">
        <ele>1027.3061523</ele>
        <time>2014-07-15T07:23:35Z</time>
      </trkpt>
      <trkpt lat="44.41642" lon="6.12332">
        <ele>1028.267334</ele>
        <time>2014-07-15T07:23:45Z</time>
      </trkpt>
      <trkpt lat="44.41637" lon="6.12329">
        <ele>1029.2285156</ele>
        <time>2014-07-15T07:23:51Z</time>
      </trkpt>
      <trkpt lat="44.41612" lon="6.12318">
        <ele>1030.6706543</ele>
        <time>2014-07-15T07:24:05Z</time>
      </trkpt>
      <trkpt lat="44.41597" lon="6.12321">
        <ele>1032.1125488</ele>
        <time>2014-07-15T07:24:17Z</time>
      </trkpt>
      <trkpt lat="44.41589" lon="6.12319">
        <ele>1032.5932617</ele>
        <time>2014-07-15T07:24:25Z</time>
      </trkpt>
      <trkpt lat="44.4159" lon="6.12314">
        <ele>1032.5932617</ele>
        <time>2014-07-15T07:24:35Z</time>
      </trkpt>
      <trkpt lat="44.41601" lon="6.12317">
        <ele>1033.0737305</ele>
        <time>2014-07-15T07:24:44Z</time>
      </trkpt>
      <trkpt lat="44.41604" lon="6.12318">
        <ele>1033.5544434</ele>
        <time>2014-07-15T07:24:46Z</time>
      </trkpt>
      <trkpt lat="44.41622" lon="6.12323">
        <ele>1034.996582</ele>
        <time>2014-07-15T07:25:00Z</time>
      </trkpt>
      <trkpt lat="44.41631" lon="6.1232">
        <ele>1035.4770508</ele>
        <time>2014-07-15T07:25:07Z</time>
      </trkpt>
      <trkpt lat="44.41648" lon="6.12305">
        <ele>1037.3999023</ele>
        <time>2014-07-15T07:25:22Z</time>
      </trkpt>
      <trkpt lat="44.41648" lon="6.12305">
        <ele>1037.3999023</ele>
        <time>2014-07-15T07:25:23Z</time>
      </trkpt>
      <trkpt lat="44.41654" lon="6.12315">
        <ele>1038.3613281</ele>
        <time>2014-07-15T07:25:31Z</time>
      </trkpt>
      <trkpt lat="44.41656" lon="6.1232">
        <ele>1038.842041</ele>
        <time>2014-07-15T07:25:35Z</time>
      </trkpt>
      <trkpt lat="44.41657" lon="6.12347">
        <ele>1040.7644043</ele>
        <time>2014-07-15T07:25:50Z</time>
      </trkpt>
      <trkpt lat="44.41667" lon="6.12357">
        <ele>1043.6484375</ele>
        <time>2014-07-15T07:26:06Z</time>
      </trkpt>
      <trkpt lat="44.41674" lon="6.12371">
        <ele>1045.090332</ele>
        <time>2014-07-15T07:26:15Z</time>
      </trkpt>
      <trkpt lat="44.41686" lon="6.12387">
        <ele>1047.0129395</ele>
        <time>2014-07-15T07:26:28Z</time>
      </trkpt>
      <trkpt lat="44.41693" lon="6.12392">
        <ele>1047.9743652</ele>
        <time>2014-07-15T07:26:35Z</time>
      </trkpt>
      <trkpt lat="44.41698" lon="6.12391">
        <ele>1047.9743652</ele>
        <time>2014-07-15T07:26:40Z</time>
      </trkpt>
      <trkpt lat="44.41704" lon="6.12396">
        <ele>1048.454834</ele>
        <time>2014-07-15T07:26:46Z</time>
      </trkpt>
      <trkpt lat="44.4171" lon="6.12397">
        <ele>1049.4162598</ele>
        <time>2014-07-15T07:26:50Z</time>
      </trkpt>
      <trkpt lat="44.41714" lon="6.12401">
        <ele>1049.8969727</ele>
        <time>2014-07-15T07:26:54Z</time>
      </trkpt>
      <trkpt lat="44.41719" lon="6.12408">
        <ele>1050.8581543</ele>
        <time>2014-07-15T07:27:00Z</time>
      </trkpt>
      <trkpt lat="44.41733" lon="6.12425">
        <ele>1052.7810059</ele>
        <time>2014-07-15T07:27:16Z</time>
      </trkpt>
      <trkpt lat="44.41742" lon="6.1242">
        <ele>1053.2617188</ele>
        <time>2014-07-15T07:27:21Z</time>
      </trkpt>
      <trkpt lat="44.41747" lon="6.12412">
        <ele>1053.7424316</ele>
        <time>2014-07-15T07:27:27Z</time>
      </trkpt>
      <trkpt lat="44.41738" lon="6.12385">
        <ele>1055.1843262</ele>
        <time>2014-07-15T07:27:43Z</time>
      </trkpt>
      <trkpt lat="44.41729" lon="6.12368">
        <ele>1056.1455078</ele>
        <time>2014-07-15T07:27:54Z</time>
      </trkpt>
      <trkpt lat="44.41714" lon="6.12352">
        <ele>1057.1069336</ele>
        <time>2014-07-15T07:28:08Z</time>
      </trkpt>
      <trkpt lat="44.41711" lon="6.12351">
        <ele>1057.1069336</ele>
        <time>2014-07-15T07:28:10Z</time>
      </trkpt>
      <trkpt lat="44.41708" lon="6.12345">
        <ele>1057.1069336</ele>
        <time>2014-07-15T07:28:14Z</time>
      </trkpt>
      <trkpt lat="44.41707" lon="6.12341">
        <ele>1057.5876465</ele>
        <time>2014-07-15T07:28:17Z</time>
      </trkpt>
      <trkpt lat="44.41704" lon="6.1233">
        <ele>1058.5488281</ele>
        <time>2014-07-15T07:28:24Z</time>
      </trkpt>
      <trkpt lat="44.41705" lon="6.12321">
        <ele>1059.029541</ele>
        <time>2014-07-15T07:28:29Z</time>
      </trkpt>
      <trkpt lat="44.41704" lon="6.12318">
        <ele>1059.029541</ele>
        <time>2014-07-15T07:28:31Z</time>
      </trkpt>
      <trkpt lat="44.41706" lon="6.12291">
        <ele>1060.9521484</ele>
        <time>2014-07-15T07:28:48Z</time>
      </trkpt>
      <trkpt lat="44.41708" lon="6.12282">
        <ele>1061.4328613</ele>
        <time>2014-07-15T07:28:54Z</time>
      </trkpt>
      <trkpt lat="44.41705" lon="6.12266">
        <ele>1062.8747559</ele>
        <time>2014-07-15T07:29:02Z</time>
      </trkpt>
      <trkpt lat="44.41704" lon="6.12247">
        <ele>1064.3166504</ele>
        <time>2014-07-15T07:29:13Z</time>
      </trkpt>
      <trkpt lat="44.41699" lon="6.12228">
        <ele>1065.2780762</ele>
        <time>2014-07-15T07:29:23Z</time>
      </trkpt>
      <trkpt lat="44.41697" lon="6.12222">
        <ele>1065.2780762</ele>
        <time>2014-07-15T07:29:27Z</time>
      </trkpt>
      <trkpt lat="44.41673" lon="6.12216">
        <ele>1067.2006836</ele>
        <time>2014-07-15T07:29:44Z</time>
      </trkpt>
      <trkpt lat="44.41654" lon="6.1222">
        <ele>1068.6428223</ele>
        <time>2014-07-15T07:30:00Z</time>
      </trkpt>
      <trkpt lat="44.41653" lon="6.1222">
        <ele>1068.6428223</ele>
        <time>2014-07-15T07:30:01Z</time>
      </trkpt>
      <trkpt lat="44.41656" lon="6.12215">
        <ele>1069.604248</ele>
        <time>2014-07-15T07:30:05Z</time>
      </trkpt>
      <trkpt lat="44.41667" lon="6.12202">
        <ele>1070.5654297</ele>
        <time>2014-07-15T07:30:13Z</time>
      </trkpt>
      <trkpt lat="44.41676" lon="6.12181">
        <ele>1072.0073242</ele>
        <time>2014-07-15T07:30:27Z</time>
      </trkpt>
      <trkpt lat="44.41685" lon="6.12169">
        <ele>1072.96875</ele>
        <time>2014-07-15T07:30:38Z</time>
      </trkpt>
      <trkpt lat="44.41697" lon="6.12171">
        <ele>1073.9299316</ele>
        <time>2014-07-15T07:30:47Z</time>
      </trkpt>
      <trkpt lat="44.417" lon="6.12173">
        <ele>1074.4106445</ele>
        <time>2014-07-15T07:30:50Z</time>
      </trkpt>
      <trkpt lat="44.41714" lon="6.1217">
        <ele>1076.333252</ele>
        <time>2014-07-15T07:31:01Z</time>
      </trkpt>
      <trkpt lat="44.41725" lon="6.12172">
        <ele>1076.8139648</ele>
        <time>2014-07-15T07:31:10Z</time>
      </trkpt>
      <trkpt lat="44.41738" lon="6.12169">
        <ele>1078.2558594</ele>
        <time>2014-07-15T07:31:21Z</time>
      </trkpt>
      <trkpt lat="44.41742" lon="6.12168">
        <ele>1078.7365723</ele>
        <time>2014-07-15T07:31:23Z</time>
      </trkpt>
      <trkpt lat="44.41752" lon="6.1219">
        <ele>1080.6591797</ele>
        <time>2014-07-15T07:31:40Z</time>
      </trkpt>
      <trkpt lat="44.41752" lon="6.12213">
        <ele>1082.1010742</ele>
        <time>2014-07-15T07:31:53Z</time>
      </trkpt>
      <trkpt lat="44.41759" lon="6.1222">
        <ele>1082.5817871</ele>
        <time>2014-07-15T07:31:59Z</time>
      </trkpt>
      <trkpt lat="44.41763" lon="6.1222">
        <ele>1082.5817871</ele>
        <time>2014-07-15T07:32:02Z</time>
      </trkpt>
      <trkpt lat="44.41768" lon="6.12192">
        <ele>1084.0239258</ele>
        <time>2014-07-15T07:32:18Z</time>
      </trkpt>
      <trkpt lat="44.41757" lon="6.12157">
        <ele>1084.9853516</ele>
        <time>2014-07-15T07:32:36Z</time>
      </trkpt>
      <trkpt lat="44.41754" lon="6.12151">
        <ele>1084.9853516</ele>
        <time>2014-07-15T07:32:39Z</time>
      </trkpt>
      <trkpt lat="44.41737" lon="6.12125">
        <ele>1086.9077148</ele>
        <time>2014-07-15T07:32:57Z</time>
      </trkpt>
      <trkpt lat="44.41732" lon="6.12095">
        <ele>1087.8691406</ele>
        <time>2014-07-15T07:33:13Z</time>
      </trkpt>
      <trkpt lat="44.41723" lon="6.12077">
        <ele>1089.791748</ele>
        <time>2014-07-15T07:33:24Z</time>
      </trkpt>
      <trkpt lat="44.41713" lon="6.1205">
        <ele>1091.2336426</ele>
        <time>2014-07-15T07:33:40Z</time>
      </trkpt>
      <trkpt lat="44.41723" lon="6.12016">
        <ele>1093.6369629</ele>
        <time>2014-07-15T07:34:00Z</time>
      </trkpt>
      <trkpt lat="44.41728" lon="6.1201">
        <ele>1093.6369629</ele>
        <time>2014-07-15T07:34:05Z</time>
      </trkpt>
      <trkpt lat="44.41738" lon="6.11993">
        <ele>1094.5981445</ele>
        <time>2014-07-15T07:34:16Z</time>
      </trkpt>
      <trkpt lat="44.41725" lon="6.11962">
        <ele>1096.0402832</ele>
        <time>2014-07-15T07:34:34Z</time>
      </trkpt>
      <trkpt lat="44.41699" lon="6.11953">
        <ele>1097.9628906</ele>
        <time>2014-07-15T07:34:52Z</time>
      </trkpt>
      <trkpt lat="44.41681" lon="6.11943">
        <ele>1099.885498</ele>
        <time>2014-07-15T07:35:08Z</time>
      </trkpt>
      <trkpt lat="44.41661" lon="6.11923">
        <ele>1101.8083496</ele>
        <time>2014-07-15T07:35:26Z</time>
      </trkpt>
      <trkpt lat="44.41644" lon="6.11889">
        <ele>1104.6921387</ele>
        <time>2014-07-15T07:35:49Z</time>
      </trkpt>
      <trkpt lat="44.41638" lon="6.11872">
        <ele>1106.6147461</ele>
        <time>2014-07-15T07:36:01Z</time>
      </trkpt>
      <trkpt lat="44.41641" lon="6.11848">
        <ele>1107.095459</ele>
        <time>2014-07-15T07:36:15Z</time>
      </trkpt>
      <trkpt lat="44.41643" lon="6.11845">
        <ele>1107.095459</ele>
        <time>2014-07-15T07:36:17Z</time>
      </trkpt>
      <trkpt lat="44.41655" lon="6.11825">
        <ele>1108.5373535</ele>
        <time>2014-07-15T07:36:30Z</time>
      </trkpt>
      <trkpt lat="44.41656" lon="6.11823">
        <ele>1109.0180664</ele>
        <time>2014-07-15T07:36:32Z</time>
      </trkpt>
      <trkpt lat="44.41663" lon="6.11805">
        <ele>1109.4987793</ele>
        <time>2014-07-15T07:36:40Z</time>
      </trkpt>
      <trkpt lat="44.41675" lon="6.11785">
        <ele>1110.4599609</ele>
        <time>2014-07-15T07:36:53Z</time>
      </trkpt>
      <trkpt lat="44.41686" lon="6.11779">
        <ele>1110.9406738</ele>
        <time>2014-07-15T07:37:02Z</time>
      </trkpt>
      <trkpt lat="44.41703" lon="6.11776">
        <ele>1111.9020996</ele>
        <time>2014-07-15T07:37:13Z</time>
      </trkpt>
      <trkpt lat="44.41722" lon="6.11759">
        <ele>1112.8632813</ele>
        <time>2014-07-15T07:37:28Z</time>
      </trkpt>
      <trkpt lat="44.41734" lon="6.11735">
        <ele>1112.3825684</ele>
        <time>2014-07-15T07:37:39Z</time>
      </trkpt>
      <trkpt lat="44.41753" lon="6.11723">
        <ele>1111.9020996</ele>
        <time>2014-07-15T07:37:48Z</time>
      </trkpt>
      <trkpt lat="44.41749" lon="6.11705">
        <ele>1111.9020996</ele>
        <time>2014-07-15T07:37:54Z</time>
      </trkpt>
      <trkpt lat="44.41734" lon="6.11693">
        <ele>1112.8632813</ele>
        <time>2014-07-15T07:38:03Z</time>
      </trkpt>
      <trkpt lat="44.41729" lon="6.1169">
        <ele>1113.8244629</ele>
        <time>2014-07-15T07:38:06Z</time>
      </trkpt>
      <trkpt lat="44.41721" lon="6.11682">
        <ele>1113.8244629</ele>
        <time>2014-07-15T07:38:12Z</time>
      </trkpt>
      <trkpt lat="44.41696" lon="6.11678">
        <ele>1116.2280273</ele>
        <time>2014-07-15T07:38:28Z</time>
      </trkpt>
      <trkpt lat="44.4168" lon="6.11667">
        <ele>1116.2280273</ele>
        <time>2014-07-15T07:38:40Z</time>
      </trkpt>
      <trkpt lat="44.41665" lon="6.11665">
        <ele>1117.1894531</ele>
        <time>2014-07-15T07:38:50Z</time>
      </trkpt>
      <trkpt lat="44.41657" lon="6.11667">
        <ele>1117.6699219</ele>
        <time>2014-07-15T07:38:55Z</time>
      </trkpt>
      <trkpt lat="44.41651" lon="6.11667">
        <ele>1118.6313477</ele>
        <time>2014-07-15T07:38:59Z</time>
      </trkpt>
      <trkpt lat="44.41631" lon="6.11664">
        <ele>1120.5539551</ele>
        <time>2014-07-15T07:39:14Z</time>
      </trkpt>
      <trkpt lat="44.41613" lon="6.11663">
        <ele>1123.4379883</ele>
        <time>2014-07-15T07:39:28Z</time>
      </trkpt>
      <trkpt lat="44.41605" lon="6.1166">
        <ele>1124.3991699</ele>
        <time>2014-07-15T07:39:35Z</time>
      </trkpt>
      <trkpt lat="44.41583" lon="6.11653">
        <ele>1127.7636719</ele>
        <time>2014-07-15T07:39:53Z</time>
      </trkpt>
      <trkpt lat="44.41574" lon="6.11653">
        <ele>1128.2443848</ele>
        <time>2014-07-15T07:39:58Z</time>
      </trkpt>
      <trkpt lat="44.41565" lon="6.11646">
        <ele>1129.6862793</ele>
        <time>2014-07-15T07:40:07Z</time>
      </trkpt>
      <trkpt lat="44.41561" lon="6.11641">
        <ele>1130.1669922</ele>
        <time>2014-07-15T07:40:11Z</time>
      </trkpt>
      <trkpt lat="44.41552" lon="6.11631">
        <ele>1132.0898438</ele>
        <time>2014-07-15T07:40:20Z</time>
      </trkpt>
      <trkpt lat="44.41543" lon="6.11607">
        <ele>1133.0510254</ele>
        <time>2014-07-15T07:40:36Z</time>
      </trkpt>
      <trkpt lat="44.41538" lon="6.11595">
        <ele>1134.4931641</ele>
        <time>2014-07-15T07:40:43Z</time>
      </trkpt>
      <trkpt lat="44.41536" lon="6.11591">
        <ele>1134.973877</ele>
        <time>2014-07-15T07:40:46Z</time>
      </trkpt>
      <trkpt lat="44.41536" lon="6.11588">
        <ele>1134.973877</ele>
        <time>2014-07-15T07:40:48Z</time>
      </trkpt>
      <trkpt lat="44.41531" lon="6.11575">
        <ele>1135.4543457</ele>
        <time>2014-07-15T07:40:55Z</time>
      </trkpt>
      <trkpt lat="44.41531" lon="6.11546">
        <ele>1137.857666</ele>
        <time>2014-07-15T07:41:12Z</time>
      </trkpt>
      <trkpt lat="44.41532" lon="6.11543">
        <ele>1137.857666</ele>
        <time>2014-07-15T07:41:14Z</time>
      </trkpt>
      <trkpt lat="44.41543" lon="6.11522">
        <ele>1140.2609863</ele>
        <time>2014-07-15T07:41:28Z</time>
      </trkpt>
      <trkpt lat="44.41553" lon="6.11511">
        <ele>1141.7028809</ele>
        <time>2014-07-15T07:41:38Z</time>
      </trkpt>
      <trkpt lat="44.41554" lon="6.11509">
        <ele>1142.1835938</ele>
        <time>2014-07-15T07:41:39Z</time>
      </trkpt>
      <trkpt lat="44.41555" lon="6.11507">
        <ele>1141.7028809</ele>
        <time>2014-07-15T07:41:41Z</time>
      </trkpt>
      <trkpt lat="44.41559" lon="6.11499">
        <ele>1142.6643066</ele>
        <time>2014-07-15T07:41:45Z</time>
      </trkpt>
      <trkpt lat="44.41567" lon="6.11482">
        <ele>1144.1062012</ele>
        <time>2014-07-15T07:41:57Z</time>
      </trkpt>
      <trkpt lat="44.41577" lon="6.11469">
        <ele>1145.5480957</ele>
        <time>2014-07-15T07:42:05Z</time>
      </trkpt>
      <trkpt lat="44.41582" lon="6.11459">
        <ele>1146.5095215</ele>
        <time>2014-07-15T07:42:12Z</time>
      </trkpt>
      <trkpt lat="44.41597" lon="6.11444">
        <ele>1148.4321289</ele>
        <time>2014-07-15T07:42:26Z</time>
      </trkpt>
      <trkpt lat="44.41615" lon="6.11438">
        <ele>1150.8354492</ele>
        <time>2014-07-15T07:42:42Z</time>
      </trkpt>
      <trkpt lat="44.41628" lon="6.11438">
        <ele>1152.2773438</ele>
        <time>2014-07-15T07:42:55Z</time>
      </trkpt>
      <trkpt lat="44.41634" lon="6.1144">
        <ele>1153.2387695</ele>
        <time>2014-07-15T07:43:02Z</time>
      </trkpt>
      <trkpt lat="44.41642" lon="6.11442">
        <ele>1154.2001953</ele>
        <time>2014-07-15T07:43:08Z</time>
      </trkpt>
      <trkpt lat="44.41654" lon="6.11443">
        <ele>1156.1225586</ele>
        <time>2014-07-15T07:43:19Z</time>
      </trkpt>
      <trkpt lat="44.41662" lon="6.11447">
        <ele>1157.0839844</ele>
        <time>2014-07-15T07:43:25Z</time>
      </trkpt>
      <trkpt lat="44.41665" lon="6.11451">
        <ele>1157.0839844</ele>
        <time>2014-07-15T07:43:29Z</time>
      </trkpt>
      <trkpt lat="44.41678" lon="6.1146">
        <ele>1159.0065918</ele>
        <time>2014-07-15T07:43:42Z</time>
      </trkpt>
      <trkpt lat="44.41679" lon="6.11462">
        <ele>1159.0065918</ele>
        <time>2014-07-15T07:43:44Z</time>
      </trkpt>
      <trkpt lat="44.41686" lon="6.11467">
        <ele>1160.4484863</ele>
        <time>2014-07-15T07:43:51Z</time>
      </trkpt>
      <trkpt lat="44.417" lon="6.11473">
        <ele>1161.890625</ele>
        <time>2014-07-15T07:44:03Z</time>
      </trkpt>
      <trkpt lat="44.41704" lon="6.11474">
        <ele>1162.3710938</ele>
        <time>2014-07-15T07:44:06Z</time>
      </trkpt>
      <trkpt lat="44.41717" lon="6.11478">
        <ele>1163.3325195</ele>
        <time>2014-07-15T07:44:16Z</time>
      </trkpt>
      <trkpt lat="44.41719" lon="6.11481">
        <ele>1164.2939453</ele>
        <time>2014-07-15T07:44:19Z</time>
      </trkpt>
      <trkpt lat="44.41727" lon="6.11481">
        <ele>1164.7746582</ele>
        <time>2014-07-15T07:44:25Z</time>
      </trkpt>
      <trkpt lat="44.41736" lon="6.11486">
        <ele>1166.2165527</ele>
        <time>2014-07-15T07:44:34Z</time>
      </trkpt>
      <trkpt lat="44.41742" lon="6.11485">
        <ele>1166.6972656</ele>
        <time>2014-07-15T07:44:39Z</time>
      </trkpt>
      <trkpt lat="44.41744" lon="6.11484">
        <ele>1166.6972656</ele>
        <time>2014-07-15T07:44:41Z</time>
      </trkpt>
      <trkpt lat="44.41761" lon="6.11484">
        <ele>1169.1005859</ele>
        <time>2014-07-15T07:44:56Z</time>
      </trkpt>
      <trkpt lat="44.41776" lon="6.1149">
        <ele>1171.5036621</ele>
        <time>2014-07-15T07:45:11Z</time>
      </trkpt>
      <trkpt lat="44.41783" lon="6.11496">
        <ele>1172.9458008</ele>
        <time>2014-07-15T07:45:17Z</time>
      </trkpt>
      <trkpt lat="44.41783" lon="6.11502">
        <ele>1172.9458008</ele>
        <time>2014-07-15T07:45:21Z</time>
      </trkpt>
      <trkpt lat="44.4178" lon="6.11508">
        <ele>1173.4265137</ele>
        <time>2014-07-15T07:45:25Z</time>
      </trkpt>
      <trkpt lat="44.41778" lon="6.11511">
        <ele>1173.4265137</ele>
        <time>2014-07-15T07:45:44Z</time>
      </trkpt>
      <trkpt lat="44.41776" lon="6.11518">
        <ele>1172.9458008</ele>
        <time>2014-07-15T07:45:57Z</time>
      </trkpt>
      <trkpt lat="44.41773" lon="6.11511">
        <ele>1173.9069824</ele>
        <time>2014-07-15T07:46:15Z</time>
      </trkpt>
      <trkpt lat="44.41774" lon="6.11508">
        <ele>1173.9069824</ele>
        <time>2014-07-15T07:46:23Z</time>
      </trkpt>
      <trkpt lat="44.41785" lon="6.11516">
        <ele>1173.9069824</ele>
        <time>2014-07-15T07:46:38Z</time>
      </trkpt>
      <trkpt lat="44.41785" lon="6.11519">
        <ele>1173.4265137</ele>
        <time>2014-07-15T07:46:40Z</time>
      </trkpt>
      <trkpt lat="44.41785" lon="6.11529">
        <ele>1173.4265137</ele>
        <time>2014-07-15T07:46:53Z</time>
      </trkpt>
      <trkpt lat="44.41787" lon="6.11536">
        <ele>1173.4265137</ele>
        <time>2014-07-15T07:47:06Z</time>
      </trkpt>
      <trkpt lat="44.41788" lon="6.11526">
        <ele>1174.3876953</ele>
        <time>2014-07-15T07:48:14Z</time>
      </trkpt>
      <trkpt lat="44.41785" lon="6.11521">
        <ele>1174.3876953</ele>
        <time>2014-07-15T07:48:29Z</time>
      </trkpt>
      <trkpt lat="44.41784" lon="6.11523">
        <ele>1174.8684082</ele>
        <time>2014-07-15T07:48:57Z</time>
      </trkpt>
      <trkpt lat="44.41783" lon="6.11516">
        <ele>1174.8684082</ele>
        <time>2014-07-15T07:49:10Z</time>
      </trkpt>
      <trkpt lat="44.41782" lon="6.11514">
        <ele>1174.8684082</ele>
        <time>2014-07-15T07:49:12Z</time>
      </trkpt>
      <trkpt lat="44.41774" lon="6.11498">
        <ele>1174.3876953</ele>
        <time>2014-07-15T07:49:32Z</time>
      </trkpt>
      <trkpt lat="44.41774" lon="6.115">
        <ele>1174.3876953</ele>
        <time>2014-07-15T07:49:41Z</time>
      </trkpt>
      <trkpt lat="44.41776" lon="6.115">
        <ele>1173.4265137</ele>
        <time>2014-07-15T07:49:52Z</time>
      </trkpt>
      <trkpt lat="44.41776" lon="6.115">
        <ele>1173.4265137</ele>
        <time>2014-07-15T07:50:18Z</time>
      </trkpt>
      <trkpt lat="44.41773" lon="6.115">
        <ele>1174.3876953</ele>
        <time>2014-07-15T07:53:44Z</time>
      </trkpt>
      <trkpt lat="44.41775" lon="6.11498">
        <ele>1174.3876953</ele>
        <time>2014-07-15T07:57:05Z</time>
      </trkpt>
      <trkpt lat="44.41777" lon="6.11502">
        <ele>1174.3876953</ele>
        <time>2014-07-15T07:57:23Z</time>
      </trkpt>
      <trkpt lat="44.41782" lon="6.115">
        <ele>1174.3876953</ele>
        <time>2014-07-15T07:57:27Z</time>
      </trkpt>
      <trkpt lat="44.41784" lon="6.11494">
        <ele>1174.3876953</ele>
        <time>2014-07-15T07:57:30Z</time>
      </trkpt>
      <trkpt lat="44.41799" lon="6.11487">
        <ele>1175.8295898</ele>
        <time>2014-07-15T07:57:43Z</time>
      </trkpt>
      <trkpt lat="44.41807" lon="6.11481">
        <ele>1177.2717285</ele>
        <time>2014-07-15T07:57:51Z</time>
      </trkpt>
      <trkpt lat="44.41813" lon="6.11479">
        <ele>1178.2329102</ele>
        <time>2014-07-15T07:57:55Z</time>
      </trkpt>
      <trkpt lat="44.41832" lon="6.11468">
        <ele>1179.6748047</ele>
        <time>2014-07-15T07:58:07Z</time>
      </trkpt>
      <trkpt lat="44.41833" lon="6.11467">
        <ele>1180.1557617</ele>
        <time>2014-07-15T07:58:09Z</time>
      </trkpt>
      <trkpt lat="44.41854" lon="6.11465">
        <ele>1182.559082</ele>
        <time>2014-07-15T07:58:24Z</time>
      </trkpt>
      <trkpt lat="44.41858" lon="6.11465">
        <ele>1183.0395508</ele>
        <time>2014-07-15T07:58:26Z</time>
      </trkpt>
      <trkpt lat="44.41866" lon="6.11465">
        <ele>1183.5202637</ele>
        <time>2014-07-15T07:58:31Z</time>
      </trkpt>
      <trkpt lat="44.41888" lon="6.11458">
        <ele>1184.9624023</ele>
        <time>2014-07-15T07:58:49Z</time>
      </trkpt>
      <trkpt lat="44.41897" lon="6.11451">
        <ele>1185.4428711</ele>
        <time>2014-07-15T07:58:58Z</time>
      </trkpt>
      <trkpt lat="44.41912" lon="6.11445">
        <ele>1187.3654785</ele>
        <time>2014-07-15T07:59:12Z</time>
      </trkpt>
      <trkpt lat="44.41927" lon="6.11417">
        <ele>1189.7687988</ele>
        <time>2014-07-15T07:59:29Z</time>
      </trkpt>
      <trkpt lat="44.4193" lon="6.11409">
        <ele>1190.2495117</ele>
        <time>2014-07-15T07:59:34Z</time>
      </trkpt>
      <trkpt lat="44.41935" lon="6.11397">
        <ele>1191.2106934</ele>
        <time>2014-07-15T07:59:41Z</time>
      </trkpt>
      <trkpt lat="44.41939" lon="6.11392">
        <ele>1191.6914063</ele>
        <time>2014-07-15T07:59:45Z</time>
      </trkpt>
      <trkpt lat="44.41945" lon="6.11387">
        <ele>1192.652832</ele>
        <time>2014-07-15T07:59:51Z</time>
      </trkpt>
      <trkpt lat="44.41946" lon="6.11381">
        <ele>1192.652832</ele>
        <time>2014-07-15T07:59:55Z</time>
      </trkpt>
      <trkpt lat="44.41949" lon="6.11377">
        <ele>1193.6140137</ele>
        <time>2014-07-15T07:59:59Z</time>
      </trkpt>
      <trkpt lat="44.41952" lon="6.11374">
        <ele>1194.5751953</ele>
        <time>2014-07-15T08:00:02Z</time>
      </trkpt>
      <trkpt lat="44.4197" lon="6.11371">
        <ele>1196.0175781</ele>
        <time>2014-07-15T08:00:19Z</time>
      </trkpt>
      <trkpt lat="44.41979" lon="6.11357">
        <ele>1197.4594727</ele>
        <time>2014-07-15T08:00:27Z</time>
      </trkpt>
      <trkpt lat="44.41971" lon="6.11342">
        <ele>1198.9013672</ele>
        <time>2014-07-15T08:00:38Z</time>
      </trkpt>
      <trkpt lat="44.41965" lon="6.11331">
        <ele>1199.862793</ele>
        <time>2014-07-15T08:00:46Z</time>
      </trkpt>
      <trkpt lat="44.41947" lon="6.11326">
        <ele>1202.2658691</ele>
        <time>2014-07-15T08:01:03Z</time>
      </trkpt>
      <trkpt lat="44.4194" lon="6.11326">
        <ele>1203.2272949</ele>
        <time>2014-07-15T08:01:09Z</time>
      </trkpt>
      <trkpt lat="44.41928" lon="6.11326">
        <ele>1204.1887207</ele>
        <time>2014-07-15T08:01:19Z</time>
      </trkpt>
      <trkpt lat="44.41901" lon="6.11324">
        <ele>1207.0725098</ele>
        <time>2014-07-15T08:01:40Z</time>
      </trkpt>
      <trkpt lat="44.4188" lon="6.11317">
        <ele>1208.9951172</ele>
        <time>2014-07-15T08:01:57Z</time>
      </trkpt>
      <trkpt lat="44.41855" lon="6.11311">
        <ele>1210.9177246</ele>
        <time>2014-07-15T08:02:18Z</time>
      </trkpt>
      <trkpt lat="44.41839" lon="6.11278">
        <ele>1213.3212891</ele>
        <time>2014-07-15T08:02:39Z</time>
      </trkpt>
      <trkpt lat="44.41832" lon="6.1127">
        <ele>1213.8017578</ele>
        <time>2014-07-15T08:02:45Z</time>
      </trkpt>
      <trkpt lat="44.41827" lon="6.11243">
        <ele>1214.2824707</ele>
        <time>2014-07-15T08:03:00Z</time>
      </trkpt>
      <trkpt lat="44.41825" lon="6.11233">
        <ele>1214.2824707</ele>
        <time>2014-07-15T08:03:14Z</time>
      </trkpt>
      <trkpt lat="44.41828" lon="6.11217">
        <ele>1214.2824707</ele>
        <time>2014-07-15T08:03:31Z</time>
      </trkpt>
      <trkpt lat="44.4183" lon="6.11155">
        <ele>1213.3212891</ele>
        <time>2014-07-15T08:03:45Z</time>
      </trkpt>
      <trkpt lat="44.41854" lon="6.11125">
        <ele>1212.3598633</ele>
        <time>2014-07-15T08:03:55Z</time>
      </trkpt>
      <trkpt lat="44.41878" lon="6.11133">
        <ele>1211.8791504</ele>
        <time>2014-07-15T08:04:05Z</time>
      </trkpt>
      <trkpt lat="44.41918" lon="6.11164">
        <ele>1210.9177246</ele>
        <time>2014-07-15T08:04:19Z</time>
      </trkpt>
      <trkpt lat="44.41949" lon="6.11187">
        <ele>1209.9562988</ele>
        <time>2014-07-15T08:04:30Z</time>
      </trkpt>
      <trkpt lat="44.41986" lon="6.11216">
        <ele>1208.9951172</ele>
        <time>2014-07-15T08:04:41Z</time>
      </trkpt>
      <trkpt lat="44.41996" lon="6.11227">
        <ele>1208.5144043</ele>
        <time>2014-07-15T08:04:45Z</time>
      </trkpt>
      <trkpt lat="44.42009" lon="6.11213">
        <ele>1208.5144043</ele>
        <time>2014-07-15T08:04:50Z</time>
      </trkpt>
      <trkpt lat="44.42021" lon="6.11178">
        <ele>1207.5532227</ele>
        <time>2014-07-15T08:04:56Z</time>
      </trkpt>
      <trkpt lat="44.42026" lon="6.11168">
        <ele>1206.5917969</ele>
        <time>2014-07-15T08:04:58Z</time>
      </trkpt>
      <trkpt lat="44.42063" lon="6.11141">
        <ele>1206.111084</ele>
        <time>2014-07-15T08:05:10Z</time>
      </trkpt>
      <trkpt lat="44.42092" lon="6.11143">
        <ele>1205.6306152</ele>
        <time>2014-07-15T08:05:20Z</time>
      </trkpt>
      <trkpt lat="44.42133" lon="6.11143">
        <ele>1204.1887207</ele>
        <time>2014-07-15T08:05:31Z</time>
      </trkpt>
      <trkpt lat="44.42141" lon="6.11145">
        <ele>1203.7080078</ele>
        <time>2014-07-15T08:05:33Z</time>
      </trkpt>
      <trkpt lat="44.42168" lon="6.11133">
        <ele>1203.2272949</ele>
        <time>2014-07-15T08:05:40Z</time>
      </trkpt>
      <trkpt lat="44.42185" lon="6.11125">
        <ele>1202.746582</ele>
        <time>2014-07-15T08:05:44Z</time>
      </trkpt>
      <trkpt lat="44.42212" lon="6.11121">
        <ele>1202.2658691</ele>
        <time>2014-07-15T08:05:51Z</time>
      </trkpt>
      <trkpt lat="44.42247" lon="6.11094">
        <ele>1201.3046875</ele>
        <time>2014-07-15T08:06:01Z</time>
      </trkpt>
      <trkpt lat="44.42271" lon="6.11093">
        <ele>1200.8239746</ele>
        <time>2014-07-15T08:06:06Z</time>
      </trkpt>
      <trkpt lat="44.42288" lon="6.11109">
        <ele>1199.862793</ele>
        <time>2014-07-15T08:06:12Z</time>
      </trkpt>
      <trkpt lat="44.42301" lon="6.1111">
        <ele>1199.862793</ele>
        <time>2014-07-15T08:06:16Z</time>
      </trkpt>
      <trkpt lat="44.42313" lon="6.11098">
        <ele>1199.3820801</ele>
        <time>2014-07-15T08:06:19Z</time>
      </trkpt>
      <trkpt lat="44.42331" lon="6.1109">
        <ele>1198.4206543</ele>
        <time>2014-07-15T08:06:23Z</time>
      </trkpt>
      <trkpt lat="44.42339" lon="6.11091">
        <ele>1198.4206543</ele>
        <time>2014-07-15T08:06:26Z</time>
      </trkpt>
      <trkpt lat="44.42351" lon="6.11102">
        <ele>1198.9013672</ele>
        <time>2014-07-15T08:06:32Z</time>
      </trkpt>
      <trkpt lat="44.42393" lon="6.11104">
        <ele>1198.4206543</ele>
        <time>2014-07-15T08:06:43Z</time>
      </trkpt>
      <trkpt lat="44.42414" lon="6.11104">
        <ele>1197.4594727</ele>
        <time>2014-07-15T08:06:47Z</time>
      </trkpt>
      <trkpt lat="44.42432" lon="6.11105">
        <ele>1197.9401855</ele>
        <time>2014-07-15T08:06:51Z</time>
      </trkpt>
      <trkpt lat="44.42469" lon="6.11123">
        <ele>1196.0175781</ele>
        <time>2014-07-15T08:07:00Z</time>
      </trkpt>
      <trkpt lat="44.42496" lon="6.1113">
        <ele>1195.5366211</ele>
        <time>2014-07-15T08:07:06Z</time>
      </trkpt>
      <trkpt lat="44.42525" lon="6.1115">
        <ele>1194.5751953</ele>
        <time>2014-07-15T08:07:15Z</time>
      </trkpt>
      <trkpt lat="44.42525" lon="6.11141">
        <ele>1194.0947266</ele>
        <time>2014-07-15T08:07:22Z</time>
      </trkpt>
      <trkpt lat="44.42502" lon="6.11118">
        <ele>1196.0175781</ele>
        <time>2014-07-15T08:07:34Z</time>
      </trkpt>
      <trkpt lat="44.42501" lon="6.11115">
        <ele>1196.0175781</ele>
        <time>2014-07-15T08:07:35Z</time>
      </trkpt>
      <trkpt lat="44.42504" lon="6.11111">
        <ele>1196.9787598</ele>
        <time>2014-07-15T08:07:38Z</time>
      </trkpt>
      <trkpt lat="44.42495" lon="6.11104">
        <ele>1197.4594727</ele>
        <time>2014-07-15T08:07:44Z</time>
      </trkpt>
      <trkpt lat="44.42467" lon="6.11084">
        <ele>1199.3820801</ele>
        <time>2014-07-15T08:08:00Z</time>
      </trkpt>
      <trkpt lat="44.42449" lon="6.11052">
        <ele>1200.8239746</ele>
        <time>2014-07-15T08:08:14Z</time>
      </trkpt>
      <trkpt lat="44.42447" lon="6.11029">
        <ele>1202.2658691</ele>
        <time>2014-07-15T08:08:22Z</time>
      </trkpt>
      <trkpt lat="44.4244" lon="6.11012">
        <ele>1202.2658691</ele>
        <time>2014-07-15T08:08:29Z</time>
      </trkpt>
      <trkpt lat="44.42414" lon="6.10992">
        <ele>1204.6691895</ele>
        <time>2014-07-15T08:08:46Z</time>
      </trkpt>
      <trkpt lat="44.42408" lon="6.10991">
        <ele>1204.6691895</ele>
        <time>2014-07-15T08:08:48Z</time>
      </trkpt>
      <trkpt lat="44.42376" lon="6.10986">
        <ele>1206.5917969</ele>
        <time>2014-07-15T08:09:04Z</time>
      </trkpt>
      <trkpt lat="44.42351" lon="6.10952">
        <ele>1208.5144043</ele>
        <time>2014-07-15T08:09:23Z</time>
      </trkpt>
      <trkpt lat="44.42346" lon="6.10946">
        <ele>1208.9951172</ele>
        <time>2014-07-15T08:09:27Z</time>
      </trkpt>
      <trkpt lat="44.42338" lon="6.10935">
        <ele>1209.9562988</ele>
        <time>2014-07-15T08:09:33Z</time>
      </trkpt>
      <trkpt lat="44.42321" lon="6.10913">
        <ele>1210.4370117</ele>
        <time>2014-07-15T08:09:45Z</time>
      </trkpt>
      <trkpt lat="44.42317" lon="6.10907">
        <ele>1210.9177246</ele>
        <time>2014-07-15T08:09:48Z</time>
      </trkpt>
      <trkpt lat="44.4231" lon="6.10904">
        <ele>1211.3984375</ele>
        <time>2014-07-15T08:09:52Z</time>
      </trkpt>
      <trkpt lat="44.42281" lon="6.1089">
        <ele>1212.8405762</ele>
        <time>2014-07-15T08:10:08Z</time>
      </trkpt>
      <trkpt lat="44.42252" lon="6.10873">
        <ele>1213.8017578</ele>
        <time>2014-07-15T08:10:23Z</time>
      </trkpt>
      <trkpt lat="44.42251" lon="6.1086">
        <ele>1214.7631836</ele>
        <time>2014-07-15T08:10:28Z</time>
      </trkpt>
      <trkpt lat="44.42248" lon="6.10845">
        <ele>1215.7246094</ele>
        <time>2014-07-15T08:10:34Z</time>
      </trkpt>
      <trkpt lat="44.42217" lon="6.10848">
        <ele>1217.6469727</ele>
        <time>2014-07-15T08:10:49Z</time>
      </trkpt>
      <trkpt lat="44.42174" lon="6.10862">
        <ele>1219.5698242</ele>
        <time>2014-07-15T08:11:09Z</time>
      </trkpt>
      <trkpt lat="44.42149" lon="6.10855">
        <ele>1220.5310059</ele>
        <time>2014-07-15T08:11:22Z</time>
      </trkpt>
      <trkpt lat="44.42137" lon="6.10818">
        <ele>1221.9729004</ele>
        <time>2014-07-15T08:11:37Z</time>
      </trkpt>
      <trkpt lat="44.42136" lon="6.10816">
        <ele>1221.9729004</ele>
        <time>2014-07-15T08:11:38Z</time>
      </trkpt>
      <trkpt lat="44.42116" lon="6.10804">
        <ele>1223.4150391</ele>
        <time>2014-07-15T08:11:50Z</time>
      </trkpt>
      <trkpt lat="44.42089" lon="6.10783">
        <ele>1224.8569336</ele>
        <time>2014-07-15T08:12:05Z</time>
      </trkpt>
      <trkpt lat="44.42091" lon="6.10744">
        <ele>1225.8181152</ele>
        <time>2014-07-15T08:12:18Z</time>
      </trkpt>
      <trkpt lat="44.42119" lon="6.10708">
        <ele>1227.2602539</ele>
        <time>2014-07-15T08:12:37Z</time>
      </trkpt>
      <trkpt lat="44.42152" lon="6.10703">
        <ele>1227.7407227</ele>
        <time>2014-07-15T08:12:52Z</time>
      </trkpt>
      <trkpt lat="44.42176" lon="6.10706">
        <ele>1228.2216797</ele>
        <time>2014-07-15T08:13:03Z</time>
      </trkpt>
      <trkpt lat="44.42199" lon="6.10709">
        <ele>1228.7023926</ele>
        <time>2014-07-15T08:13:12Z</time>
      </trkpt>
      <trkpt lat="44.42224" lon="6.10691">
        <ele>1228.2216797</ele>
        <time>2014-07-15T08:13:25Z</time>
      </trkpt>
      <trkpt lat="44.42237" lon="6.10633">
        <ele>1228.2216797</ele>
        <time>2014-07-15T08:13:38Z</time>
      </trkpt>
      <trkpt lat="44.4226" lon="6.10599">
        <ele>1228.7023926</ele>
        <time>2014-07-15T08:13:50Z</time>
      </trkpt>
      <trkpt lat="44.42262" lon="6.10596">
        <ele>1228.7023926</ele>
        <time>2014-07-15T08:13:51Z</time>
      </trkpt>
      <trkpt lat="44.42279" lon="6.10548">
        <ele>1228.2216797</ele>
        <time>2014-07-15T08:14:02Z</time>
      </trkpt>
      <trkpt lat="44.42292" lon="6.10514">
        <ele>1228.7023926</ele>
        <time>2014-07-15T08:14:11Z</time>
      </trkpt>
      <trkpt lat="44.42292" lon="6.10512">
        <ele>1228.7023926</ele>
        <time>2014-07-15T08:14:12Z</time>
      </trkpt>
      <trkpt lat="44.42297" lon="6.10473">
        <ele>1228.7023926</ele>
        <time>2014-07-15T08:14:20Z</time>
      </trkpt>
      <trkpt lat="44.42282" lon="6.1046">
        <ele>1228.2216797</ele>
        <time>2014-07-15T08:14:27Z</time>
      </trkpt>
      <trkpt lat="44.42251" lon="6.1045">
        <ele>1228.2216797</ele>
        <time>2014-07-15T08:14:37Z</time>
      </trkpt>
      <trkpt lat="44.42248" lon="6.10401">
        <ele>1227.7407227</ele>
        <time>2014-07-15T08:14:49Z</time>
      </trkpt>
      <trkpt lat="44.42255" lon="6.10359">
        <ele>1228.7023926</ele>
        <time>2014-07-15T08:15:00Z</time>
      </trkpt>
      <trkpt lat="44.42273" lon="6.10308">
        <ele>1229.1828613</ele>
        <time>2014-07-15T08:15:14Z</time>
      </trkpt>
      <trkpt lat="44.42281" lon="6.10287">
        <ele>1228.7023926</ele>
        <time>2014-07-15T08:15:25Z</time>
      </trkpt>
      <trkpt lat="44.42279" lon="6.10291">
        <ele>1228.7023926</ele>
        <time>2014-07-15T08:15:48Z</time>
      </trkpt>
      <trkpt lat="44.42278" lon="6.1029">
        <ele>1229.1828613</ele>
        <time>2014-07-15T08:15:51Z</time>
      </trkpt>
      <trkpt lat="44.42247" lon="6.1029">
        <ele>1230.1442871</ele>
        <time>2014-07-15T08:16:01Z</time>
      </trkpt>
      <trkpt lat="44.42237" lon="6.10291">
        <ele>1229.6635742</ele>
        <time>2014-07-15T08:16:04Z</time>
      </trkpt>
      <trkpt lat="44.42191" lon="6.10319">
        <ele>1230.625</ele>
        <time>2014-07-15T08:16:19Z</time>
      </trkpt>
      <trkpt lat="44.42157" lon="6.10336">
        <ele>1231.5861816</ele>
        <time>2014-07-15T08:16:31Z</time>
      </trkpt>
      <trkpt lat="44.42126" lon="6.10348">
        <ele>1232.0668945</ele>
        <time>2014-07-15T08:16:42Z</time>
      </trkpt>
      <trkpt lat="44.42119" lon="6.10349">
        <ele>1232.0668945</ele>
        <time>2014-07-15T08:16:52Z</time>
      </trkpt>
      <trkpt lat="44.42118" lon="6.10341">
        <ele>1233.5087891</ele>
        <time>2014-07-15T08:18:37Z</time>
      </trkpt>
      <trkpt lat="44.42116" lon="6.1034">
        <ele>1233.989502</ele>
        <time>2014-07-15T08:18:40Z</time>
      </trkpt>
      <trkpt lat="44.42082" lon="6.10335">
        <ele>1234.4702148</ele>
        <time>2014-07-15T08:18:53Z</time>
      </trkpt>
      <trkpt lat="44.42039" lon="6.10316">
        <ele>1235.4313965</ele>
        <time>2014-07-15T08:19:09Z</time>
      </trkpt>
      <trkpt lat="44.4201" lon="6.10306">
        <ele>1235.9121094</ele>
        <time>2014-07-15T08:19:21Z</time>
      </trkpt>
      <trkpt lat="44.41975" lon="6.1029">
        <ele>1237.3540039</ele>
        <time>2014-07-15T08:19:35Z</time>
      </trkpt>
      <trkpt lat="44.41958" lon="6.10265">
        <ele>1237.3540039</ele>
        <time>2014-07-15T08:19:45Z</time>
      </trkpt>
      <trkpt lat="44.41947" lon="6.10244">
        <ele>1238.7961426</ele>
        <time>2014-07-15T08:19:54Z</time>
      </trkpt>
      <trkpt lat="44.41944" lon="6.1024">
        <ele>1238.7961426</ele>
        <time>2014-07-15T08:20:06Z</time>
      </trkpt>
      <trkpt lat="44.41943" lon="6.10239">
        <ele>1238.7961426</ele>
        <time>2014-07-15T08:20:15Z</time>
      </trkpt>
      <trkpt lat="44.41932" lon="6.1021">
        <ele>1239.2766113</ele>
        <time>2014-07-15T08:20:26Z</time>
      </trkpt>
      <trkpt lat="44.41904" lon="6.10151">
        <ele>1241.1992188</ele>
        <time>2014-07-15T08:20:43Z</time>
      </trkpt>
      <trkpt lat="44.41887" lon="6.10096">
        <ele>1242.1606445</ele>
        <time>2014-07-15T08:21:00Z</time>
      </trkpt>
      <trkpt lat="44.41887" lon="6.10093">
        <ele>1242.1606445</ele>
        <time>2014-07-15T08:21:01Z</time>
      </trkpt>
      <trkpt lat="44.41907" lon="6.10086">
        <ele>1241.6799316</ele>
        <time>2014-07-15T08:21:09Z</time>
      </trkpt>
      <trkpt lat="44.41956" lon="6.10111">
        <ele>1240.7185059</ele>
        <time>2014-07-15T08:21:25Z</time>
      </trkpt>
      <trkpt lat="44.41995" lon="6.10118">
        <ele>1239.7573242</ele>
        <time>2014-07-15T08:21:37Z</time>
      </trkpt>
      <trkpt lat="44.42031" lon="6.101">
        <ele>1238.3154297</ele>
        <time>2014-07-15T08:21:48Z</time>
      </trkpt>
      <trkpt lat="44.42064" lon="6.10079">
        <ele>1237.3540039</ele>
        <time>2014-07-15T08:21:56Z</time>
      </trkpt>
      <trkpt lat="44.42076" lon="6.10069">
        <ele>1237.3540039</ele>
        <time>2014-07-15T08:21:59Z</time>
      </trkpt>
      <trkpt lat="44.42086" lon="6.10056">
        <ele>1236.3928223</ele>
        <time>2014-07-15T08:22:02Z</time>
      </trkpt>
      <trkpt lat="44.42091" lon="6.10046">
        <ele>1235.9121094</ele>
        <time>2014-07-15T08:22:04Z</time>
      </trkpt>
      <trkpt lat="44.42093" lon="6.10011">
        <ele>1234.4702148</ele>
        <time>2014-07-15T08:22:10Z</time>
      </trkpt>
      <trkpt lat="44.42094" lon="6.09993">
        <ele>1234.4702148</ele>
        <time>2014-07-15T08:22:13Z</time>
      </trkpt>
      <trkpt lat="44.42096" lon="6.09943">
        <ele>1232.5476074</ele>
        <time>2014-07-15T08:22:25Z</time>
      </trkpt>
      <trkpt lat="44.42118" lon="6.09918">
        <ele>1231.1057129</ele>
        <time>2014-07-15T08:22:36Z</time>
      </trkpt>
      <trkpt lat="44.42154" lon="6.09907">
        <ele>1230.1442871</ele>
        <time>2014-07-15T08:22:47Z</time>
      </trkpt>
      <trkpt lat="44.42173" lon="6.09886">
        <ele>1228.7023926</ele>
        <time>2014-07-15T08:22:56Z</time>
      </trkpt>
      <trkpt lat="44.422" lon="6.09858">
        <ele>1228.2216797</ele>
        <time>2014-07-15T08:23:06Z</time>
      </trkpt>
      <trkpt lat="44.42229" lon="6.0986">
        <ele>1227.2602539</ele>
        <time>2014-07-15T08:23:14Z</time>
      </trkpt>
      <trkpt lat="44.42242" lon="6.09862">
        <ele>1227.2602539</ele>
        <time>2014-07-15T08:23:17Z</time>
      </trkpt>
      <trkpt lat="44.42251" lon="6.09862">
        <ele>1226.779541</ele>
        <time>2014-07-15T08:23:19Z</time>
      </trkpt>
      <trkpt lat="44.42258" lon="6.09841">
        <ele>1225.8181152</ele>
        <time>2014-07-15T08:23:24Z</time>
      </trkpt>
      <trkpt lat="44.42259" lon="6.09785">
        <ele>1224.3762207</ele>
        <time>2014-07-15T08:23:37Z</time>
      </trkpt>
      <trkpt lat="44.42296" lon="6.09754">
        <ele>1222.4536133</ele>
        <time>2014-07-15T08:23:49Z</time>
      </trkpt>
      <trkpt lat="44.42308" lon="6.09753">
        <ele>1221.9729004</ele>
        <time>2014-07-15T08:23:52Z</time>
      </trkpt>
      <trkpt lat="44.42305" lon="6.09732">
        <ele>1220.5310059</ele>
        <time>2014-07-15T08:24:00Z</time>
      </trkpt>
      <trkpt lat="44.42278" lon="6.09702">
        <ele>1219.5698242</ele>
        <time>2014-07-15T08:24:11Z</time>
      </trkpt>
      <trkpt lat="44.42278" lon="6.09696">
        <ele>1219.0891113</ele>
        <time>2014-07-15T08:24:13Z</time>
      </trkpt>
      <trkpt lat="44.42288" lon="6.09688">
        <ele>1218.1276855</ele>
        <time>2014-07-15T08:24:18Z</time>
      </trkpt>
      <trkpt lat="44.42314" lon="6.09691">
        <ele>1217.6469727</ele>
        <time>2014-07-15T08:24:27Z</time>
      </trkpt>
      <trkpt lat="44.42319" lon="6.09671">
        <ele>1217.6469727</ele>
        <time>2014-07-15T08:24:32Z</time>
      </trkpt>
      <trkpt lat="44.4233" lon="6.0962">
        <ele>1219.0891113</ele>
        <time>2014-07-15T08:24:46Z</time>
      </trkpt>
      <trkpt lat="44.42331" lon="6.09584">
        <ele>1219.5698242</ele>
        <time>2014-07-15T08:24:58Z</time>
      </trkpt>
      <trkpt lat="44.42332" lon="6.09581">
        <ele>1220.050293</ele>
        <time>2014-07-15T08:25:09Z</time>
      </trkpt>
      <trkpt lat="44.42332" lon="6.0958">
        <ele>1220.050293</ele>
        <time>2014-07-15T08:25:29Z</time>
      </trkpt>
      <trkpt lat="44.42336" lon="6.09581">
        <ele>1221.4921875</ele>
        <time>2014-07-15T08:27:51Z</time>
      </trkpt>
      <trkpt lat="44.42333" lon="6.09577">
        <ele>1221.9729004</ele>
        <time>2014-07-15T08:28:18Z</time>
      </trkpt>
      <trkpt lat="44.42328" lon="6.09565">
        <ele>1222.4536133</ele>
        <time>2014-07-15T08:28:24Z</time>
      </trkpt>
      <trkpt lat="44.42314" lon="6.09546">
        <ele>1223.4150391</ele>
        <time>2014-07-15T08:28:33Z</time>
      </trkpt>
      <trkpt lat="44.42311" lon="6.09536">
        <ele>1224.3762207</ele>
        <time>2014-07-15T08:28:38Z</time>
      </trkpt>
      <trkpt lat="44.42308" lon="6.09529">
        <ele>1224.8569336</ele>
        <time>2014-07-15T08:28:42Z</time>
      </trkpt>
      <trkpt lat="44.42305" lon="6.09517">
        <ele>1225.8181152</ele>
        <time>2014-07-15T08:28:48Z</time>
      </trkpt>
      <trkpt lat="44.42287" lon="6.09489">
        <ele>1226.779541</ele>
        <time>2014-07-15T08:29:04Z</time>
      </trkpt>
      <trkpt lat="44.4228" lon="6.09486">
        <ele>1227.7407227</ele>
        <time>2014-07-15T08:29:08Z</time>
      </trkpt>
      <trkpt lat="44.4226" lon="6.09485">
        <ele>1229.1828613</ele>
        <time>2014-07-15T08:29:21Z</time>
      </trkpt>
      <trkpt lat="44.42244" lon="6.09472">
        <ele>1230.625</ele>
        <time>2014-07-15T08:29:34Z</time>
      </trkpt>
      <trkpt lat="44.42236" lon="6.09442">
        <ele>1232.0668945</ele>
        <time>2014-07-15T08:29:51Z</time>
      </trkpt>
      <trkpt lat="44.42243" lon="6.0941">
        <ele>1233.5087891</ele>
        <time>2014-07-15T08:30:07Z</time>
      </trkpt>
      <trkpt lat="44.42244" lon="6.09406">
        <ele>1233.989502</ele>
        <time>2014-07-15T08:30:09Z</time>
      </trkpt>
      <trkpt lat="44.42239" lon="6.0939">
        <ele>1234.4702148</ele>
        <time>2014-07-15T08:30:17Z</time>
      </trkpt>
      <trkpt lat="44.4224" lon="6.09378">
        <ele>1235.9121094</ele>
        <time>2014-07-15T08:30:22Z</time>
      </trkpt>
      <trkpt lat="44.42239" lon="6.09371">
        <ele>1235.4313965</ele>
        <time>2014-07-15T08:30:26Z</time>
      </trkpt>
      <trkpt lat="44.42235" lon="6.09334">
        <ele>1237.3540039</ele>
        <time>2014-07-15T08:30:43Z</time>
      </trkpt>
      <trkpt lat="44.42227" lon="6.09314">
        <ele>1239.2766113</ele>
        <time>2014-07-15T08:30:54Z</time>
      </trkpt>
      <trkpt lat="44.42226" lon="6.0931">
        <ele>1239.2766113</ele>
        <time>2014-07-15T08:30:57Z</time>
      </trkpt>
      <trkpt lat="44.42222" lon="6.09286">
        <ele>1240.7185059</ele>
        <time>2014-07-15T08:31:09Z</time>
      </trkpt>
      <trkpt lat="44.42203" lon="6.09278">
        <ele>1241.6799316</ele>
        <time>2014-07-15T08:31:21Z</time>
      </trkpt>
      <trkpt lat="44.42184" lon="6.09284">
        <ele>1242.6413574</ele>
        <time>2014-07-15T08:31:33Z</time>
      </trkpt>
      <trkpt lat="44.42174" lon="6.0929">
        <ele>1243.1218262</ele>
        <time>2014-07-15T08:31:39Z</time>
      </trkpt>
      <trkpt lat="44.42151" lon="6.0931">
        <ele>1245.5253906</ele>
        <time>2014-07-15T08:31:57Z</time>
      </trkpt>
      <trkpt lat="44.42122" lon="6.09318">
        <ele>1246.9672852</ele>
        <time>2014-07-15T08:32:17Z</time>
      </trkpt>
      <trkpt lat="44.42102" lon="6.09317">
        <ele>1248.4091797</ele>
        <time>2014-07-15T08:32:32Z</time>
      </trkpt>
      <trkpt lat="44.42085" lon="6.09319">
        <ele>1249.8513184</ele>
        <time>2014-07-15T08:32:44Z</time>
      </trkpt>
      <trkpt lat="44.42074" lon="6.09314">
        <ele>1250.8125</ele>
        <time>2014-07-15T08:32:52Z</time>
      </trkpt>
      <trkpt lat="44.42069" lon="6.09309">
        <ele>1251.7739258</ele>
        <time>2014-07-15T08:32:56Z</time>
      </trkpt>
      <trkpt lat="44.42065" lon="6.09306">
        <ele>1251.7739258</ele>
        <time>2014-07-15T08:33:00Z</time>
      </trkpt>
      <trkpt lat="44.4206" lon="6.09307">
        <ele>1252.2543945</ele>
        <time>2014-07-15T08:33:04Z</time>
      </trkpt>
      <trkpt lat="44.42038" lon="6.09314">
        <ele>1253.6965332</ele>
        <time>2014-07-15T08:33:19Z</time>
      </trkpt>
      <trkpt lat="44.4203" lon="6.09316">
        <ele>1253.2158203</ele>
        <time>2014-07-15T08:33:23Z</time>
      </trkpt>
      <trkpt lat="44.42009" lon="6.09304">
        <ele>1255.1384277</ele>
        <time>2014-07-15T08:33:40Z</time>
      </trkpt>
      <trkpt lat="44.4199" lon="6.09292">
        <ele>1257.0610352</ele>
        <time>2014-07-15T08:33:55Z</time>
      </trkpt>
      <trkpt lat="44.41977" lon="6.09282">
        <ele>1258.5029297</ele>
        <time>2014-07-15T08:34:06Z</time>
      </trkpt>
      <trkpt lat="44.41956" lon="6.09276">
        <ele>1259.9448242</ele>
        <time>2014-07-15T08:34:20Z</time>
      </trkpt>
      <trkpt lat="44.41939" lon="6.09268">
        <ele>1260.9064941</ele>
        <time>2014-07-15T08:34:33Z</time>
      </trkpt>
      <trkpt lat="44.41919" lon="6.09268">
        <ele>1262.8291016</ele>
        <time>2014-07-15T08:34:46Z</time>
      </trkpt>
      <trkpt lat="44.41913" lon="6.09267">
        <ele>1263.3098145</ele>
        <time>2014-07-15T08:34:50Z</time>
      </trkpt>
      <trkpt lat="44.41898" lon="6.09281">
        <ele>1264.751709</ele>
        <time>2014-07-15T08:35:03Z</time>
      </trkpt>
      <trkpt lat="44.41895" lon="6.09284">
        <ele>1265.2324219</ele>
        <time>2014-07-15T08:35:06Z</time>
      </trkpt>
      <trkpt lat="44.41891" lon="6.09289">
        <ele>1265.2324219</ele>
        <time>2014-07-15T08:35:10Z</time>
      </trkpt>
      <trkpt lat="44.41872" lon="6.09313">
        <ele>1267.635498</ele>
        <time>2014-07-15T08:35:27Z</time>
      </trkpt>
      <trkpt lat="44.4187" lon="6.09316">
        <ele>1267.635498</ele>
        <time>2014-07-15T08:35:29Z</time>
      </trkpt>
      <trkpt lat="44.41857" lon="6.09336">
        <ele>1268.5969238</ele>
        <time>2014-07-15T08:35:41Z</time>
      </trkpt>
      <trkpt lat="44.41844" lon="6.0935">
        <ele>1270.0388184</ele>
        <time>2014-07-15T08:35:51Z</time>
      </trkpt>
      <trkpt lat="44.41839" lon="6.0935">
        <ele>1270.5195313</ele>
        <time>2014-07-15T08:35:54Z</time>
      </trkpt>
      <trkpt lat="44.41835" lon="6.09351">
        <ele>1270.5195313</ele>
        <time>2014-07-15T08:35:57Z</time>
      </trkpt>
      <trkpt lat="44.41828" lon="6.09347">
        <ele>1271.0002441</ele>
        <time>2014-07-15T08:36:02Z</time>
      </trkpt>
      <trkpt lat="44.4182" lon="6.09333">
        <ele>1271.0002441</ele>
        <time>2014-07-15T08:36:11Z</time>
      </trkpt>
      <trkpt lat="44.41816" lon="6.09307">
        <ele>1272.4421387</ele>
        <time>2014-07-15T08:36:25Z</time>
      </trkpt>
      <trkpt lat="44.41819" lon="6.09297">
        <ele>1273.4035645</ele>
        <time>2014-07-15T08:36:30Z</time>
      </trkpt>
      <trkpt lat="44.41823" lon="6.09281">
        <ele>1274.845459</ele>
        <time>2014-07-15T08:36:40Z</time>
      </trkpt>
      <trkpt lat="44.41824" lon="6.09279">
        <ele>1274.845459</ele>
        <time>2014-07-15T08:36:42Z</time>
      </trkpt>
      <trkpt lat="44.41819" lon="6.09255">
        <ele>1276.2875977</ele>
        <time>2014-07-15T08:36:53Z</time>
      </trkpt>
      <trkpt lat="44.41817" lon="6.09253">
        <ele>1276.2875977</ele>
        <time>2014-07-15T08:36:55Z</time>
      </trkpt>
      <trkpt lat="44.41815" lon="6.09252">
        <ele>1276.2875977</ele>
        <time>2014-07-15T08:36:57Z</time>
      </trkpt>
      <trkpt lat="44.41807" lon="6.09257">
        <ele>1277.2490234</ele>
        <time>2014-07-15T08:37:01Z</time>
      </trkpt>
      <trkpt lat="44.41794" lon="6.09259">
        <ele>1278.690918</ele>
        <time>2014-07-15T08:37:11Z</time>
      </trkpt>
      <trkpt lat="44.41786" lon="6.09254">
        <ele>1278.690918</ele>
        <time>2014-07-15T08:37:17Z</time>
      </trkpt>
      <trkpt lat="44.41773" lon="6.09238">
        <ele>1280.1328125</ele>
        <time>2014-07-15T08:37:31Z</time>
      </trkpt>
      <trkpt lat="44.41761" lon="6.0922">
        <ele>1281.0942383</ele>
        <time>2014-07-15T08:37:42Z</time>
      </trkpt>
      <trkpt lat="44.41744" lon="6.09204">
        <ele>1283.0166016</ele>
        <time>2014-07-15T08:37:56Z</time>
      </trkpt>
      <trkpt lat="44.41725" lon="6.09197">
        <ele>1284.4587402</ele>
        <time>2014-07-15T08:38:10Z</time>
      </trkpt>
      <trkpt lat="44.41709" lon="6.0919">
        <ele>1285.9006348</ele>
        <time>2014-07-15T08:38:23Z</time>
      </trkpt>
      <trkpt lat="44.417" lon="6.09191">
        <ele>1286.3813477</ele>
        <time>2014-07-15T08:38:29Z</time>
      </trkpt>
      <trkpt lat="44.41676" lon="6.09197">
        <ele>1288.784668</ele>
        <time>2014-07-15T08:38:45Z</time>
      </trkpt>
      <trkpt lat="44.41671" lon="6.09193">
        <ele>1288.3039551</ele>
        <time>2014-07-15T08:38:49Z</time>
      </trkpt>
      <trkpt lat="44.41668" lon="6.09177">
        <ele>1289.7458496</ele>
        <time>2014-07-15T08:38:58Z</time>
      </trkpt>
      <trkpt lat="44.41658" lon="6.09147">
        <ele>1291.1877441</ele>
        <time>2014-07-15T08:39:14Z</time>
      </trkpt>
      <trkpt lat="44.41645" lon="6.09118">
        <ele>1292.630127</ele>
        <time>2014-07-15T08:39:30Z</time>
      </trkpt>
      <trkpt lat="44.41626" lon="6.09105">
        <ele>1294.0720215</ele>
        <time>2014-07-15T08:39:44Z</time>
      </trkpt>
      <trkpt lat="44.41608" lon="6.0911">
        <ele>1295.9946289</ele>
        <time>2014-07-15T08:39:59Z</time>
      </trkpt>
      <trkpt lat="44.41585" lon="6.09123">
        <ele>1297.9172363</ele>
        <time>2014-07-15T08:40:17Z</time>
      </trkpt>
      <trkpt lat="44.41576" lon="6.09126">
        <ele>1299.3591309</ele>
        <time>2014-07-15T08:40:24Z</time>
      </trkpt>
      <trkpt lat="44.41571" lon="6.0913">
        <ele>1299.8398438</ele>
        <time>2014-07-15T08:40:28Z</time>
      </trkpt>
      <trkpt lat="44.41568" lon="6.0913">
        <ele>1299.8398438</ele>
        <time>2014-07-15T08:40:32Z</time>
      </trkpt>
      <trkpt lat="44.4156" lon="6.09125">
        <ele>1300.3205566</ele>
        <time>2014-07-15T08:40:51Z</time>
      </trkpt>
      <trkpt lat="44.41554" lon="6.09117">
        <ele>1300.8010254</ele>
        <time>2014-07-15T08:42:44Z</time>
      </trkpt>
      <trkpt lat="44.4155" lon="6.09108">
        <ele>1301.2817383</ele>
        <time>2014-07-15T08:42:49Z</time>
      </trkpt>
      <trkpt lat="44.41552" lon="6.09096">
        <ele>1301.7624512</ele>
        <time>2014-07-15T08:42:55Z</time>
      </trkpt>
      <trkpt lat="44.41542" lon="6.09062">
        <ele>1303.6850586</ele>
        <time>2014-07-15T08:43:12Z</time>
      </trkpt>
      <trkpt lat="44.41529" lon="6.09045">
        <ele>1305.1269531</ele>
        <time>2014-07-15T08:43:24Z</time>
      </trkpt>
      <trkpt lat="44.4151" lon="6.09034">
        <ele>1307.0495605</ele>
        <time>2014-07-15T08:43:38Z</time>
      </trkpt>
      <trkpt lat="44.41505" lon="6.09033">
        <ele>1307.5302734</ele>
        <time>2014-07-15T08:43:41Z</time>
      </trkpt>
      <trkpt lat="44.41488" lon="6.09036">
        <ele>1308.4916992</ele>
        <time>2014-07-15T08:43:54Z</time>
      </trkpt>
      <trkpt lat="44.41477" lon="6.09022">
        <ele>1310.8950195</ele>
        <time>2014-07-15T08:44:08Z</time>
      </trkpt>
      <trkpt lat="44.41478" lon="6.09009">
        <ele>1311.8564453</ele>
        <time>2014-07-15T08:44:15Z</time>
      </trkpt>
      <trkpt lat="44.41488" lon="6.08994">
        <ele>1312.817627</ele>
        <time>2014-07-15T08:44:31Z</time>
      </trkpt>
      <trkpt lat="44.41488" lon="6.08995">
        <ele>1313.2983398</ele>
        <time>2014-07-15T08:44:47Z</time>
      </trkpt>
      <trkpt lat="44.41481" lon="6.08997">
        <ele>1312.817627</ele>
        <time>2014-07-15T08:45:41Z</time>
      </trkpt>
      <trkpt lat="44.41475" lon="6.08993">
        <ele>1312.817627</ele>
        <time>2014-07-15T08:45:58Z</time>
      </trkpt>
      <trkpt lat="44.41477" lon="6.08987">
        <ele>1312.817627</ele>
        <time>2014-07-15T08:46:21Z</time>
      </trkpt>
      <trkpt lat="44.41468" lon="6.0896">
        <ele>1314.7402344</ele>
        <time>2014-07-15T08:46:35Z</time>
      </trkpt>
      <trkpt lat="44.41461" lon="6.08943">
        <ele>1315.7016602</ele>
        <time>2014-07-15T08:46:45Z</time>
      </trkpt>
      <trkpt lat="44.41441" lon="6.08942">
        <ele>1316.6628418</ele>
        <time>2014-07-15T08:46:58Z</time>
      </trkpt>
      <trkpt lat="44.41433" lon="6.08948">
        <ele>1316.6628418</ele>
        <time>2014-07-15T08:47:03Z</time>
      </trkpt>
      <trkpt lat="44.41416" lon="6.08937">
        <ele>1318.5854492</ele>
        <time>2014-07-15T08:47:17Z</time>
      </trkpt>
      <trkpt lat="44.41414" lon="6.08935">
        <ele>1318.5854492</ele>
        <time>2014-07-15T08:47:18Z</time>
      </trkpt>
      <trkpt lat="44.41407" lon="6.08922">
        <ele>1319.546875</ele>
        <time>2014-07-15T08:47:27Z</time>
      </trkpt>
      <trkpt lat="44.41401" lon="6.08919">
        <ele>1320.0273438</ele>
        <time>2014-07-15T08:47:30Z</time>
      </trkpt>
      <trkpt lat="44.41387" lon="6.08921">
        <ele>1321.4692383</ele>
        <time>2014-07-15T08:47:39Z</time>
      </trkpt>
      <trkpt lat="44.41376" lon="6.08923">
        <ele>1322.4306641</ele>
        <time>2014-07-15T08:47:47Z</time>
      </trkpt>
      <trkpt lat="44.41365" lon="6.08923">
        <ele>1323.3920898</ele>
        <time>2014-07-15T08:47:53Z</time>
      </trkpt>
      <trkpt lat="44.41355" lon="6.08911">
        <ele>1323.8725586</ele>
        <time>2014-07-15T08:48:00Z</time>
      </trkpt>
      <trkpt lat="44.41341" lon="6.08891">
        <ele>1325.3146973</ele>
        <time>2014-07-15T08:48:16Z</time>
      </trkpt>
      <trkpt lat="44.41339" lon="6.08889">
        <ele>1325.7954102</ele>
        <time>2014-07-15T08:48:17Z</time>
      </trkpt>
      <trkpt lat="44.41332" lon="6.0888">
        <ele>1326.7568359</ele>
        <time>2014-07-15T08:48:24Z</time>
      </trkpt>
      <trkpt lat="44.41322" lon="6.08863">
        <ele>1328.1987305</ele>
        <time>2014-07-15T08:48:39Z</time>
      </trkpt>
      <trkpt lat="44.41306" lon="6.08847">
        <ele>1329.640625</ele>
        <time>2014-07-15T08:48:51Z</time>
      </trkpt>
      <trkpt lat="44.41304" lon="6.08845">
        <ele>1330.1213379</ele>
        <time>2014-07-15T08:48:54Z</time>
      </trkpt>
      <trkpt lat="44.41298" lon="6.0884">
        <ele>1330.6020508</ele>
        <time>2014-07-15T08:48:58Z</time>
      </trkpt>
      <trkpt lat="44.41284" lon="6.08825">
        <ele>1332.0439453</ele>
        <time>2014-07-15T08:49:11Z</time>
      </trkpt>
      <trkpt lat="44.41281" lon="6.08819">
        <ele>1333.005127</ele>
        <time>2014-07-15T08:49:15Z</time>
      </trkpt>
      <trkpt lat="44.41257" lon="6.08809">
        <ele>1335.4084473</ele>
        <time>2014-07-15T08:49:32Z</time>
      </trkpt>
      <trkpt lat="44.41254" lon="6.08807">
        <ele>1335.4084473</ele>
        <time>2014-07-15T08:49:35Z</time>
      </trkpt>
      <trkpt lat="44.41233" lon="6.08794">
        <ele>1337.3310547</ele>
        <time>2014-07-15T08:49:51Z</time>
      </trkpt>
      <trkpt lat="44.41219" lon="6.08781">
        <ele>1338.7731934</ele>
        <time>2014-07-15T08:50:03Z</time>
      </trkpt>
      <trkpt lat="44.41219" lon="6.08775">
        <ele>1339.734375</ele>
        <time>2014-07-15T08:50:07Z</time>
      </trkpt>
      <trkpt lat="44.41218" lon="6.08769">
        <ele>1339.734375</ele>
        <time>2014-07-15T08:50:11Z</time>
      </trkpt>
      <trkpt lat="44.41216" lon="6.08765">
        <ele>1339.734375</ele>
        <time>2014-07-15T08:50:13Z</time>
      </trkpt>
      <trkpt lat="44.41213" lon="6.08749">
        <ele>1341.6572266</ele>
        <time>2014-07-15T08:50:24Z</time>
      </trkpt>
      <trkpt lat="44.41213" lon="6.08735">
        <ele>1342.6186523</ele>
        <time>2014-07-15T08:50:34Z</time>
      </trkpt>
      <trkpt lat="44.4121" lon="6.08726">
        <ele>1343.579834</ele>
        <time>2014-07-15T08:50:40Z</time>
      </trkpt>
      <trkpt lat="44.41208" lon="6.08708">
        <ele>1345.0217285</ele>
        <time>2014-07-15T08:50:50Z</time>
      </trkpt>
      <trkpt lat="44.412" lon="6.0868">
        <ele>1346.9443359</ele>
        <time>2014-07-15T08:51:05Z</time>
      </trkpt>
      <trkpt lat="44.41189" lon="6.08651">
        <ele>1348.3862305</ele>
        <time>2014-07-15T08:51:18Z</time>
      </trkpt>
      <trkpt lat="44.41188" lon="6.08636">
        <ele>1348.3862305</ele>
        <time>2014-07-15T08:51:25Z</time>
      </trkpt>
      <trkpt lat="44.41192" lon="6.08629">
        <ele>1348.8669434</ele>
        <time>2014-07-15T08:51:29Z</time>
      </trkpt>
      <trkpt lat="44.41199" lon="6.08614">
        <ele>1348.8669434</ele>
        <time>2014-07-15T08:51:36Z</time>
      </trkpt>
      <trkpt lat="44.4121" lon="6.08591">
        <ele>1352.2314453</ele>
        <time>2014-07-15T08:51:51Z</time>
      </trkpt>
      <trkpt lat="44.41211" lon="6.0859">
        <ele>1352.2314453</ele>
        <time>2014-07-15T08:51:53Z</time>
      </trkpt>
      <trkpt lat="44.41218" lon="6.08587">
        <ele>1352.2314453</ele>
        <time>2014-07-15T08:52:10Z</time>
      </trkpt>
      <trkpt lat="44.41218" lon="6.08587">
        <ele>1351.7509766</ele>
        <time>2014-07-15T08:53:19Z</time>
      </trkpt>
      <trkpt lat="44.41218" lon="6.08588">
        <ele>1351.2702637</ele>
        <time>2014-07-15T08:54:29Z</time>
      </trkpt>
      <trkpt lat="44.41217" lon="6.08585">
        <ele>1352.2314453</ele>
        <time>2014-07-15T08:54:41Z</time>
      </trkpt>
      <trkpt lat="44.41217" lon="6.08584">
        <ele>1351.7509766</ele>
        <time>2014-07-15T08:55:02Z</time>
      </trkpt>
      <trkpt lat="44.41217" lon="6.08581">
        <ele>1351.2702637</ele>
        <time>2014-07-15T08:55:04Z</time>
      </trkpt>
      <trkpt lat="44.41221" lon="6.08568">
        <ele>1351.2702637</ele>
        <time>2014-07-15T08:55:08Z</time>
      </trkpt>
      <trkpt lat="44.41207" lon="6.08529">
        <ele>1350.7895508</ele>
        <time>2014-07-15T08:55:18Z</time>
      </trkpt>
      <trkpt lat="44.41162" lon="6.08513">
        <ele>1349.8283691</ele>
        <time>2014-07-15T08:55:29Z</time>
      </trkpt>
      <trkpt lat="44.41123" lon="6.08497">
        <ele>1348.8669434</ele>
        <time>2014-07-15T08:55:42Z</time>
      </trkpt>
      <trkpt lat="44.41104" lon="6.08468">
        <ele>1348.3862305</ele>
        <time>2014-07-15T08:55:53Z</time>
      </trkpt>
      <trkpt lat="44.41091" lon="6.08444">
        <ele>1348.3862305</ele>
        <time>2014-07-15T08:56:02Z</time>
      </trkpt>
      <trkpt lat="44.41051" lon="6.08421">
        <ele>1349.3476563</ele>
        <time>2014-07-15T08:56:17Z</time>
      </trkpt>
      <trkpt lat="44.41028" lon="6.08415">
        <ele>1348.8669434</ele>
        <time>2014-07-15T08:56:26Z</time>
      </trkpt>
      <trkpt lat="44.41005" lon="6.08417">
        <ele>1349.3476563</ele>
        <time>2014-07-15T08:56:34Z</time>
      </trkpt>
      <trkpt lat="44.40973" lon="6.08432">
        <ele>1350.309082</ele>
        <time>2014-07-15T08:56:47Z</time>
      </trkpt>
      <trkpt lat="44.40926" lon="6.08458">
        <ele>1350.309082</ele>
        <time>2014-07-15T08:57:04Z</time>
      </trkpt>
      <trkpt lat="44.40888" lon="6.08467">
        <ele>1350.309082</ele>
        <time>2014-07-15T08:57:16Z</time>
      </trkpt>
      <trkpt lat="44.40842" lon="6.08475">
        <ele>1349.8283691</ele>
        <time>2014-07-15T08:57:31Z</time>
      </trkpt>
      <trkpt lat="44.40816" lon="6.08428">
        <ele>1350.309082</ele>
        <time>2014-07-15T08:57:44Z</time>
      </trkpt>
      <trkpt lat="44.40791" lon="6.08388">
        <ele>1349.8283691</ele>
        <time>2014-07-15T08:57:56Z</time>
      </trkpt>
      <trkpt lat="44.40775" lon="6.08372">
        <ele>1349.3476563</ele>
        <time>2014-07-15T08:58:02Z</time>
      </trkpt>
      <trkpt lat="44.40767" lon="6.08326">
        <ele>1349.8283691</ele>
        <time>2014-07-15T08:58:15Z</time>
      </trkpt>
      <trkpt lat="44.40773" lon="6.0831">
        <ele>1349.3476563</ele>
        <time>2014-07-15T08:58:19Z</time>
      </trkpt>
      <trkpt lat="44.40775" lon="6.08306">
        <ele>1348.3862305</ele>
        <time>2014-07-15T08:58:21Z</time>
      </trkpt>
      <trkpt lat="44.40775" lon="6.083">
        <ele>1346.9443359</ele>
        <time>2014-07-15T08:58:35Z</time>
      </trkpt>
      <trkpt lat="44.40777" lon="6.08297">
        <ele>1346.9443359</ele>
        <time>2014-07-15T08:59:03Z</time>
      </trkpt>
      <trkpt lat="44.40782" lon="6.08292">
        <ele>1346.4638672</ele>
        <time>2014-07-15T08:59:27Z</time>
      </trkpt>
      <trkpt lat="44.40784" lon="6.08291">
        <ele>1346.9443359</ele>
        <time>2014-07-15T08:59:46Z</time>
      </trkpt>
      <trkpt lat="44.40798" lon="6.08264">
        <ele>1345.0217285</ele>
        <time>2014-07-15T08:59:56Z</time>
      </trkpt>
      <trkpt lat="44.40818" lon="6.08249">
        <ele>1342.1379395</ele>
        <time>2014-07-15T09:00:04Z</time>
      </trkpt>
      <trkpt lat="44.40822" lon="6.08249">
        <ele>1342.1379395</ele>
        <time>2014-07-15T09:00:05Z</time>
      </trkpt>
      <trkpt lat="44.40838" lon="6.08253">
        <ele>1340.6958008</ele>
        <time>2014-07-15T09:00:10Z</time>
      </trkpt>
      <trkpt lat="44.40849" lon="6.08253">
        <ele>1339.734375</ele>
        <time>2014-07-15T09:00:12Z</time>
      </trkpt>
      <trkpt lat="44.40875" lon="6.08256">
        <ele>1336.8503418</ele>
        <time>2014-07-15T09:00:19Z</time>
      </trkpt>
      <trkpt lat="44.40901" lon="6.08255">
        <ele>1334.4472656</ele>
        <time>2014-07-15T09:00:26Z</time>
      </trkpt>
      <trkpt lat="44.40912" lon="6.08257">
        <ele>1333.005127</ele>
        <time>2014-07-15T09:00:29Z</time>
      </trkpt>
      <trkpt lat="44.40931" lon="6.08259">
        <ele>1330.6020508</ele>
        <time>2014-07-15T09:00:34Z</time>
      </trkpt>
      <trkpt lat="44.40961" lon="6.08257">
        <ele>1328.6794434</ele>
        <time>2014-07-15T09:00:43Z</time>
      </trkpt>
      <trkpt lat="44.40997" lon="6.08257">
        <ele>1326.276123</ele>
        <time>2014-07-15T09:00:51Z</time>
      </trkpt>
      <trkpt lat="44.4103" lon="6.08262">
        <ele>1322.911377</ele>
        <time>2014-07-15T09:00:59Z</time>
      </trkpt>
      <trkpt lat="44.41041" lon="6.08265">
        <ele>1321.4692383</ele>
        <time>2014-07-15T09:01:02Z</time>
      </trkpt>
      <trkpt lat="44.4106" lon="6.08268">
        <ele>1320.0273438</ele>
        <time>2014-07-15T09:01:06Z</time>
      </trkpt>
      <trkpt lat="44.41075" lon="6.08275">
        <ele>1318.1047363</ele>
        <time>2014-07-15T09:01:10Z</time>
      </trkpt>
      <trkpt lat="44.41088" lon="6.08281">
        <ele>1317.6240234</ele>
        <time>2014-07-15T09:01:13Z</time>
      </trkpt>
      <trkpt lat="44.41105" lon="6.0829">
        <ele>1315.7016602</ele>
        <time>2014-07-15T09:01:17Z</time>
      </trkpt>
      <trkpt lat="44.41127" lon="6.08301">
        <ele>1313.7788086</ele>
        <time>2014-07-15T09:01:22Z</time>
      </trkpt>
      <trkpt lat="44.4115" lon="6.08291">
        <ele>1310.8950195</ele>
        <time>2014-07-15T09:01:29Z</time>
      </trkpt>
      <trkpt lat="44.41163" lon="6.08262">
        <ele>1309.453125</ele>
        <time>2014-07-15T09:01:36Z</time>
      </trkpt>
      <trkpt lat="44.41176" lon="6.08246">
        <ele>1308.0112305</ele>
        <time>2014-07-15T09:01:40Z</time>
      </trkpt>
      <trkpt lat="44.41196" lon="6.08228">
        <ele>1304.6462402</ele>
        <time>2014-07-15T09:01:46Z</time>
      </trkpt>
      <trkpt lat="44.41206" lon="6.0822">
        <ele>1304.1657715</ele>
        <time>2014-07-15T09:01:49Z</time>
      </trkpt>
      <trkpt lat="44.4124" lon="6.0821">
        <ele>1300.3205566</ele>
        <time>2014-07-15T09:02:00Z</time>
      </trkpt>
      <trkpt lat="44.41259" lon="6.08209">
        <ele>1299.3591309</ele>
        <time>2014-07-15T09:02:05Z</time>
      </trkpt>
      <trkpt lat="44.41292" lon="6.08211">
        <ele>1295.513916</ele>
        <time>2014-07-15T09:02:15Z</time>
      </trkpt>
      <trkpt lat="44.41301" lon="6.08213">
        <ele>1294.0720215</ele>
        <time>2014-07-15T09:02:18Z</time>
      </trkpt>
      <trkpt lat="44.41316" lon="6.08222">
        <ele>1293.1105957</ele>
        <time>2014-07-15T09:02:23Z</time>
      </trkpt>
      <trkpt lat="44.41348" lon="6.08243">
        <ele>1290.2265625</ele>
        <time>2014-07-15T09:02:34Z</time>
      </trkpt>
      <trkpt lat="44.41357" lon="6.08249">
        <ele>1289.7458496</ele>
        <time>2014-07-15T09:02:36Z</time>
      </trkpt>
      <trkpt lat="44.41388" lon="6.08305">
        <ele>1286.3813477</ele>
        <time>2014-07-15T09:02:48Z</time>
      </trkpt>
      <trkpt lat="44.41409" lon="6.08304">
        <ele>1283.9780273</ele>
        <time>2014-07-15T09:02:54Z</time>
      </trkpt>
      <trkpt lat="44.41437" lon="6.08297">
        <ele>1280.1328125</ele>
        <time>2014-07-15T09:03:02Z</time>
      </trkpt>
      <trkpt lat="44.4144" lon="6.08299">
        <ele>1280.1328125</ele>
        <time>2014-07-15T09:03:03Z</time>
      </trkpt>
      <trkpt lat="44.41468" lon="6.08315">
        <ele>1277.2490234</ele>
        <time>2014-07-15T09:03:11Z</time>
      </trkpt>
      <trkpt lat="44.415" lon="6.08327">
        <ele>1273.8840332</ele>
        <time>2014-07-15T09:03:21Z</time>
      </trkpt>
      <trkpt lat="44.41502" lon="6.08327">
        <ele>1273.8840332</ele>
        <time>2014-07-15T09:03:22Z</time>
      </trkpt>
      <trkpt lat="44.41504" lon="6.08318">
        <ele>1274.3647461</ele>
        <time>2014-07-15T09:03:26Z</time>
      </trkpt>
      <trkpt lat="44.41501" lon="6.08271">
        <ele>1271.4807129</ele>
        <time>2014-07-15T09:03:35Z</time>
      </trkpt>
      <trkpt lat="44.41527" lon="6.08249">
        <ele>1268.5969238</ele>
        <time>2014-07-15T09:03:45Z</time>
      </trkpt>
      <trkpt lat="44.41541" lon="6.08255">
        <ele>1266.6743164</ele>
        <time>2014-07-15T09:03:52Z</time>
      </trkpt>
      <trkpt lat="44.41541" lon="6.08254">
        <ele>1266.1936035</ele>
        <time>2014-07-15T09:04:22Z</time>
      </trkpt>
      <trkpt lat="44.41541" lon="6.08254">
        <ele>1265.7131348</ele>
        <time>2014-07-15T09:04:28Z</time>
      </trkpt>
      <trkpt lat="44.4154" lon="6.08254">
        <ele>1266.1936035</ele>
        <time>2014-07-15T09:04:52Z</time>
      </trkpt>
      <trkpt lat="44.4154" lon="6.08254">
        <ele>1267.1550293</ele>
        <time>2014-07-15T09:04:56Z</time>
      </trkpt>
      <trkpt lat="44.4154" lon="6.08254">
        <ele>1265.2324219</ele>
        <time>2014-07-15T09:05:02Z</time>
      </trkpt>
      <trkpt lat="44.4154" lon="6.08254">
        <ele>1266.6743164</ele>
        <time>2014-07-15T09:05:04Z</time>
      </trkpt>
      <trkpt lat="44.4154" lon="6.08254">
        <ele>1266.6743164</ele>
        <time>2014-07-15T09:05:48Z</time>
      </trkpt>
      <trkpt lat="44.41538" lon="6.08252">
        <ele>1266.6743164</ele>
        <time>2014-07-15T09:05:55Z</time>
      </trkpt>
      <trkpt lat="44.41538" lon="6.08252">
        <ele>1266.1936035</ele>
        <time>2014-07-15T09:05:59Z</time>
      </trkpt>
      <trkpt lat="44.41562" lon="6.08276">
        <ele>1268.1162109</ele>
        <time>2014-07-15T09:06:13Z</time>
      </trkpt>
      <trkpt lat="44.41582" lon="6.083">
        <ele>1268.5969238</ele>
        <time>2014-07-15T09:06:27Z</time>
      </trkpt>
      <trkpt lat="44.41603" lon="6.08319">
        <ele>1271.9614258</ele>
        <time>2014-07-15T09:06:41Z</time>
      </trkpt>
      <trkpt lat="44.41627" lon="6.08329">
        <ele>1273.4035645</ele>
        <time>2014-07-15T09:06:55Z</time>
      </trkpt>
      <trkpt lat="44.41644" lon="6.08342">
        <ele>1275.3259277</ele>
        <time>2014-07-15T09:07:07Z</time>
      </trkpt>
      <trkpt lat="44.4166" lon="6.08346">
        <ele>1276.7683105</ele>
        <time>2014-07-15T09:07:16Z</time>
      </trkpt>
      <trkpt lat="44.41683" lon="6.08357">
        <ele>1277.7294922</ele>
        <time>2014-07-15T09:07:30Z</time>
      </trkpt>
      <trkpt lat="44.41702" lon="6.08369">
        <ele>1279.1713867</ele>
        <time>2014-07-15T09:07:42Z</time>
      </trkpt>
      <trkpt lat="44.41705" lon="6.08373">
        <ele>1279.6520996</ele>
        <time>2014-07-15T09:07:44Z</time>
      </trkpt>
      <trkpt lat="44.4171" lon="6.08378">
        <ele>1280.1328125</ele>
        <time>2014-07-15T09:07:47Z</time>
      </trkpt>
      <trkpt lat="44.41712" lon="6.0838">
        <ele>1279.6520996</ele>
        <time>2014-07-15T09:07:49Z</time>
      </trkpt>
      <trkpt lat="44.41715" lon="6.08383">
        <ele>1280.6135254</ele>
        <time>2014-07-15T09:07:51Z</time>
      </trkpt>
      <trkpt lat="44.41724" lon="6.08389">
        <ele>1281.574707</ele>
        <time>2014-07-15T09:07:58Z</time>
      </trkpt>
      <trkpt lat="44.41727" lon="6.08391">
        <ele>1282.0554199</ele>
        <time>2014-07-15T09:08:00Z</time>
      </trkpt>
      <trkpt lat="44.41735" lon="6.08396">
        <ele>1283.0166016</ele>
        <time>2014-07-15T09:08:06Z</time>
      </trkpt>
      <trkpt lat="44.41746" lon="6.08405">
        <ele>1283.4973145</ele>
        <time>2014-07-15T09:08:13Z</time>
      </trkpt>
      <trkpt lat="44.4177" lon="6.08414">
        <ele>1285.9006348</ele>
        <time>2014-07-15T09:08:27Z</time>
      </trkpt>
      <trkpt lat="44.41794" lon="6.08431">
        <ele>1287.8232422</ele>
        <time>2014-07-15T09:08:43Z</time>
      </trkpt>
      <trkpt lat="44.41808" lon="6.08439">
        <ele>1289.7458496</ele>
        <time>2014-07-15T09:08:53Z</time>
      </trkpt>
      <trkpt lat="44.41828" lon="6.08454">
        <ele>1290.7070313</ele>
        <time>2014-07-15T09:09:08Z</time>
      </trkpt>
      <trkpt lat="44.41847" lon="6.08462">
        <ele>1293.5913086</ele>
        <time>2014-07-15T09:09:22Z</time>
      </trkpt>
      <trkpt lat="44.4187" lon="6.08479">
        <ele>1295.513916</ele>
        <time>2014-07-15T09:09:39Z</time>
      </trkpt>
      <trkpt lat="44.41885" lon="6.08492">
        <ele>1296.4753418</ele>
        <time>2014-07-15T09:09:49Z</time>
      </trkpt>
      <trkpt lat="44.41896" lon="6.08491">
        <ele>1297.4365234</ele>
        <time>2014-07-15T09:09:55Z</time>
      </trkpt>
      <trkpt lat="44.41907" lon="6.08489">
        <ele>1297.9172363</ele>
        <time>2014-07-15T09:10:02Z</time>
      </trkpt>
      <trkpt lat="44.4191" lon="6.08488">
        <ele>1297.9172363</ele>
        <time>2014-07-15T09:10:04Z</time>
      </trkpt>
      <trkpt lat="44.41933" lon="6.08479">
        <ele>1299.8398438</ele>
        <time>2014-07-15T09:10:18Z</time>
      </trkpt>
      <trkpt lat="44.41943" lon="6.0848">
        <ele>1300.8010254</ele>
        <time>2014-07-15T09:10:24Z</time>
      </trkpt>
      <trkpt lat="44.4195" lon="6.08477">
        <ele>1301.7624512</ele>
        <time>2014-07-15T09:10:29Z</time>
      </trkpt>
      <trkpt lat="44.41956" lon="6.0848">
        <ele>1302.2429199</ele>
        <time>2014-07-15T09:10:33Z</time>
      </trkpt>
      <trkpt lat="44.41963" lon="6.08483">
        <ele>1303.2043457</ele>
        <time>2014-07-15T09:10:38Z</time>
      </trkpt>
      <trkpt lat="44.41985" lon="6.08492">
        <ele>1304.1657715</ele>
        <time>2014-07-15T09:10:51Z</time>
      </trkpt>
      <trkpt lat="44.42003" lon="6.08489">
        <ele>1305.607666</ele>
        <time>2014-07-15T09:11:04Z</time>
      </trkpt>
      <trkpt lat="44.42021" lon="6.08487">
        <ele>1307.0495605</ele>
        <time>2014-07-15T09:11:16Z</time>
      </trkpt>
      <trkpt lat="44.4203" lon="6.08489">
        <ele>1307.5302734</ele>
        <time>2014-07-15T09:11:22Z</time>
      </trkpt>
      <trkpt lat="44.42054" lon="6.085">
        <ele>1309.453125</ele>
        <time>2014-07-15T09:11:35Z</time>
      </trkpt>
      <trkpt lat="44.42072" lon="6.08499">
        <ele>1310.8950195</ele>
        <time>2014-07-15T09:11:47Z</time>
      </trkpt>
      <trkpt lat="44.42081" lon="6.08499">
        <ele>1311.8564453</ele>
        <time>2014-07-15T09:11:52Z</time>
      </trkpt>
      <trkpt lat="44.42098" lon="6.08496">
        <ele>1313.2983398</ele>
        <time>2014-07-15T09:12:02Z</time>
      </trkpt>
      <trkpt lat="44.42115" lon="6.08502">
        <ele>1314.7402344</ele>
        <time>2014-07-15T09:12:12Z</time>
      </trkpt>
      <trkpt lat="44.42128" lon="6.08482">
        <ele>1315.7016602</ele>
        <time>2014-07-15T09:12:24Z</time>
      </trkpt>
      <trkpt lat="44.42131" lon="6.08467">
        <ele>1316.1821289</ele>
        <time>2014-07-15T09:12:31Z</time>
      </trkpt>
      <trkpt lat="44.42133" lon="6.08459">
        <ele>1316.6628418</ele>
        <time>2014-07-15T09:12:34Z</time>
      </trkpt>
      <trkpt lat="44.42135" lon="6.08439">
        <ele>1318.1047363</ele>
        <time>2014-07-15T09:12:42Z</time>
      </trkpt>
      <trkpt lat="44.42137" lon="6.08423">
        <ele>1318.5854492</ele>
        <time>2014-07-15T09:12:50Z</time>
      </trkpt>
      <trkpt lat="44.4215" lon="6.08404">
        <ele>1319.0661621</ele>
        <time>2014-07-15T09:13:01Z</time>
      </trkpt>
      <trkpt lat="44.42151" lon="6.084">
        <ele>1319.546875</ele>
        <time>2014-07-15T09:13:14Z</time>
      </trkpt>
      <trkpt lat="44.42151" lon="6.08401">
        <ele>1319.0661621</ele>
        <time>2014-07-15T09:13:55Z</time>
      </trkpt>
      <trkpt lat="44.42159" lon="6.08414">
        <ele>1318.1047363</ele>
        <time>2014-07-15T09:14:02Z</time>
      </trkpt>
      <trkpt lat="44.42161" lon="6.08415">
        <ele>1318.5854492</ele>
        <time>2014-07-15T09:14:23Z</time>
      </trkpt>
      <trkpt lat="44.42161" lon="6.08416">
        <ele>1318.1047363</ele>
        <time>2014-07-15T09:14:35Z</time>
      </trkpt>
      <trkpt lat="44.42164" lon="6.08438">
        <ele>1318.1047363</ele>
        <time>2014-07-15T09:14:42Z</time>
      </trkpt>
      <trkpt lat="44.42159" lon="6.08459">
        <ele>1316.1821289</ele>
        <time>2014-07-15T09:14:46Z</time>
      </trkpt>
      <trkpt lat="44.42157" lon="6.08463">
        <ele>1315.7016602</ele>
        <time>2014-07-15T09:14:47Z</time>
      </trkpt>
      <trkpt lat="44.42171" lon="6.08489">
        <ele>1313.7788086</ele>
        <time>2014-07-15T09:14:54Z</time>
      </trkpt>
      <trkpt lat="44.42208" lon="6.08495">
        <ele>1311.8564453</ele>
        <time>2014-07-15T09:15:07Z</time>
      </trkpt>
      <trkpt lat="44.42241" lon="6.08495">
        <ele>1308.9724121</ele>
        <time>2014-07-15T09:15:18Z</time>
      </trkpt>
      <trkpt lat="44.4226" lon="6.0851">
        <ele>1306.5688477</ele>
        <time>2014-07-15T09:15:27Z</time>
      </trkpt>
      <trkpt lat="44.42286" lon="6.08559">
        <ele>1302.7236328</ele>
        <time>2014-07-15T09:15:40Z</time>
      </trkpt>
      <trkpt lat="44.42316" lon="6.08581">
        <ele>1300.8010254</ele>
        <time>2014-07-15T09:15:48Z</time>
      </trkpt>
      <trkpt lat="44.42333" lon="6.08573">
        <ele>1298.878418</ele>
        <time>2014-07-15T09:15:52Z</time>
      </trkpt>
      <trkpt lat="44.42357" lon="6.08555">
        <ele>1295.9946289</ele>
        <time>2014-07-15T09:16:00Z</time>
      </trkpt>
      <trkpt lat="44.42383" lon="6.08567">
        <ele>1294.0720215</ele>
        <time>2014-07-15T09:16:09Z</time>
      </trkpt>
      <trkpt lat="44.42385" lon="6.08607">
        <ele>1291.668457</ele>
        <time>2014-07-15T09:16:18Z</time>
      </trkpt>
      <trkpt lat="44.42383" lon="6.08634">
        <ele>1289.7458496</ele>
        <time>2014-07-15T09:16:24Z</time>
      </trkpt>
      <trkpt lat="44.42427" lon="6.0867">
        <ele>1286.3813477</ele>
        <time>2014-07-15T09:16:35Z</time>
      </trkpt>
      <trkpt lat="44.4246" lon="6.08694">
        <ele>1282.5361328</ele>
        <time>2014-07-15T09:16:43Z</time>
      </trkpt>
      <trkpt lat="44.42463" lon="6.08696">
        <ele>1282.5361328</ele>
        <time>2014-07-15T09:16:44Z</time>
      </trkpt>
      <trkpt lat="44.42498" lon="6.08722">
        <ele>1278.690918</ele>
        <time>2014-07-15T09:16:57Z</time>
      </trkpt>
      <trkpt lat="44.425" lon="6.08724">
        <ele>1278.690918</ele>
        <time>2014-07-15T09:16:58Z</time>
      </trkpt>
      <trkpt lat="44.42512" lon="6.08745">
        <ele>1275.8066406</ele>
        <time>2014-07-15T09:17:05Z</time>
      </trkpt>
      <trkpt lat="44.42528" lon="6.08768">
        <ele>1274.3647461</ele>
        <time>2014-07-15T09:17:11Z</time>
      </trkpt>
      <trkpt lat="44.42549" lon="6.08816">
        <ele>1271.4807129</ele>
        <time>2014-07-15T09:17:24Z</time>
      </trkpt>
      <trkpt lat="44.42563" lon="6.0885">
        <ele>1270.0388184</ele>
        <time>2014-07-15T09:17:34Z</time>
      </trkpt>
      <trkpt lat="44.42571" lon="6.08859">
        <ele>1269.0776367</ele>
        <time>2014-07-15T09:17:37Z</time>
      </trkpt>
      <trkpt lat="44.42579" lon="6.08879">
        <ele>1267.635498</ele>
        <time>2014-07-15T09:17:42Z</time>
      </trkpt>
      <trkpt lat="44.42601" lon="6.08918">
        <ele>1265.7131348</ele>
        <time>2014-07-15T09:17:53Z</time>
      </trkpt>
      <trkpt lat="44.42619" lon="6.08925">
        <ele>1264.751709</ele>
        <time>2014-07-15T09:17:58Z</time>
      </trkpt>
      <trkpt lat="44.42639" lon="6.08937">
        <ele>1263.3098145</ele>
        <time>2014-07-15T09:18:05Z</time>
      </trkpt>
      <trkpt lat="44.42646" lon="6.08934">
        <ele>1262.8291016</ele>
        <time>2014-07-15T09:18:07Z</time>
      </trkpt>
      <trkpt lat="44.42652" lon="6.08931">
        <ele>1262.3483887</ele>
        <time>2014-07-15T09:18:09Z</time>
      </trkpt>
      <trkpt lat="44.42657" lon="6.08922">
        <ele>1261.8679199</ele>
        <time>2014-07-15T09:18:12Z</time>
      </trkpt>
      <trkpt lat="44.42667" lon="6.08911">
        <ele>1261.387207</ele>
        <time>2014-07-15T09:18:16Z</time>
      </trkpt>
      <trkpt lat="44.42677" lon="6.0891">
        <ele>1259.9448242</ele>
        <time>2014-07-15T09:18:20Z</time>
      </trkpt>
      <trkpt lat="44.42686" lon="6.08899">
        <ele>1258.9836426</ele>
        <time>2014-07-15T09:18:30Z</time>
      </trkpt>
      <trkpt lat="44.42684" lon="6.08893">
        <ele>1258.9836426</ele>
        <time>2014-07-15T09:19:38Z</time>
      </trkpt>
      <trkpt lat="44.42683" lon="6.08891">
        <ele>1258.0224609</ele>
        <time>2014-07-15T09:20:00Z</time>
      </trkpt>
      <trkpt lat="44.42686" lon="6.08898">
        <ele>1258.9836426</ele>
        <time>2014-07-15T09:20:15Z</time>
      </trkpt>
      <trkpt lat="44.427" lon="6.08914">
        <ele>1258.5029297</ele>
        <time>2014-07-15T09:20:21Z</time>
      </trkpt>
      <trkpt lat="44.42709" lon="6.08919">
        <ele>1257.0610352</ele>
        <time>2014-07-15T09:20:24Z</time>
      </trkpt>
      <trkpt lat="44.42714" lon="6.08921">
        <ele>1257.0610352</ele>
        <time>2014-07-15T09:20:25Z</time>
      </trkpt>
      <trkpt lat="44.42736" lon="6.0888">
        <ele>1256.5803223</ele>
        <time>2014-07-15T09:20:33Z</time>
      </trkpt>
      <trkpt lat="44.42748" lon="6.08872">
        <ele>1255.6191406</ele>
        <time>2014-07-15T09:20:36Z</time>
      </trkpt>
      <trkpt lat="44.42765" lon="6.0887">
        <ele>1254.1772461</ele>
        <time>2014-07-15T09:20:41Z</time>
      </trkpt>
      <trkpt lat="44.4277" lon="6.08871">
        <ele>1253.6965332</ele>
        <time>2014-07-15T09:20:43Z</time>
      </trkpt>
      <trkpt lat="44.42793" lon="6.08837">
        <ele>1253.2158203</ele>
        <time>2014-07-15T09:20:54Z</time>
      </trkpt>
      <trkpt lat="44.42801" lon="6.08826">
        <ele>1251.7739258</ele>
        <time>2014-07-15T09:20:59Z</time>
      </trkpt>
      <trkpt lat="44.42829" lon="6.08822">
        <ele>1249.8513184</ele>
        <time>2014-07-15T09:21:10Z</time>
      </trkpt>
      <trkpt lat="44.42859" lon="6.08806">
        <ele>1248.8898926</ele>
        <time>2014-07-15T09:21:20Z</time>
      </trkpt>
      <trkpt lat="44.42869" lon="6.0881">
        <ele>1247.9287109</ele>
        <time>2014-07-15T09:21:24Z</time>
      </trkpt>
      <trkpt lat="44.42895" lon="6.08801">
        <ele>1246.4868164</ele>
        <time>2014-07-15T09:21:35Z</time>
      </trkpt>
      <trkpt lat="44.42907" lon="6.08819">
        <ele>1245.0446777</ele>
        <time>2014-07-15T09:21:42Z</time>
      </trkpt>
      <trkpt lat="44.42943" lon="6.08818">
        <ele>1244.0834961</ele>
        <time>2014-07-15T09:21:52Z</time>
      </trkpt>
      <trkpt lat="44.42947" lon="6.08817">
        <ele>1243.1218262</ele>
        <time>2014-07-15T09:21:53Z</time>
      </trkpt>
      <trkpt lat="44.42979" lon="6.08797">
        <ele>1242.1606445</ele>
        <time>2014-07-15T09:22:02Z</time>
      </trkpt>
      <trkpt lat="44.43015" lon="6.08799">
        <ele>1239.2766113</ele>
        <time>2014-07-15T09:22:13Z</time>
      </trkpt>
      <trkpt lat="44.43049" lon="6.08794">
        <ele>1236.873291</ele>
        <time>2014-07-15T09:22:23Z</time>
      </trkpt>
      <trkpt lat="44.4308" lon="6.08786">
        <ele>1235.4313965</ele>
        <time>2014-07-15T09:22:36Z</time>
      </trkpt>
      <trkpt lat="44.43115" lon="6.08814">
        <ele>1234.9509277</ele>
        <time>2014-07-15T09:22:48Z</time>
      </trkpt>
      <trkpt lat="44.43125" lon="6.08802">
        <ele>1234.9509277</ele>
        <time>2014-07-15T09:22:52Z</time>
      </trkpt>
      <trkpt lat="44.4313" lon="6.0879">
        <ele>1235.4313965</ele>
        <time>2014-07-15T09:22:56Z</time>
      </trkpt>
      <trkpt lat="44.4315" lon="6.0878">
        <ele>1235.4313965</ele>
        <time>2014-07-15T09:23:02Z</time>
      </trkpt>
      <trkpt lat="44.43176" lon="6.08797">
        <ele>1236.3928223</ele>
        <time>2014-07-15T09:23:12Z</time>
      </trkpt>
      <trkpt lat="44.43203" lon="6.08807">
        <ele>1237.3540039</ele>
        <time>2014-07-15T09:23:22Z</time>
      </trkpt>
      <trkpt lat="44.43239" lon="6.08814">
        <ele>1238.7961426</ele>
        <time>2014-07-15T09:23:35Z</time>
      </trkpt>
      <trkpt lat="44.43259" lon="6.08825">
        <ele>1240.2380371</ele>
        <time>2014-07-15T09:23:43Z</time>
      </trkpt>
      <trkpt lat="44.43261" lon="6.08826">
        <ele>1240.2380371</ele>
        <time>2014-07-15T09:23:44Z</time>
      </trkpt>
      <trkpt lat="44.43297" lon="6.08829">
        <ele>1241.6799316</ele>
        <time>2014-07-15T09:23:57Z</time>
      </trkpt>
      <trkpt lat="44.43319" lon="6.0883">
        <ele>1242.6413574</ele>
        <time>2014-07-15T09:24:07Z</time>
      </trkpt>
      <trkpt lat="44.43343" lon="6.08829">
        <ele>1244.5639648</ele>
        <time>2014-07-15T09:24:18Z</time>
      </trkpt>
      <trkpt lat="44.43361" lon="6.08842">
        <ele>1245.5253906</ele>
        <time>2014-07-15T09:24:30Z</time>
      </trkpt>
      <trkpt lat="44.43369" lon="6.0885">
        <ele>1246.0061035</ele>
        <time>2014-07-15T09:24:34Z</time>
      </trkpt>
      <trkpt lat="44.43387" lon="6.0891">
        <ele>1244.5639648</ele>
        <time>2014-07-15T09:24:48Z</time>
      </trkpt>
      <trkpt lat="44.43394" lon="6.08937">
        <ele>1243.6025391</ele>
        <time>2014-07-15T09:24:54Z</time>
      </trkpt>
      <trkpt lat="44.43394" lon="6.08951">
        <ele>1243.1218262</ele>
        <time>2014-07-15T09:24:57Z</time>
      </trkpt>
      <trkpt lat="44.43396" lon="6.09">
        <ele>1242.1606445</ele>
        <time>2014-07-15T09:25:07Z</time>
      </trkpt>
      <trkpt lat="44.43394" lon="6.09046">
        <ele>1242.1606445</ele>
        <time>2014-07-15T09:25:18Z</time>
      </trkpt>
      <trkpt lat="44.43393" lon="6.09079">
        <ele>1240.7185059</ele>
        <time>2014-07-15T09:25:25Z</time>
      </trkpt>
      <trkpt lat="44.43395" lon="6.09127">
        <ele>1240.2380371</ele>
        <time>2014-07-15T09:25:36Z</time>
      </trkpt>
      <trkpt lat="44.43395" lon="6.09131">
        <ele>1240.2380371</ele>
        <time>2014-07-15T09:25:37Z</time>
      </trkpt>
      <trkpt lat="44.43417" lon="6.09171">
        <ele>1240.2380371</ele>
        <time>2014-07-15T09:25:49Z</time>
      </trkpt>
      <trkpt lat="44.43419" lon="6.0919">
        <ele>1239.7573242</ele>
        <time>2014-07-15T09:25:54Z</time>
      </trkpt>
      <trkpt lat="44.43429" lon="6.0926">
        <ele>1238.3154297</ele>
        <time>2014-07-15T09:26:07Z</time>
      </trkpt>
      <trkpt lat="44.43438" lon="6.09314">
        <ele>1237.3540039</ele>
        <time>2014-07-15T09:26:18Z</time>
      </trkpt>
      <trkpt lat="44.4347" lon="6.09372">
        <ele>1236.873291</ele>
        <time>2014-07-15T09:26:31Z</time>
      </trkpt>
      <trkpt lat="44.43475" lon="6.09387">
        <ele>1237.3540039</ele>
        <time>2014-07-15T09:26:36Z</time>
      </trkpt>
      <trkpt lat="44.43477" lon="6.09392">
        <ele>1237.3540039</ele>
        <time>2014-07-15T09:26:38Z</time>
      </trkpt>
      <trkpt lat="44.43497" lon="6.09417">
        <ele>1239.2766113</ele>
        <time>2014-07-15T09:26:51Z</time>
      </trkpt>
      <trkpt lat="44.435" lon="6.09424">
        <ele>1239.2766113</ele>
        <time>2014-07-15T09:26:55Z</time>
      </trkpt>
      <trkpt lat="44.43498" lon="6.09456">
        <ele>1240.7185059</ele>
        <time>2014-07-15T09:27:09Z</time>
      </trkpt>
      <trkpt lat="44.43498" lon="6.0948">
        <ele>1242.6413574</ele>
        <time>2014-07-15T09:27:22Z</time>
      </trkpt>
      <trkpt lat="44.43494" lon="6.09502">
        <ele>1245.0446777</ele>
        <time>2014-07-15T09:27:39Z</time>
      </trkpt>
      <trkpt lat="44.43491" lon="6.09522">
        <ele>1247.447998</ele>
        <time>2014-07-15T09:27:53Z</time>
      </trkpt>
      <trkpt lat="44.43475" lon="6.09553">
        <ele>1250.3320313</ele>
        <time>2014-07-15T09:28:15Z</time>
      </trkpt>
      <trkpt lat="44.43468" lon="6.09559">
        <ele>1251.2932129</ele>
        <time>2014-07-15T09:28:21Z</time>
      </trkpt>
      <trkpt lat="44.43457" lon="6.09571">
        <ele>1252.7351074</ele>
        <time>2014-07-15T09:28:34Z</time>
      </trkpt>
      <trkpt lat="44.43447" lon="6.09577">
        <ele>1254.1772461</ele>
        <time>2014-07-15T09:28:48Z</time>
      </trkpt>
      <trkpt lat="44.43427" lon="6.09583">
        <ele>1257.0610352</ele>
        <time>2014-07-15T09:29:13Z</time>
      </trkpt>
      <trkpt lat="44.43415" lon="6.09582">
        <ele>1258.5029297</ele>
        <time>2014-07-15T09:29:29Z</time>
      </trkpt>
      <trkpt lat="44.43403" lon="6.0961">
        <ele>1260.4257813</ele>
        <time>2014-07-15T09:29:49Z</time>
      </trkpt>
      <trkpt lat="44.43394" lon="6.09648">
        <ele>1262.8291016</ele>
        <time>2014-07-15T09:30:06Z</time>
      </trkpt>
      <trkpt lat="44.43389" lon="6.09665">
        <ele>1264.2709961</ele>
        <time>2014-07-15T09:30:19Z</time>
      </trkpt>
      <trkpt lat="44.43378" lon="6.09681">
        <ele>1265.7131348</ele>
        <time>2014-07-15T09:30:32Z</time>
      </trkpt>
      <trkpt lat="44.4336" lon="6.09703">
        <ele>1267.1550293</ele>
        <time>2014-07-15T09:30:48Z</time>
      </trkpt>
      <trkpt lat="44.43345" lon="6.09712">
        <ele>1269.5583496</ele>
        <time>2014-07-15T09:31:08Z</time>
      </trkpt>
      <trkpt lat="44.43342" lon="6.09714">
        <ele>1270.0388184</ele>
        <time>2014-07-15T09:31:10Z</time>
      </trkpt>
      <trkpt lat="44.43333" lon="6.09723">
        <ele>1270.5195313</ele>
        <time>2014-07-15T09:31:16Z</time>
      </trkpt>
      <trkpt lat="44.43316" lon="6.09725">
        <ele>1272.4421387</ele>
        <time>2014-07-15T09:31:32Z</time>
      </trkpt>
      <trkpt lat="44.43299" lon="6.09726">
        <ele>1274.3647461</ele>
        <time>2014-07-15T09:31:52Z</time>
      </trkpt>
      <trkpt lat="44.43282" lon="6.0974">
        <ele>1276.2875977</ele>
        <time>2014-07-15T09:32:12Z</time>
      </trkpt>
      <trkpt lat="44.43261" lon="6.09755">
        <ele>1279.6520996</ele>
        <time>2014-07-15T09:32:34Z</time>
      </trkpt>
      <trkpt lat="44.43244" lon="6.09777">
        <ele>1281.0942383</ele>
        <time>2014-07-15T09:32:49Z</time>
      </trkpt>
      <trkpt lat="44.4324" lon="6.09793">
        <ele>1282.5361328</ele>
        <time>2014-07-15T09:33:08Z</time>
      </trkpt>
      <trkpt lat="44.43233" lon="6.0981">
        <ele>1283.9780273</ele>
        <time>2014-07-15T09:33:23Z</time>
      </trkpt>
      <trkpt lat="44.43238" lon="6.09827">
        <ele>1285.4199219</ele>
        <time>2014-07-15T09:33:41Z</time>
      </trkpt>
      <trkpt lat="44.4325" lon="6.09846">
        <ele>1287.3425293</ele>
        <time>2014-07-15T09:33:58Z</time>
      </trkpt>
      <trkpt lat="44.43256" lon="6.0986">
        <ele>1289.2651367</ele>
        <time>2014-07-15T09:34:16Z</time>
      </trkpt>
      <trkpt lat="44.43254" lon="6.0987">
        <ele>1291.1877441</ele>
        <time>2014-07-15T09:34:35Z</time>
      </trkpt>
      <trkpt lat="44.43253" lon="6.09879">
        <ele>1292.1494141</ele>
        <time>2014-07-15T09:34:49Z</time>
      </trkpt>
      <trkpt lat="44.43255" lon="6.09886">
        <ele>1293.5913086</ele>
        <time>2014-07-15T09:35:06Z</time>
      </trkpt>
      <trkpt lat="44.43195" lon="6.10116">
        <ele>1295.0332031</ele>
        <time>2014-07-15T09:35:22Z</time>
      </trkpt>
      <trkpt lat="44.43188" lon="6.10131">
        <ele>1297.4365234</ele>
        <time>2014-07-15T09:35:42Z</time>
      </trkpt>
      <trkpt lat="44.43189" lon="6.10149">
        <ele>1300.3205566</ele>
        <time>2014-07-15T09:36:01Z</time>
      </trkpt>
      <trkpt lat="44.43185" lon="6.10166">
        <ele>1302.7236328</ele>
        <time>2014-07-15T09:36:20Z</time>
      </trkpt>
      <trkpt lat="44.43178" lon="6.10205">
        <ele>1305.607666</ele>
        <time>2014-07-15T09:36:39Z</time>
      </trkpt>
      <trkpt lat="44.43177" lon="6.10217">
        <ele>1306.5688477</ele>
        <time>2014-07-15T09:37:23Z</time>
      </trkpt>
      <trkpt lat="44.43175" lon="6.10238">
        <ele>1308.4916992</ele>
        <time>2014-07-15T09:37:44Z</time>
      </trkpt>
      <trkpt lat="44.43158" lon="6.10257">
        <ele>1310.8950195</ele>
        <time>2014-07-15T09:38:16Z</time>
      </trkpt>
      <trkpt lat="44.43162" lon="6.10264">
        <ele>1312.3369141</ele>
        <time>2014-07-15T09:38:52Z</time>
      </trkpt>
      <trkpt lat="44.43153" lon="6.10291">
        <ele>1312.817627</ele>
        <time>2014-07-15T09:39:09Z</time>
      </trkpt>
      <trkpt lat="44.43152" lon="6.10304">
        <ele>1313.7788086</ele>
        <time>2014-07-15T09:39:17Z</time>
      </trkpt>
      <trkpt lat="44.4315" lon="6.10327">
        <ele>1315.2209473</ele>
        <time>2014-07-15T09:39:41Z</time>
      </trkpt>
      <trkpt lat="44.4315" lon="6.10357">
        <ele>1315.2209473</ele>
        <time>2014-07-15T09:40:12Z</time>
      </trkpt>
      <trkpt lat="44.43144" lon="6.10346">
        <ele>1315.7016602</ele>
        <time>2014-07-15T09:40:26Z</time>
      </trkpt>
      <trkpt lat="44.43149" lon="6.10365">
        <ele>1317.1435547</ele>
        <time>2014-07-15T09:40:43Z</time>
      </trkpt>
      <trkpt lat="44.4315" lon="6.10341">
        <ele>1315.7016602</ele>
        <time>2014-07-15T09:41:12Z</time>
      </trkpt>
      <trkpt lat="44.43155" lon="6.10366">
        <ele>1316.6628418</ele>
        <time>2014-07-15T09:41:34Z</time>
      </trkpt>
      <trkpt lat="44.43155" lon="6.10373">
        <ele>1317.1435547</ele>
        <time>2014-07-15T09:42:01Z</time>
      </trkpt>
      <trkpt lat="44.43162" lon="6.10373">
        <ele>1317.6240234</ele>
        <time>2014-07-15T09:42:22Z</time>
      </trkpt>
      <trkpt lat="44.43168" lon="6.1038">
        <ele>1318.5854492</ele>
        <time>2014-07-15T09:42:35Z</time>
      </trkpt>
      <trkpt lat="44.43173" lon="6.1039">
        <ele>1319.546875</ele>
        <time>2014-07-15T09:42:42Z</time>
      </trkpt>
      <trkpt lat="44.4318" lon="6.10415">
        <ele>1321.9499512</ele>
        <time>2014-07-15T09:42:56Z</time>
      </trkpt>
      <trkpt lat="44.43192" lon="6.10437">
        <ele>1323.3920898</ele>
        <time>2014-07-15T09:43:09Z</time>
      </trkpt>
      <trkpt lat="44.432" lon="6.10459">
        <ele>1325.7954102</ele>
        <time>2014-07-15T09:43:26Z</time>
      </trkpt>
      <trkpt lat="44.432" lon="6.10476">
        <ele>1327.2375488</ele>
        <time>2014-07-15T09:43:36Z</time>
      </trkpt>
      <trkpt lat="44.43198" lon="6.10505">
        <ele>1329.1599121</ele>
        <time>2014-07-15T09:43:50Z</time>
      </trkpt>
      <trkpt lat="44.43194" lon="6.10523">
        <ele>1330.1213379</ele>
        <time>2014-07-15T09:44:00Z</time>
      </trkpt>
      <trkpt lat="44.43199" lon="6.10549">
        <ele>1332.0439453</ele>
        <time>2014-07-15T09:44:12Z</time>
      </trkpt>
      <trkpt lat="44.43198" lon="6.10567">
        <ele>1333.005127</ele>
        <time>2014-07-15T09:44:22Z</time>
      </trkpt>
      <trkpt lat="44.43197" lon="6.10576">
        <ele>1333.9665527</ele>
        <time>2014-07-15T09:44:27Z</time>
      </trkpt>
      <trkpt lat="44.43196" lon="6.10579">
        <ele>1333.9665527</ele>
        <time>2014-07-15T09:44:29Z</time>
      </trkpt>
      <trkpt lat="44.4319" lon="6.10591">
        <ele>1335.4084473</ele>
        <time>2014-07-15T09:44:39Z</time>
      </trkpt>
      <trkpt lat="44.43186" lon="6.10605">
        <ele>1336.8503418</ele>
        <time>2014-07-15T09:44:45Z</time>
      </trkpt>
      <trkpt lat="44.43179" lon="6.10626">
        <ele>1337.8117676</ele>
        <time>2014-07-15T09:44:57Z</time>
      </trkpt>
      <trkpt lat="44.43171" lon="6.10643">
        <ele>1339.2536621</ele>
        <time>2014-07-15T09:45:07Z</time>
      </trkpt>
      <trkpt lat="44.43165" lon="6.10659">
        <ele>1340.6958008</ele>
        <time>2014-07-15T09:45:16Z</time>
      </trkpt>
      <trkpt lat="44.43165" lon="6.10661">
        <ele>1340.6958008</ele>
        <time>2014-07-15T09:45:18Z</time>
      </trkpt>
      <trkpt lat="44.43164" lon="6.10669">
        <ele>1341.1765137</ele>
        <time>2014-07-15T09:45:22Z</time>
      </trkpt>
      <trkpt lat="44.43161" lon="6.10674">
        <ele>1341.6572266</ele>
        <time>2014-07-15T09:45:26Z</time>
      </trkpt>
      <trkpt lat="44.43152" lon="6.10702">
        <ele>1344.0605469</ele>
        <time>2014-07-15T09:45:41Z</time>
      </trkpt>
      <trkpt lat="44.43143" lon="6.10735">
        <ele>1346.9443359</ele>
        <time>2014-07-15T09:46:01Z</time>
      </trkpt>
      <trkpt lat="44.43136" lon="6.10747">
        <ele>1348.3862305</ele>
        <time>2014-07-15T09:46:09Z</time>
      </trkpt>
      <trkpt lat="44.43134" lon="6.10752">
        <ele>1348.8669434</ele>
        <time>2014-07-15T09:46:13Z</time>
      </trkpt>
      <trkpt lat="44.43132" lon="6.10762">
        <ele>1349.8283691</ele>
        <time>2014-07-15T09:46:20Z</time>
      </trkpt>
      <trkpt lat="44.43132" lon="6.10771">
        <ele>1350.7895508</ele>
        <time>2014-07-15T09:46:26Z</time>
      </trkpt>
      <trkpt lat="44.43132" lon="6.1078">
        <ele>1351.7509766</ele>
        <time>2014-07-15T09:46:31Z</time>
      </trkpt>
      <trkpt lat="44.43134" lon="6.10793">
        <ele>1351.7509766</ele>
        <time>2014-07-15T09:46:37Z</time>
      </trkpt>
      <trkpt lat="44.43143" lon="6.10823">
        <ele>1354.1542969</ele>
        <time>2014-07-15T09:46:53Z</time>
      </trkpt>
      <trkpt lat="44.43146" lon="6.10835">
        <ele>1354.6347656</ele>
        <time>2014-07-15T09:46:59Z</time>
      </trkpt>
      <trkpt lat="44.4315" lon="6.10846">
        <ele>1355.1154785</ele>
        <time>2014-07-15T09:47:06Z</time>
      </trkpt>
      <trkpt lat="44.43152" lon="6.10851">
        <ele>1355.5961914</ele>
        <time>2014-07-15T09:47:09Z</time>
      </trkpt>
      <trkpt lat="44.43151" lon="6.10854">
        <ele>1355.5961914</ele>
        <time>2014-07-15T09:47:11Z</time>
      </trkpt>
      <trkpt lat="44.43159" lon="6.1089">
        <ele>1356.5576172</ele>
        <time>2014-07-15T09:47:30Z</time>
      </trkpt>
      <trkpt lat="44.43157" lon="6.10902">
        <ele>1357.0383301</ele>
        <time>2014-07-15T09:47:38Z</time>
      </trkpt>
      <trkpt lat="44.43152" lon="6.10923">
        <ele>1357.9997559</ele>
        <time>2014-07-15T09:47:46Z</time>
      </trkpt>
      <trkpt lat="44.4315" lon="6.10937">
        <ele>1358.9609375</ele>
        <time>2014-07-15T09:47:54Z</time>
      </trkpt>
      <trkpt lat="44.4315" lon="6.1094">
        <ele>1359.4416504</ele>
        <time>2014-07-15T09:47:56Z</time>
      </trkpt>
      <trkpt lat="44.43146" lon="6.10948">
        <ele>1360.8835449</ele>
        <time>2014-07-15T09:48:02Z</time>
      </trkpt>
      <trkpt lat="44.43144" lon="6.10964">
        <ele>1362.8061523</ele>
        <time>2014-07-15T09:48:12Z</time>
      </trkpt>
      <trkpt lat="44.43145" lon="6.10976">
        <ele>1362.8061523</ele>
        <time>2014-07-15T09:48:17Z</time>
      </trkpt>
      <trkpt lat="44.43155" lon="6.11006">
        <ele>1365.2094727</ele>
        <time>2014-07-15T09:48:33Z</time>
      </trkpt>
      <trkpt lat="44.43171" lon="6.11025">
        <ele>1366.1706543</ele>
        <time>2014-07-15T09:48:45Z</time>
      </trkpt>
      <trkpt lat="44.43196" lon="6.11039">
        <ele>1367.1320801</ele>
        <time>2014-07-15T09:48:58Z</time>
      </trkpt>
      <trkpt lat="44.43205" lon="6.11044">
        <ele>1367.1320801</ele>
        <time>2014-07-15T09:49:04Z</time>
      </trkpt>
      <trkpt lat="44.43208" lon="6.11046">
        <ele>1367.6125488</ele>
        <time>2014-07-15T09:49:06Z</time>
      </trkpt>
      <trkpt lat="44.43213" lon="6.11071">
        <ele>1369.5354004</ele>
        <time>2014-07-15T09:49:21Z</time>
      </trkpt>
      <trkpt lat="44.43221" lon="6.11092">
        <ele>1370.9772949</ele>
        <time>2014-07-15T09:49:30Z</time>
      </trkpt>
      <trkpt lat="44.43226" lon="6.11104">
        <ele>1371.4577637</ele>
        <time>2014-07-15T09:49:37Z</time>
      </trkpt>
      <trkpt lat="44.4323" lon="6.11109">
        <ele>1371.9384766</ele>
        <time>2014-07-15T09:49:40Z</time>
      </trkpt>
      <trkpt lat="44.43236" lon="6.11111">
        <ele>1371.9384766</ele>
        <time>2014-07-15T09:49:44Z</time>
      </trkpt>
      <trkpt lat="44.43247" lon="6.11123">
        <ele>1373.3808594</ele>
        <time>2014-07-15T09:49:56Z</time>
      </trkpt>
      <trkpt lat="44.4326" lon="6.11134">
        <ele>1375.3032227</ele>
        <time>2014-07-15T09:50:06Z</time>
      </trkpt>
      <trkpt lat="44.43266" lon="6.11146">
        <ele>1375.7839355</ele>
        <time>2014-07-15T09:50:14Z</time>
      </trkpt>
      <trkpt lat="44.43274" lon="6.11163">
        <ele>1377.706543</ele>
        <time>2014-07-15T09:50:25Z</time>
      </trkpt>
      <trkpt lat="44.43283" lon="6.11171">
        <ele>1378.6679688</ele>
        <time>2014-07-15T09:50:33Z</time>
      </trkpt>
      <trkpt lat="44.43297" lon="6.11201">
        <ele>1381.5517578</ele>
        <time>2014-07-15T09:50:53Z</time>
      </trkpt>
      <trkpt lat="44.43318" lon="6.11212">
        <ele>1382.9936523</ele>
        <time>2014-07-15T09:51:06Z</time>
      </trkpt>
      <trkpt lat="44.43334" lon="6.11216">
        <ele>1383.9550781</ele>
        <time>2014-07-15T09:51:19Z</time>
      </trkpt>
      <trkpt lat="44.43354" lon="6.11211">
        <ele>1386.3583984</ele>
        <time>2014-07-15T09:51:35Z</time>
      </trkpt>
      <trkpt lat="44.43363" lon="6.11213">
        <ele>1386.8388672</ele>
        <time>2014-07-15T09:51:40Z</time>
      </trkpt>
      <trkpt lat="44.43371" lon="6.11209">
        <ele>1388.28125</ele>
        <time>2014-07-15T09:51:47Z</time>
      </trkpt>
      <trkpt lat="44.43378" lon="6.1121">
        <ele>1388.7619629</ele>
        <time>2014-07-15T09:51:52Z</time>
      </trkpt>
      <trkpt lat="44.434" lon="6.11226">
        <ele>1390.2038574</ele>
        <time>2014-07-15T09:52:07Z</time>
      </trkpt>
      <trkpt lat="44.43406" lon="6.11233">
        <ele>1391.1650391</ele>
        <time>2014-07-15T09:52:13Z</time>
      </trkpt>
      <trkpt lat="44.43409" lon="6.11245">
        <ele>1391.645752</ele>
        <time>2014-07-15T09:52:18Z</time>
      </trkpt>
      <trkpt lat="44.43411" lon="6.11248">
        <ele>1391.645752</ele>
        <time>2014-07-15T09:52:21Z</time>
      </trkpt>
      <trkpt lat="44.43414" lon="6.1125">
        <ele>1392.6071777</ele>
        <time>2014-07-15T09:52:23Z</time>
      </trkpt>
      <trkpt lat="44.43414" lon="6.11251">
        <ele>1392.6071777</ele>
        <time>2014-07-15T09:52:24Z</time>
      </trkpt>
      <trkpt lat="44.43412" lon="6.11256">
        <ele>1392.6071777</ele>
        <time>2014-07-15T09:52:26Z</time>
      </trkpt>
      <trkpt lat="44.43424" lon="6.11282">
        <ele>1395.0102539</ele>
        <time>2014-07-15T09:52:42Z</time>
      </trkpt>
      <trkpt lat="44.43439" lon="6.11297">
        <ele>1395.9716797</ele>
        <time>2014-07-15T09:52:58Z</time>
      </trkpt>
      <trkpt lat="44.43435" lon="6.11306">
        <ele>1396.9328613</ele>
        <time>2014-07-15T09:53:04Z</time>
      </trkpt>
      <trkpt lat="44.43424" lon="6.11322">
        <ele>1397.4135742</ele>
        <time>2014-07-15T09:53:22Z</time>
      </trkpt>
      <trkpt lat="44.43419" lon="6.11319">
        <ele>1398.3747559</ele>
        <time>2014-07-15T09:54:50Z</time>
      </trkpt>
      <trkpt lat="44.43416" lon="6.1131">
        <ele>1398.8554688</ele>
        <time>2014-07-15T09:54:56Z</time>
      </trkpt>
      <trkpt lat="44.43412" lon="6.11306">
        <ele>1400.2976074</ele>
        <time>2014-07-15T09:55:00Z</time>
      </trkpt>
      <trkpt lat="44.43397" lon="6.11291">
        <ele>1401.2587891</ele>
        <time>2014-07-15T09:55:09Z</time>
      </trkpt>
      <trkpt lat="44.43383" lon="6.1129">
        <ele>1403.1813965</ele>
        <time>2014-07-15T09:55:22Z</time>
      </trkpt>
      <trkpt lat="44.43382" lon="6.11292">
        <ele>1403.1813965</ele>
        <time>2014-07-15T09:55:23Z</time>
      </trkpt>
      <trkpt lat="44.43377" lon="6.11305">
        <ele>1403.1813965</ele>
        <time>2014-07-15T09:55:37Z</time>
      </trkpt>
      <trkpt lat="44.43375" lon="6.11309">
        <ele>1403.1813965</ele>
        <time>2014-07-15T09:56:07Z</time>
      </trkpt>
      <trkpt lat="44.43375" lon="6.11298">
        <ele>1402.2199707</ele>
        <time>2014-07-15T09:56:21Z</time>
      </trkpt>
      <trkpt lat="44.43382" lon="6.113">
        <ele>1404.1430664</ele>
        <time>2014-07-15T10:03:38Z</time>
      </trkpt>
      <trkpt lat="44.43381" lon="6.11302">
        <ele>1404.6235352</ele>
        <time>2014-07-15T10:03:52Z</time>
      </trkpt>
      <trkpt lat="44.43375" lon="6.11303">
        <ele>1405.104248</ele>
        <time>2014-07-15T10:04:24Z</time>
      </trkpt>
      <trkpt lat="44.43372" lon="6.11303">
        <ele>1405.104248</ele>
        <time>2014-07-15T10:04:55Z</time>
      </trkpt>
      <trkpt lat="44.4339" lon="6.11316">
        <ele>1406.5461426</ele>
        <time>2014-07-15T10:05:08Z</time>
      </trkpt>
      <trkpt lat="44.43395" lon="6.11319">
        <ele>1407.5075684</ele>
        <time>2014-07-15T10:05:13Z</time>
      </trkpt>
      <trkpt lat="44.43405" lon="6.11342">
        <ele>1407.9882813</ele>
        <time>2014-07-15T10:05:29Z</time>
      </trkpt>
      <trkpt lat="44.43406" lon="6.11347">
        <ele>1408.9494629</ele>
        <time>2014-07-15T10:05:33Z</time>
      </trkpt>
      <trkpt lat="44.43414" lon="6.11357">
        <ele>1409.9106445</ele>
        <time>2014-07-15T10:05:40Z</time>
      </trkpt>
      <trkpt lat="44.43418" lon="6.11361">
        <ele>1409.9106445</ele>
        <time>2014-07-15T10:05:42Z</time>
      </trkpt>
      <trkpt lat="44.43421" lon="6.11366">
        <ele>1409.9106445</ele>
        <time>2014-07-15T10:05:44Z</time>
      </trkpt>
      <trkpt lat="44.43425" lon="6.1137">
        <ele>1410.3913574</ele>
        <time>2014-07-15T10:05:47Z</time>
      </trkpt>
      <trkpt lat="44.43428" lon="6.11377">
        <ele>1410.8720703</ele>
        <time>2014-07-15T10:05:52Z</time>
      </trkpt>
      <trkpt lat="44.43435" lon="6.11381">
        <ele>1410.8720703</ele>
        <time>2014-07-15T10:05:56Z</time>
      </trkpt>
      <trkpt lat="44.43438" lon="6.11384">
        <ele>1411.8334961</ele>
        <time>2014-07-15T10:05:58Z</time>
      </trkpt>
      <trkpt lat="44.43447" lon="6.11388">
        <ele>1412.3139648</ele>
        <time>2014-07-15T10:06:03Z</time>
      </trkpt>
      <trkpt lat="44.4345" lon="6.11389">
        <ele>1412.3139648</ele>
        <time>2014-07-15T10:06:05Z</time>
      </trkpt>
      <trkpt lat="44.4346" lon="6.11395">
        <ele>1412.7946777</ele>
        <time>2014-07-15T10:06:11Z</time>
      </trkpt>
      <trkpt lat="44.43463" lon="6.11412">
        <ele>1414.2365723</ele>
        <time>2014-07-15T10:06:24Z</time>
      </trkpt>
      <trkpt lat="44.43471" lon="6.11432">
        <ele>1416.6398926</ele>
        <time>2014-07-15T10:06:39Z</time>
      </trkpt>
      <trkpt lat="44.43476" lon="6.11449">
        <ele>1417.1206055</ele>
        <time>2014-07-15T10:06:47Z</time>
      </trkpt>
      <trkpt lat="44.43478" lon="6.11456">
        <ele>1417.6010742</ele>
        <time>2014-07-15T10:06:51Z</time>
      </trkpt>
      <trkpt lat="44.43484" lon="6.11461">
        <ele>1417.6010742</ele>
        <time>2014-07-15T10:06:54Z</time>
      </trkpt>
      <trkpt lat="44.43486" lon="6.11472">
        <ele>1418.5625</ele>
        <time>2014-07-15T10:07:00Z</time>
      </trkpt>
      <trkpt lat="44.43489" lon="6.11484">
        <ele>1419.5239258</ele>
        <time>2014-07-15T10:07:08Z</time>
      </trkpt>
      <trkpt lat="44.43499" lon="6.11497">
        <ele>1420.9660645</ele>
        <time>2014-07-15T10:07:20Z</time>
      </trkpt>
      <trkpt lat="44.43505" lon="6.11501">
        <ele>1420.9660645</ele>
        <time>2014-07-15T10:07:23Z</time>
      </trkpt>
      <trkpt lat="44.43513" lon="6.11512">
        <ele>1422.407959</ele>
        <time>2014-07-15T10:07:32Z</time>
      </trkpt>
      <trkpt lat="44.43513" lon="6.11517">
        <ele>1423.3693848</ele>
        <time>2014-07-15T10:07:36Z</time>
      </trkpt>
      <trkpt lat="44.4351" lon="6.11529">
        <ele>1423.8498535</ele>
        <time>2014-07-15T10:07:42Z</time>
      </trkpt>
      <trkpt lat="44.43527" lon="6.11548">
        <ele>1425.7724609</ele>
        <time>2014-07-15T10:07:55Z</time>
      </trkpt>
      <trkpt lat="44.43527" lon="6.11548">
        <ele>1425.7724609</ele>
        <time>2014-07-15T10:07:56Z</time>
      </trkpt>
      <trkpt lat="44.43544" lon="6.11562">
        <ele>1427.2145996</ele>
        <time>2014-07-15T10:08:07Z</time>
      </trkpt>
      <trkpt lat="44.43561" lon="6.11581">
        <ele>1429.6176758</ele>
        <time>2014-07-15T10:08:18Z</time>
      </trkpt>
      <trkpt lat="44.43579" lon="6.11594">
        <ele>1432.0209961</ele>
        <time>2014-07-15T10:08:32Z</time>
      </trkpt>
      <trkpt lat="44.43583" lon="6.11595">
        <ele>1432.501709</ele>
        <time>2014-07-15T10:08:35Z</time>
      </trkpt>
      <trkpt lat="44.43585" lon="6.11599">
        <ele>1432.9821777</ele>
        <time>2014-07-15T10:08:40Z</time>
      </trkpt>
      <trkpt lat="44.43585" lon="6.1161">
        <ele>1433.9436035</ele>
        <time>2014-07-15T10:08:47Z</time>
      </trkpt>
      <trkpt lat="44.43586" lon="6.11614">
        <ele>1434.4243164</ele>
        <time>2014-07-15T10:08:50Z</time>
      </trkpt>
      <trkpt lat="44.43585" lon="6.11617">
        <ele>1434.4243164</ele>
        <time>2014-07-15T10:08:52Z</time>
      </trkpt>
      <trkpt lat="44.43592" lon="6.11632">
        <ele>1435.8662109</ele>
        <time>2014-07-15T10:09:01Z</time>
      </trkpt>
      <trkpt lat="44.43592" lon="6.11635">
        <ele>1435.8662109</ele>
        <time>2014-07-15T10:09:03Z</time>
      </trkpt>
      <trkpt lat="44.43594" lon="6.11642">
        <ele>1436.347168</ele>
        <time>2014-07-15T10:09:08Z</time>
      </trkpt>
      <trkpt lat="44.43596" lon="6.11647">
        <ele>1436.8276367</ele>
        <time>2014-07-15T10:09:11Z</time>
      </trkpt>
      <trkpt lat="44.43601" lon="6.11654">
        <ele>1437.3083496</ele>
        <time>2014-07-15T10:09:15Z</time>
      </trkpt>
      <trkpt lat="44.43601" lon="6.11657">
        <ele>1437.7890625</ele>
        <time>2014-07-15T10:09:18Z</time>
      </trkpt>
      <trkpt lat="44.43619" lon="6.11682">
        <ele>1439.7116699</ele>
        <time>2014-07-15T10:09:30Z</time>
      </trkpt>
      <trkpt lat="44.4364" lon="6.11707">
        <ele>1442.1149902</ele>
        <time>2014-07-15T10:09:47Z</time>
      </trkpt>
      <trkpt lat="44.43644" lon="6.11713">
        <ele>1443.5568848</ele>
        <time>2014-07-15T10:09:52Z</time>
      </trkpt>
      <trkpt lat="44.43652" lon="6.11733">
        <ele>1445.4794922</ele>
        <time>2014-07-15T10:10:07Z</time>
      </trkpt>
      <trkpt lat="44.43649" lon="6.11741">
        <ele>1446.440918</ele>
        <time>2014-07-15T10:10:29Z</time>
      </trkpt>
      <trkpt lat="44.43656" lon="6.11749">
        <ele>1448.3632813</ele>
        <time>2014-07-15T10:10:59Z</time>
      </trkpt>
      <trkpt lat="44.43661" lon="6.11762">
        <ele>1450.7666016</ele>
        <time>2014-07-15T10:11:25Z</time>
      </trkpt>
      <trkpt lat="44.43655" lon="6.11768">
        <ele>1452.6894531</ele>
        <time>2014-07-15T10:11:56Z</time>
      </trkpt>
      <trkpt lat="44.4365" lon="6.11779">
        <ele>1454.6120605</ele>
        <time>2014-07-15T10:12:19Z</time>
      </trkpt>
      <trkpt lat="44.43649" lon="6.1182">
        <ele>1457.4960938</ele>
        <time>2014-07-15T10:12:41Z</time>
      </trkpt>
      <trkpt lat="44.43646" lon="6.11843">
        <ele>1458.4572754</ele>
        <time>2014-07-15T10:12:51Z</time>
      </trkpt>
      <trkpt lat="44.43648" lon="6.11867">
        <ele>1459.8991699</ele>
        <time>2014-07-15T10:13:02Z</time>
      </trkpt>
      <trkpt lat="44.43648" lon="6.11874">
        <ele>1460.3798828</ele>
        <time>2014-07-15T10:13:07Z</time>
      </trkpt>
      <trkpt lat="44.43648" lon="6.11913">
        <ele>1461.8220215</ele>
        <time>2014-07-15T10:13:23Z</time>
      </trkpt>
      <trkpt lat="44.43646" lon="6.11917">
        <ele>1461.8220215</ele>
        <time>2014-07-15T10:13:25Z</time>
      </trkpt>
      <trkpt lat="44.43645" lon="6.11929">
        <ele>1462.3024902</ele>
        <time>2014-07-15T10:13:31Z</time>
      </trkpt>
      <trkpt lat="44.43636" lon="6.11951">
        <ele>1463.263916</ele>
        <time>2014-07-15T10:13:45Z</time>
      </trkpt>
      <trkpt lat="44.43628" lon="6.11965">
        <ele>1463.7443848</ele>
        <time>2014-07-15T10:13:54Z</time>
      </trkpt>
      <trkpt lat="44.43624" lon="6.11968">
        <ele>1464.2250977</ele>
        <time>2014-07-15T10:13:57Z</time>
      </trkpt>
      <trkpt lat="44.43619" lon="6.11979">
        <ele>1464.7058105</ele>
        <time>2014-07-15T10:14:03Z</time>
      </trkpt>
      <trkpt lat="44.43594" lon="6.12025">
        <ele>1465.1865234</ele>
        <time>2014-07-15T10:14:24Z</time>
      </trkpt>
      <trkpt lat="44.43576" lon="6.12065">
        <ele>1464.2250977</ele>
        <time>2014-07-15T10:14:39Z</time>
      </trkpt>
      <trkpt lat="44.43565" lon="6.12091">
        <ele>1464.2250977</ele>
        <time>2014-07-15T10:14:47Z</time>
      </trkpt>
      <trkpt lat="44.43554" lon="6.12121">
        <ele>1462.3024902</ele>
        <time>2014-07-15T10:14:55Z</time>
      </trkpt>
      <trkpt lat="44.43517" lon="6.12145">
        <ele>1459.8991699</ele>
        <time>2014-07-15T10:15:06Z</time>
      </trkpt>
      <trkpt lat="44.43506" lon="6.12159">
        <ele>1458.9379883</ele>
        <time>2014-07-15T10:15:09Z</time>
      </trkpt>
      <trkpt lat="44.4349" lon="6.12186">
        <ele>1456.0539551</ele>
        <time>2014-07-15T10:15:17Z</time>
      </trkpt>
      <trkpt lat="44.43487" lon="6.12191">
        <ele>1454.6120605</ele>
        <time>2014-07-15T10:15:19Z</time>
      </trkpt>
      <trkpt lat="44.43482" lon="6.12222">
        <ele>1454.1315918</ele>
        <time>2014-07-15T10:15:28Z</time>
      </trkpt>
      <trkpt lat="44.43485" lon="6.12252">
        <ele>1452.2087402</ele>
        <time>2014-07-15T10:15:33Z</time>
      </trkpt>
      <trkpt lat="44.43476" lon="6.12288">
        <ele>1448.8439941</ele>
        <time>2014-07-15T10:15:43Z</time>
      </trkpt>
      <trkpt lat="44.4346" lon="6.12304">
        <ele>1446.440918</ele>
        <time>2014-07-15T10:15:53Z</time>
      </trkpt>
      <trkpt lat="44.43455" lon="6.12309">
        <ele>1446.440918</ele>
        <time>2014-07-15T10:15:56Z</time>
      </trkpt>
      <trkpt lat="44.43447" lon="6.12306">
        <ele>1446.440918</ele>
        <time>2014-07-15T10:16:01Z</time>
      </trkpt>
      <trkpt lat="44.43445" lon="6.12306">
        <ele>1446.440918</ele>
        <time>2014-07-15T10:16:03Z</time>
      </trkpt>
      <trkpt lat="44.43428" lon="6.12298">
        <ele>1448.3632813</ele>
        <time>2014-07-15T10:16:15Z</time>
      </trkpt>
      <trkpt lat="44.43422" lon="6.12292">
        <ele>1448.3632813</ele>
        <time>2014-07-15T10:16:20Z</time>
      </trkpt>
      <trkpt lat="44.43414" lon="6.12289">
        <ele>1449.324707</ele>
        <time>2014-07-15T10:16:26Z</time>
      </trkpt>
      <trkpt lat="44.43411" lon="6.1229">
        <ele>1449.324707</ele>
        <time>2014-07-15T10:16:28Z</time>
      </trkpt>
      <trkpt lat="44.43397" lon="6.1229">
        <ele>1450.2861328</ele>
        <time>2014-07-15T10:16:40Z</time>
      </trkpt>
      <trkpt lat="44.43387" lon="6.12287">
        <ele>1451.7280273</ele>
        <time>2014-07-15T10:16:49Z</time>
      </trkpt>
      <trkpt lat="44.43383" lon="6.12286">
        <ele>1452.2087402</ele>
        <time>2014-07-15T10:16:54Z</time>
      </trkpt>
      <trkpt lat="44.43379" lon="6.12282">
        <ele>1452.6894531</ele>
        <time>2014-07-15T10:16:57Z</time>
      </trkpt>
      <trkpt lat="44.43373" lon="6.12276">
        <ele>1453.6508789</ele>
        <time>2014-07-15T10:17:03Z</time>
      </trkpt>
      <trkpt lat="44.43371" lon="6.12273">
        <ele>1453.6508789</ele>
        <time>2014-07-15T10:17:06Z</time>
      </trkpt>
      <trkpt lat="44.43364" lon="6.12271">
        <ele>1454.1315918</ele>
        <time>2014-07-15T10:17:11Z</time>
      </trkpt>
      <trkpt lat="44.4336" lon="6.12267">
        <ele>1455.0927734</ele>
        <time>2014-07-15T10:17:15Z</time>
      </trkpt>
      <trkpt lat="44.43356" lon="6.12265">
        <ele>1455.0927734</ele>
        <time>2014-07-15T10:17:18Z</time>
      </trkpt>
      <trkpt lat="44.43354" lon="6.12263">
        <ele>1456.0539551</ele>
        <time>2014-07-15T10:17:23Z</time>
      </trkpt>
      <trkpt lat="44.43345" lon="6.1225">
        <ele>1456.534668</ele>
        <time>2014-07-15T10:17:34Z</time>
      </trkpt>
      <trkpt lat="44.43344" lon="6.12246">
        <ele>1457.0153809</ele>
        <time>2014-07-15T10:17:36Z</time>
      </trkpt>
      <trkpt lat="44.43339" lon="6.1224">
        <ele>1457.0153809</ele>
        <time>2014-07-15T10:17:40Z</time>
      </trkpt>
      <trkpt lat="44.43333" lon="6.12234">
        <ele>1457.4960938</ele>
        <time>2014-07-15T10:17:44Z</time>
      </trkpt>
      <trkpt lat="44.43319" lon="6.12241">
        <ele>1458.4572754</ele>
        <time>2014-07-15T10:17:56Z</time>
      </trkpt>
      <trkpt lat="44.4331" lon="6.12256">
        <ele>1459.8991699</ele>
        <time>2014-07-15T10:18:06Z</time>
      </trkpt>
      <trkpt lat="44.43309" lon="6.1226">
        <ele>1460.3798828</ele>
        <time>2014-07-15T10:18:09Z</time>
      </trkpt>
      <trkpt lat="44.43302" lon="6.12264">
        <ele>1460.8605957</ele>
        <time>2014-07-15T10:18:15Z</time>
      </trkpt>
      <trkpt lat="44.43284" lon="6.12257">
        <ele>1462.3024902</ele>
        <time>2014-07-15T10:18:28Z</time>
      </trkpt>
      <trkpt lat="44.43274" lon="6.12252">
        <ele>1462.7832031</ele>
        <time>2014-07-15T10:18:36Z</time>
      </trkpt>
      <trkpt lat="44.43271" lon="6.12251">
        <ele>1463.7443848</ele>
        <time>2014-07-15T10:18:39Z</time>
      </trkpt>
      <trkpt lat="44.43265" lon="6.12252">
        <ele>1464.2250977</ele>
        <time>2014-07-15T10:18:45Z</time>
      </trkpt>
      <trkpt lat="44.43254" lon="6.12251">
        <ele>1464.7058105</ele>
        <time>2014-07-15T10:18:54Z</time>
      </trkpt>
      <trkpt lat="44.4325" lon="6.12253">
        <ele>1465.1865234</ele>
        <time>2014-07-15T10:18:58Z</time>
      </trkpt>
      <trkpt lat="44.43242" lon="6.1227">
        <ele>1466.1477051</ele>
        <time>2014-07-15T10:19:09Z</time>
      </trkpt>
      <trkpt lat="44.43229" lon="6.12282">
        <ele>1467.1091309</ele>
        <time>2014-07-15T10:19:21Z</time>
      </trkpt>
      <trkpt lat="44.43225" lon="6.12282">
        <ele>1467.1091309</ele>
        <time>2014-07-15T10:19:24Z</time>
      </trkpt>
      <trkpt lat="44.4322" lon="6.12286">
        <ele>1467.5895996</ele>
        <time>2014-07-15T10:19:29Z</time>
      </trkpt>
      <trkpt lat="44.43203" lon="6.12291">
        <ele>1469.0319824</ele>
        <time>2014-07-15T10:19:43Z</time>
      </trkpt>
      <trkpt lat="44.4319" lon="6.12301">
        <ele>1469.5126953</ele>
        <time>2014-07-15T10:19:54Z</time>
      </trkpt>
      <trkpt lat="44.43181" lon="6.12317">
        <ele>1471.4350586</ele>
        <time>2014-07-15T10:20:07Z</time>
      </trkpt>
      <trkpt lat="44.43179" lon="6.12317">
        <ele>1471.4350586</ele>
        <time>2014-07-15T10:20:08Z</time>
      </trkpt>
      <trkpt lat="44.43177" lon="6.12319">
        <ele>1471.4350586</ele>
        <time>2014-07-15T10:20:11Z</time>
      </trkpt>
      <trkpt lat="44.43167" lon="6.12327">
        <ele>1472.3964844</ele>
        <time>2014-07-15T10:20:24Z</time>
      </trkpt>
      <trkpt lat="44.43155" lon="6.1234">
        <ele>1473.8383789</ele>
        <time>2014-07-15T10:20:34Z</time>
      </trkpt>
      <trkpt lat="44.43153" lon="6.12341">
        <ele>1474.3190918</ele>
        <time>2014-07-15T10:20:36Z</time>
      </trkpt>
      <trkpt lat="44.43148" lon="6.12341">
        <ele>1475.2802734</ele>
        <time>2014-07-15T10:20:43Z</time>
      </trkpt>
      <trkpt lat="44.43154" lon="6.12341">
        <ele>1475.7609863</ele>
        <time>2014-07-15T10:20:53Z</time>
      </trkpt>
      <trkpt lat="44.43156" lon="6.12339">
        <ele>1476.7224121</ele>
        <time>2014-07-15T10:20:56Z</time>
      </trkpt>
      <trkpt lat="44.43167" lon="6.12326">
        <ele>1477.203125</ele>
        <time>2014-07-15T10:21:07Z</time>
      </trkpt>
      <trkpt lat="44.43171" lon="6.12318">
        <ele>1477.6835938</ele>
        <time>2014-07-15T10:21:12Z</time>
      </trkpt>
      <trkpt lat="44.43174" lon="6.12308">
        <ele>1478.1643066</ele>
        <time>2014-07-15T10:21:19Z</time>
      </trkpt>
      <trkpt lat="44.43176" lon="6.12305">
        <ele>1478.6450195</ele>
        <time>2014-07-15T10:21:21Z</time>
      </trkpt>
      <trkpt lat="44.43185" lon="6.12297">
        <ele>1478.6450195</ele>
        <time>2014-07-15T10:21:26Z</time>
      </trkpt>
      <trkpt lat="44.43187" lon="6.12289">
        <ele>1479.6062012</ele>
        <time>2014-07-15T10:21:31Z</time>
      </trkpt>
      <trkpt lat="44.43194" lon="6.12273">
        <ele>1480.567627</ele>
        <time>2014-07-15T10:21:44Z</time>
      </trkpt>
      <trkpt lat="44.43199" lon="6.12256">
        <ele>1482.4902344</ele>
        <time>2014-07-15T10:21:57Z</time>
      </trkpt>
      <trkpt lat="44.43216" lon="6.12236">
        <ele>1483.9321289</ele>
        <time>2014-07-15T10:22:12Z</time>
      </trkpt>
      <trkpt lat="44.43216" lon="6.12234">
        <ele>1483.9321289</ele>
        <time>2014-07-15T10:22:13Z</time>
      </trkpt>
      <trkpt lat="44.43217" lon="6.12227">
        <ele>1484.4130859</ele>
        <time>2014-07-15T10:22:17Z</time>
      </trkpt>
      <trkpt lat="44.43218" lon="6.12223">
        <ele>1484.8937988</ele>
        <time>2014-07-15T10:22:21Z</time>
      </trkpt>
      <trkpt lat="44.43216" lon="6.12213">
        <ele>1485.8549805</ele>
        <time>2014-07-15T10:22:27Z</time>
      </trkpt>
      <trkpt lat="44.43223" lon="6.12194">
        <ele>1487.296875</ele>
        <time>2014-07-15T10:22:39Z</time>
      </trkpt>
      <trkpt lat="44.43228" lon="6.12192">
        <ele>1487.296875</ele>
        <time>2014-07-15T10:22:42Z</time>
      </trkpt>
      <trkpt lat="44.4324" lon="6.12189">
        <ele>1488.2583008</ele>
        <time>2014-07-15T10:22:52Z</time>
      </trkpt>
      <trkpt lat="44.43258" lon="6.12178">
        <ele>1489.2194824</ele>
        <time>2014-07-15T10:23:08Z</time>
      </trkpt>
      <trkpt lat="44.43279" lon="6.12162">
        <ele>1491.6228027</ele>
        <time>2014-07-15T10:23:26Z</time>
      </trkpt>
      <trkpt lat="44.43281" lon="6.1216">
        <ele>1491.6228027</ele>
        <time>2014-07-15T10:23:27Z</time>
      </trkpt>
      <trkpt lat="44.43288" lon="6.12156">
        <ele>1492.5842285</ele>
        <time>2014-07-15T10:23:33Z</time>
      </trkpt>
      <trkpt lat="44.43291" lon="6.12154">
        <ele>1492.5842285</ele>
        <time>2014-07-15T10:23:35Z</time>
      </trkpt>
      <trkpt lat="44.43305" lon="6.12141">
        <ele>1494.5065918</ele>
        <time>2014-07-15T10:23:52Z</time>
      </trkpt>
      <trkpt lat="44.43316" lon="6.12134">
        <ele>1494.9873047</ele>
        <time>2014-07-15T10:23:58Z</time>
      </trkpt>
      <trkpt lat="44.43326" lon="6.12123">
        <ele>1496.4294434</ele>
        <time>2014-07-15T10:24:08Z</time>
      </trkpt>
      <trkpt lat="44.43341" lon="6.1211">
        <ele>1497.8713379</ele>
        <time>2014-07-15T10:24:24Z</time>
      </trkpt>
      <trkpt lat="44.4335" lon="6.12097">
        <ele>1498.8325195</ele>
        <time>2014-07-15T10:24:35Z</time>
      </trkpt>
      <trkpt lat="44.4336" lon="6.12101">
        <ele>1499.3132324</ele>
        <time>2014-07-15T10:24:41Z</time>
      </trkpt>
      <trkpt lat="44.43364" lon="6.12102">
        <ele>1499.3132324</ele>
        <time>2014-07-15T10:24:44Z</time>
      </trkpt>
      <trkpt lat="44.43377" lon="6.12117">
        <ele>1500.2749023</ele>
        <time>2014-07-15T10:24:56Z</time>
      </trkpt>
      <trkpt lat="44.43385" lon="6.12122">
        <ele>1500.2749023</ele>
        <time>2014-07-15T10:25:01Z</time>
      </trkpt>
      <trkpt lat="44.43391" lon="6.12125">
        <ele>1500.7553711</ele>
        <time>2014-07-15T10:25:06Z</time>
      </trkpt>
      <trkpt lat="44.43399" lon="6.12132">
        <ele>1501.7167969</ele>
        <time>2014-07-15T10:25:13Z</time>
      </trkpt>
      <trkpt lat="44.43407" lon="6.12129">
        <ele>1502.1972656</ele>
        <time>2014-07-15T10:25:18Z</time>
      </trkpt>
      <trkpt lat="44.43408" lon="6.12126">
        <ele>1502.1972656</ele>
        <time>2014-07-15T10:25:20Z</time>
      </trkpt>
      <trkpt lat="44.43405" lon="6.1212">
        <ele>1502.6779785</ele>
        <time>2014-07-15T10:25:24Z</time>
      </trkpt>
      <trkpt lat="44.43385" lon="6.12109">
        <ele>1503.6394043</ele>
        <time>2014-07-15T10:25:37Z</time>
      </trkpt>
      <trkpt lat="44.43377" lon="6.12101">
        <ele>1504.6005859</ele>
        <time>2014-07-15T10:25:43Z</time>
      </trkpt>
      <trkpt lat="44.43364" lon="6.12089">
        <ele>1506.0424805</ele>
        <time>2014-07-15T10:25:56Z</time>
      </trkpt>
      <trkpt lat="44.43361" lon="6.12083">
        <ele>1506.5231934</ele>
        <time>2014-07-15T10:26:01Z</time>
      </trkpt>
      <trkpt lat="44.43344" lon="6.12071">
        <ele>1508.4458008</ele>
        <time>2014-07-15T10:26:16Z</time>
      </trkpt>
      <trkpt lat="44.43344" lon="6.12071">
        <ele>1508.4458008</ele>
        <time>2014-07-15T10:26:17Z</time>
      </trkpt>
      <trkpt lat="44.43337" lon="6.12077">
        <ele>1508.9265137</ele>
        <time>2014-07-15T10:26:23Z</time>
      </trkpt>
      <trkpt lat="44.43334" lon="6.12084">
        <ele>1509.4072266</ele>
        <time>2014-07-15T10:26:27Z</time>
      </trkpt>
      <trkpt lat="44.43329" lon="6.12086">
        <ele>1509.4072266</ele>
        <time>2014-07-15T10:26:30Z</time>
      </trkpt>
      <trkpt lat="44.43326" lon="6.12087">
        <ele>1508.9265137</ele>
        <time>2014-07-15T10:26:32Z</time>
      </trkpt>
      <trkpt lat="44.43324" lon="6.12088">
        <ele>1509.4072266</ele>
        <time>2014-07-15T10:26:34Z</time>
      </trkpt>
      <trkpt lat="44.43312" lon="6.12089">
        <ele>1510.8491211</ele>
        <time>2014-07-15T10:26:41Z</time>
      </trkpt>
      <trkpt lat="44.43308" lon="6.12084">
        <ele>1511.329834</ele>
        <time>2014-07-15T10:26:45Z</time>
      </trkpt>
      <trkpt lat="44.43302" lon="6.12088">
        <ele>1511.8105469</ele>
        <time>2014-07-15T10:26:49Z</time>
      </trkpt>
      <trkpt lat="44.43295" lon="6.12087">
        <ele>1512.7717285</ele>
        <time>2014-07-15T10:26:55Z</time>
      </trkpt>
      <trkpt lat="44.43285" lon="6.12091">
        <ele>1513.2524414</ele>
        <time>2014-07-15T10:27:01Z</time>
      </trkpt>
      <trkpt lat="44.43277" lon="6.12091">
        <ele>1514.213623</ele>
        <time>2014-07-15T10:27:09Z</time>
      </trkpt>
      <trkpt lat="44.43269" lon="6.12092">
        <ele>1514.6943359</ele>
        <time>2014-07-15T10:27:15Z</time>
      </trkpt>
      <trkpt lat="44.43254" lon="6.12098">
        <ele>1516.1364746</ele>
        <time>2014-07-15T10:27:27Z</time>
      </trkpt>
      <trkpt lat="44.43249" lon="6.12098">
        <ele>1516.1364746</ele>
        <time>2014-07-15T10:27:31Z</time>
      </trkpt>
      <trkpt lat="44.43233" lon="6.12099">
        <ele>1518.059082</ele>
        <time>2014-07-15T10:27:43Z</time>
      </trkpt>
      <trkpt lat="44.43226" lon="6.121">
        <ele>1518.059082</ele>
        <time>2014-07-15T10:27:49Z</time>
      </trkpt>
      <trkpt lat="44.43213" lon="6.12109">
        <ele>1519.5012207</ele>
        <time>2014-07-15T10:28:00Z</time>
      </trkpt>
      <trkpt lat="44.43203" lon="6.12108">
        <ele>1520.4624023</ele>
        <time>2014-07-15T10:28:08Z</time>
      </trkpt>
      <trkpt lat="44.43187" lon="6.12112">
        <ele>1520.9431152</ele>
        <time>2014-07-15T10:28:20Z</time>
      </trkpt>
      <trkpt lat="44.43177" lon="6.12112">
        <ele>1522.3850098</ele>
        <time>2014-07-15T10:28:32Z</time>
      </trkpt>
      <trkpt lat="44.4317" lon="6.12117">
        <ele>1522.8657227</ele>
        <time>2014-07-15T10:28:38Z</time>
      </trkpt>
      <trkpt lat="44.43156" lon="6.12141">
        <ele>1524.3076172</ele>
        <time>2014-07-15T10:28:56Z</time>
      </trkpt>
      <trkpt lat="44.43143" lon="6.12161">
        <ele>1525.7495117</ele>
        <time>2014-07-15T10:29:09Z</time>
      </trkpt>
      <trkpt lat="44.43138" lon="6.12176">
        <ele>1526.7109375</ele>
        <time>2014-07-15T10:29:22Z</time>
      </trkpt>
      <trkpt lat="44.43127" lon="6.12184">
        <ele>1527.6721191</ele>
        <time>2014-07-15T10:29:30Z</time>
      </trkpt>
      <trkpt lat="44.43117" lon="6.122">
        <ele>1529.1140137</ele>
        <time>2014-07-15T10:29:43Z</time>
      </trkpt>
      <trkpt lat="44.43102" lon="6.12212">
        <ele>1530.0754395</ele>
        <time>2014-07-15T10:30:00Z</time>
      </trkpt>
      <trkpt lat="44.4309" lon="6.12232">
        <ele>1531.517334</ele>
        <time>2014-07-15T10:30:14Z</time>
      </trkpt>
      <trkpt lat="44.43083" lon="6.12247">
        <ele>1531.9980469</ele>
        <time>2014-07-15T10:30:21Z</time>
      </trkpt>
      <trkpt lat="44.43081" lon="6.12255">
        <ele>1532.4790039</ele>
        <time>2014-07-15T10:30:39Z</time>
      </trkpt>
      <trkpt lat="44.43085" lon="6.12257">
        <ele>1532.4790039</ele>
        <time>2014-07-15T10:30:54Z</time>
      </trkpt>
      <trkpt lat="44.43084" lon="6.12257">
        <ele>1531.0368652</ele>
        <time>2014-07-15T10:31:25Z</time>
      </trkpt>
      <trkpt lat="44.4308" lon="6.12267">
        <ele>1531.9980469</ele>
        <time>2014-07-15T10:31:36Z</time>
      </trkpt>
      <trkpt lat="44.4308" lon="6.12269">
        <ele>1532.4790039</ele>
        <time>2014-07-15T10:31:57Z</time>
      </trkpt>
      <trkpt lat="44.43081" lon="6.12268">
        <ele>1531.9980469</ele>
        <time>2014-07-15T10:32:18Z</time>
      </trkpt>
      <trkpt lat="44.43085" lon="6.12268">
        <ele>1531.0368652</ele>
        <time>2014-07-15T10:33:13Z</time>
      </trkpt>
      <trkpt lat="44.43093" lon="6.12254">
        <ele>1532.4790039</ele>
        <time>2014-07-15T10:33:33Z</time>
      </trkpt>
      <trkpt lat="44.43101" lon="6.1224">
        <ele>1533.4401855</ele>
        <time>2014-07-15T10:33:44Z</time>
      </trkpt>
      <trkpt lat="44.43103" lon="6.12235">
        <ele>1533.4401855</ele>
        <time>2014-07-15T10:33:47Z</time>
      </trkpt>
      <trkpt lat="44.43112" lon="6.12223">
        <ele>1534.4016113</ele>
        <time>2014-07-15T10:33:54Z</time>
      </trkpt>
      <trkpt lat="44.43114" lon="6.12205">
        <ele>1535.362793</ele>
        <time>2014-07-15T10:34:06Z</time>
      </trkpt>
      <trkpt lat="44.43115" lon="6.12196">
        <ele>1535.362793</ele>
        <time>2014-07-15T10:34:10Z</time>
      </trkpt>
      <trkpt lat="44.43115" lon="6.12181">
        <ele>1536.3242188</ele>
        <time>2014-07-15T10:34:17Z</time>
      </trkpt>
      <trkpt lat="44.43114" lon="6.12174">
        <ele>1536.8046875</ele>
        <time>2014-07-15T10:34:22Z</time>
      </trkpt>
      <trkpt lat="44.43116" lon="6.12169">
        <ele>1537.2854004</ele>
        <time>2014-07-15T10:34:25Z</time>
      </trkpt>
      <trkpt lat="44.43117" lon="6.12153">
        <ele>1538.2468262</ele>
        <time>2014-07-15T10:34:34Z</time>
      </trkpt>
      <trkpt lat="44.43117" lon="6.1215">
        <ele>1538.2468262</ele>
        <time>2014-07-15T10:34:36Z</time>
      </trkpt>
      <trkpt lat="44.43119" lon="6.12144">
        <ele>1538.2468262</ele>
        <time>2014-07-15T10:34:39Z</time>
      </trkpt>
      <trkpt lat="44.43122" lon="6.12136">
        <ele>1538.7275391</ele>
        <time>2014-07-15T10:34:44Z</time>
      </trkpt>
      <trkpt lat="44.43123" lon="6.12133">
        <ele>1539.2080078</ele>
        <time>2014-07-15T10:34:46Z</time>
      </trkpt>
      <trkpt lat="44.43124" lon="6.12128">
        <ele>1539.2080078</ele>
        <time>2014-07-15T10:34:49Z</time>
      </trkpt>
      <trkpt lat="44.43125" lon="6.12123">
        <ele>1539.6887207</ele>
        <time>2014-07-15T10:34:53Z</time>
      </trkpt>
      <trkpt lat="44.43126" lon="6.12118">
        <ele>1540.1694336</ele>
        <time>2014-07-15T10:34:56Z</time>
      </trkpt>
      <trkpt lat="44.43129" lon="6.1211">
        <ele>1540.6499023</ele>
        <time>2014-07-15T10:35:01Z</time>
      </trkpt>
      <trkpt lat="44.43131" lon="6.12103">
        <ele>1541.1306152</ele>
        <time>2014-07-15T10:35:05Z</time>
      </trkpt>
      <trkpt lat="44.4314" lon="6.12094">
        <ele>1541.6113281</ele>
        <time>2014-07-15T10:35:14Z</time>
      </trkpt>
      <trkpt lat="44.4315" lon="6.12078">
        <ele>1543.5339355</ele>
        <time>2014-07-15T10:35:28Z</time>
      </trkpt>
      <trkpt lat="44.4317" lon="6.12057">
        <ele>1545.456543</ele>
        <time>2014-07-15T10:35:47Z</time>
      </trkpt>
      <trkpt lat="44.43184" lon="6.1205">
        <ele>1547.3791504</ele>
        <time>2014-07-15T10:36:00Z</time>
      </trkpt>
      <trkpt lat="44.43197" lon="6.12046">
        <ele>1548.8212891</ele>
        <time>2014-07-15T10:36:20Z</time>
      </trkpt>
      <trkpt lat="44.43202" lon="6.12043">
        <ele>1548.8212891</ele>
        <time>2014-07-15T10:36:39Z</time>
      </trkpt>
      <trkpt lat="44.43215" lon="6.12035">
        <ele>1549.7827148</ele>
        <time>2014-07-15T10:36:54Z</time>
      </trkpt>
      <trkpt lat="44.43233" lon="6.12018">
        <ele>1551.7053223</ele>
        <time>2014-07-15T10:37:11Z</time>
      </trkpt>
      <trkpt lat="44.43244" lon="6.12009">
        <ele>1553.1472168</ele>
        <time>2014-07-15T10:37:21Z</time>
      </trkpt>
      <trkpt lat="44.43252" lon="6.12">
        <ele>1553.6279297</ele>
        <time>2014-07-15T10:37:27Z</time>
      </trkpt>
      <trkpt lat="44.43254" lon="6.11987">
        <ele>1554.1086426</ele>
        <time>2014-07-15T10:37:33Z</time>
      </trkpt>
      <trkpt lat="44.43251" lon="6.11978">
        <ele>1554.5891113</ele>
        <time>2014-07-15T10:37:37Z</time>
      </trkpt>
      <trkpt lat="44.43244" lon="6.11966">
        <ele>1555.5505371</ele>
        <time>2014-07-15T10:37:45Z</time>
      </trkpt>
      <trkpt lat="44.43244" lon="6.11958">
        <ele>1556.0310059</ele>
        <time>2014-07-15T10:37:50Z</time>
      </trkpt>
      <trkpt lat="44.43245" lon="6.11946">
        <ele>1556.5117188</ele>
        <time>2014-07-15T10:37:56Z</time>
      </trkpt>
      <trkpt lat="44.43247" lon="6.11938">
        <ele>1556.9924316</ele>
        <time>2014-07-15T10:38:00Z</time>
      </trkpt>
      <trkpt lat="44.43245" lon="6.11928">
        <ele>1557.9538574</ele>
        <time>2014-07-15T10:38:07Z</time>
      </trkpt>
      <trkpt lat="44.43232" lon="6.11916">
        <ele>1558.4343262</ele>
        <time>2014-07-15T10:38:13Z</time>
      </trkpt>
      <trkpt lat="44.43227" lon="6.11909">
        <ele>1558.9150391</ele>
        <time>2014-07-15T10:38:17Z</time>
      </trkpt>
      <trkpt lat="44.43224" lon="6.11904">
        <ele>1558.9150391</ele>
        <time>2014-07-15T10:38:21Z</time>
      </trkpt>
      <trkpt lat="44.43222" lon="6.11902">
        <ele>1559.395752</ele>
        <time>2014-07-15T10:38:23Z</time>
      </trkpt>
      <trkpt lat="44.43205" lon="6.11905">
        <ele>1560.8376465</ele>
        <time>2014-07-15T10:38:40Z</time>
      </trkpt>
      <trkpt lat="44.43167" lon="6.11907">
        <ele>1563.2409668</ele>
        <time>2014-07-15T10:39:06Z</time>
      </trkpt>
      <trkpt lat="44.43158" lon="6.11906">
        <ele>1564.2023926</ele>
        <time>2014-07-15T10:39:15Z</time>
      </trkpt>
      <trkpt lat="44.43152" lon="6.1191">
        <ele>1564.6831055</ele>
        <time>2014-07-15T10:39:20Z</time>
      </trkpt>
      <trkpt lat="44.43137" lon="6.11912">
        <ele>1565.6445313</ele>
        <time>2014-07-15T10:39:34Z</time>
      </trkpt>
      <trkpt lat="44.43104" lon="6.11921">
        <ele>1568.0476074</ele>
        <time>2014-07-15T10:39:56Z</time>
      </trkpt>
      <trkpt lat="44.43072" lon="6.11919">
        <ele>1570.4509277</ele>
        <time>2014-07-15T10:40:23Z</time>
      </trkpt>
      <trkpt lat="44.43046" lon="6.11936">
        <ele>1572.854248</ele>
        <time>2014-07-15T10:40:50Z</time>
      </trkpt>
      <trkpt lat="44.43017" lon="6.11969">
        <ele>1574.7768555</ele>
        <time>2014-07-15T10:41:15Z</time>
      </trkpt>
      <trkpt lat="44.43" lon="6.12005">
        <ele>1575.7380371</ele>
        <time>2014-07-15T10:41:30Z</time>
      </trkpt>
      <trkpt lat="44.42996" lon="6.12014">
        <ele>1576.6994629</ele>
        <time>2014-07-15T10:41:44Z</time>
      </trkpt>
      <trkpt lat="44.42998" lon="6.12026">
        <ele>1576.6994629</ele>
        <time>2014-07-15T10:42:19Z</time>
      </trkpt>
      <trkpt lat="44.42984" lon="6.12031">
        <ele>1576.21875</ele>
        <time>2014-07-15T10:42:44Z</time>
      </trkpt>
      <trkpt lat="44.42981" lon="6.12026">
        <ele>1575.7380371</ele>
        <time>2014-07-15T10:42:51Z</time>
      </trkpt>
      <trkpt lat="44.42969" lon="6.12017">
        <ele>1574.7768555</ele>
        <time>2014-07-15T10:43:16Z</time>
      </trkpt>
      <trkpt lat="44.42963" lon="6.12017">
        <ele>1574.7768555</ele>
        <time>2014-07-15T10:43:20Z</time>
      </trkpt>
      <trkpt lat="44.42956" lon="6.12009">
        <ele>1573.8154297</ele>
        <time>2014-07-15T10:43:39Z</time>
      </trkpt>
      <trkpt lat="44.42959" lon="6.12004">
        <ele>1573.8154297</ele>
        <time>2014-07-15T10:43:57Z</time>
      </trkpt>
      <trkpt lat="44.42965" lon="6.12001">
        <ele>1574.2961426</ele>
        <time>2014-07-15T10:44:11Z</time>
      </trkpt>
      <trkpt lat="44.42965" lon="6.11999">
        <ele>1574.2961426</ele>
        <time>2014-07-15T10:44:26Z</time>
      </trkpt>
      <trkpt lat="44.42962" lon="6.12001">
        <ele>1573.8154297</ele>
        <time>2014-07-15T10:44:41Z</time>
      </trkpt>
      <trkpt lat="44.42956" lon="6.12009">
        <ele>1573.8154297</ele>
        <time>2014-07-15T10:44:57Z</time>
      </trkpt>
      <trkpt lat="44.42956" lon="6.12008">
        <ele>1572.854248</ele>
        <time>2014-07-15T10:45:07Z</time>
      </trkpt>
      <trkpt lat="44.42956" lon="6.12008">
        <ele>1574.7768555</ele>
        <time>2014-07-15T10:47:06Z</time>
      </trkpt>
      <trkpt lat="44.42957" lon="6.12008">
        <ele>1573.3349609</ele>
        <time>2014-07-15T10:47:09Z</time>
      </trkpt>
      <trkpt lat="44.42957" lon="6.12008">
        <ele>1574.7768555</ele>
        <time>2014-07-15T10:47:11Z</time>
      </trkpt>
      <trkpt lat="44.42957" lon="6.12008">
        <ele>1573.3349609</ele>
        <time>2014-07-15T10:47:15Z</time>
      </trkpt>
      <trkpt lat="44.42957" lon="6.12008">
        <ele>1572.854248</ele>
        <time>2014-07-15T10:47:40Z</time>
      </trkpt>
      <trkpt lat="44.42957" lon="6.12008">
        <ele>1574.2961426</ele>
        <time>2014-07-15T10:47:42Z</time>
      </trkpt>
      <trkpt lat="44.42958" lon="6.12008">
        <ele>1575.7380371</ele>
        <time>2014-07-15T10:48:01Z</time>
      </trkpt>
      <trkpt lat="44.42956" lon="6.12014">
        <ele>1573.8154297</ele>
        <time>2014-07-15T10:48:18Z</time>
      </trkpt>
      <trkpt lat="44.42947" lon="6.12011">
        <ele>1573.8154297</ele>
        <time>2014-07-15T10:48:28Z</time>
      </trkpt>
      <trkpt lat="44.42945" lon="6.12006">
        <ele>1572.854248</ele>
        <time>2014-07-15T10:48:41Z</time>
      </trkpt>
      <trkpt lat="44.42945" lon="6.12006">
        <ele>1570.9316406</ele>
        <time>2014-07-15T10:48:43Z</time>
      </trkpt>
      <trkpt lat="44.42946" lon="6.12006">
        <ele>1571.8928223</ele>
        <time>2014-07-15T10:50:33Z</time>
      </trkpt>
      <trkpt lat="44.42947" lon="6.12006">
        <ele>1575.2573242</ele>
        <time>2014-07-15T10:53:51Z</time>
      </trkpt>
      <trkpt lat="44.42947" lon="6.12005">
        <ele>1574.7768555</ele>
        <time>2014-07-15T10:59:40Z</time>
      </trkpt>
      <trkpt lat="44.42947" lon="6.12006">
        <ele>1575.7380371</ele>
        <time>2014-07-15T11:00:18Z</time>
      </trkpt>
      <trkpt lat="44.42954" lon="6.12007">
        <ele>1577.6606445</ele>
        <time>2014-07-15T11:00:31Z</time>
      </trkpt>
      <trkpt lat="44.42966" lon="6.12003">
        <ele>1578.6220703</ele>
        <time>2014-07-15T11:00:48Z</time>
      </trkpt>
      <trkpt lat="44.42966" lon="6.12">
        <ele>1578.1413574</ele>
        <time>2014-07-15T11:01:08Z</time>
      </trkpt>
      <trkpt lat="44.4297" lon="6.12002">
        <ele>1578.6220703</ele>
        <time>2014-07-15T11:01:16Z</time>
      </trkpt>
      <trkpt lat="44.42975" lon="6.12007">
        <ele>1579.1025391</ele>
        <time>2014-07-15T11:01:22Z</time>
      </trkpt>
      <trkpt lat="44.42977" lon="6.12013">
        <ele>1579.583252</ele>
        <time>2014-07-15T11:01:27Z</time>
      </trkpt>
      <trkpt lat="44.42978" lon="6.12014">
        <ele>1579.583252</ele>
        <time>2014-07-15T11:01:30Z</time>
      </trkpt>
      <trkpt lat="44.42982" lon="6.12014">
        <ele>1579.583252</ele>
        <time>2014-07-15T11:01:35Z</time>
      </trkpt>
      <trkpt lat="44.42986" lon="6.12007">
        <ele>1580.064209</ele>
        <time>2014-07-15T11:01:44Z</time>
      </trkpt>
      <trkpt lat="44.42994" lon="6.12001">
        <ele>1580.064209</ele>
        <time>2014-07-15T11:01:51Z</time>
      </trkpt>
      <trkpt lat="44.43009" lon="6.11995">
        <ele>1580.064209</ele>
        <time>2014-07-15T11:02:04Z</time>
      </trkpt>
      <trkpt lat="44.43011" lon="6.11993">
        <ele>1580.064209</ele>
        <time>2014-07-15T11:02:07Z</time>
      </trkpt>
      <trkpt lat="44.43014" lon="6.11988">
        <ele>1579.583252</ele>
        <time>2014-07-15T11:02:11Z</time>
      </trkpt>
      <trkpt lat="44.43014" lon="6.11986">
        <ele>1580.064209</ele>
        <time>2014-07-15T11:02:13Z</time>
      </trkpt>
      <trkpt lat="44.43017" lon="6.11984">
        <ele>1580.064209</ele>
        <time>2014-07-15T11:02:16Z</time>
      </trkpt>
      <trkpt lat="44.43024" lon="6.11979">
        <ele>1579.583252</ele>
        <time>2014-07-15T11:02:30Z</time>
      </trkpt>
      <trkpt lat="44.43031" lon="6.11967">
        <ele>1580.064209</ele>
        <time>2014-07-15T11:02:41Z</time>
      </trkpt>
      <trkpt lat="44.43034" lon="6.11961">
        <ele>1580.064209</ele>
        <time>2014-07-15T11:02:46Z</time>
      </trkpt>
      <trkpt lat="44.43033" lon="6.11968">
        <ele>1580.5449219</ele>
        <time>2014-07-15T11:03:01Z</time>
      </trkpt>
      <trkpt lat="44.43044" lon="6.11949">
        <ele>1580.5449219</ele>
        <time>2014-07-15T11:03:17Z</time>
      </trkpt>
      <trkpt lat="44.43054" lon="6.11945">
        <ele>1579.583252</ele>
        <time>2014-07-15T11:03:33Z</time>
      </trkpt>
      <trkpt lat="44.43065" lon="6.11951">
        <ele>1579.583252</ele>
        <time>2014-07-15T11:03:59Z</time>
      </trkpt>
      <trkpt lat="44.43064" lon="6.11944">
        <ele>1579.1025391</ele>
        <time>2014-07-15T11:04:16Z</time>
      </trkpt>
      <trkpt lat="44.43065" lon="6.11937">
        <ele>1580.064209</ele>
        <time>2014-07-15T11:04:56Z</time>
      </trkpt>
      <trkpt lat="44.43064" lon="6.11938">
        <ele>1580.064209</ele>
        <time>2014-07-15T11:04:58Z</time>
      </trkpt>
      <trkpt lat="44.43065" lon="6.11944">
        <ele>1581.5061035</ele>
        <time>2014-07-15T11:05:08Z</time>
      </trkpt>
      <trkpt lat="44.43066" lon="6.11948">
        <ele>1581.5061035</ele>
        <time>2014-07-15T11:05:24Z</time>
      </trkpt>
      <trkpt lat="44.43067" lon="6.11946">
        <ele>1581.5061035</ele>
        <time>2014-07-15T11:05:26Z</time>
      </trkpt>
      <trkpt lat="44.43074" lon="6.11942">
        <ele>1581.5061035</ele>
        <time>2014-07-15T11:05:38Z</time>
      </trkpt>
      <trkpt lat="44.4308" lon="6.11938">
        <ele>1581.5061035</ele>
        <time>2014-07-15T11:05:41Z</time>
      </trkpt>
      <trkpt lat="44.43114" lon="6.11939">
        <ele>1578.6220703</ele>
        <time>2014-07-15T11:05:54Z</time>
      </trkpt>
      <trkpt lat="44.43139" lon="6.11934">
        <ele>1576.6994629</ele>
        <time>2014-07-15T11:06:04Z</time>
      </trkpt>
      <trkpt lat="44.43141" lon="6.11933">
        <ele>1577.1801758</ele>
        <time>2014-07-15T11:06:17Z</time>
      </trkpt>
      <trkpt lat="44.43142" lon="6.11933">
        <ele>1577.1801758</ele>
        <time>2014-07-15T11:06:18Z</time>
      </trkpt>
      <trkpt lat="44.43163" lon="6.11934">
        <ele>1575.2573242</ele>
        <time>2014-07-15T11:06:29Z</time>
      </trkpt>
      <trkpt lat="44.432" lon="6.11922">
        <ele>1572.854248</ele>
        <time>2014-07-15T11:06:40Z</time>
      </trkpt>
      <trkpt lat="44.43217" lon="6.11917">
        <ele>1571.4121094</ele>
        <time>2014-07-15T11:06:46Z</time>
      </trkpt>
      <trkpt lat="44.43237" lon="6.11918">
        <ele>1569.9702148</ele>
        <time>2014-07-15T11:06:58Z</time>
      </trkpt>
      <trkpt lat="44.43242" lon="6.1192">
        <ele>1569.4897461</ele>
        <time>2014-07-15T11:07:14Z</time>
      </trkpt>
      <trkpt lat="44.43237" lon="6.11922">
        <ele>1569.9702148</ele>
        <time>2014-07-15T11:07:31Z</time>
      </trkpt>
      <trkpt lat="44.43237" lon="6.11923">
        <ele>1569.9702148</ele>
        <time>2014-07-15T11:07:33Z</time>
      </trkpt>
      <trkpt lat="44.43249" lon="6.11941">
        <ele>1569.4897461</ele>
        <time>2014-07-15T11:07:39Z</time>
      </trkpt>
      <trkpt lat="44.43249" lon="6.11959">
        <ele>1568.5283203</ele>
        <time>2014-07-15T11:07:43Z</time>
      </trkpt>
      <trkpt lat="44.43255" lon="6.11979">
        <ele>1567.5668945</ele>
        <time>2014-07-15T11:07:48Z</time>
      </trkpt>
      <trkpt lat="44.43251" lon="6.12022">
        <ele>1565.1638184</ele>
        <time>2014-07-15T11:08:03Z</time>
      </trkpt>
      <trkpt lat="44.43222" lon="6.1204">
        <ele>1562.279541</ele>
        <time>2014-07-15T11:08:15Z</time>
      </trkpt>
      <trkpt lat="44.43194" lon="6.12053">
        <ele>1559.395752</ele>
        <time>2014-07-15T11:08:25Z</time>
      </trkpt>
      <trkpt lat="44.4317" lon="6.12082">
        <ele>1556.9924316</ele>
        <time>2014-07-15T11:08:34Z</time>
      </trkpt>
      <trkpt lat="44.43165" lon="6.12088">
        <ele>1556.5117188</ele>
        <time>2014-07-15T11:08:36Z</time>
      </trkpt>
      <trkpt lat="44.43149" lon="6.12117">
        <ele>1553.6279297</ele>
        <time>2014-07-15T11:08:45Z</time>
      </trkpt>
      <trkpt lat="44.43147" lon="6.1214">
        <ele>1553.1472168</ele>
        <time>2014-07-15T11:08:50Z</time>
      </trkpt>
      <trkpt lat="44.43143" lon="6.12167">
        <ele>1551.2246094</ele>
        <time>2014-07-15T11:08:59Z</time>
      </trkpt>
      <trkpt lat="44.4314" lon="6.12179">
        <ele>1550.7438965</ele>
        <time>2014-07-15T11:09:02Z</time>
      </trkpt>
      <trkpt lat="44.43131" lon="6.12218">
        <ele>1546.8984375</ele>
        <time>2014-07-15T11:09:13Z</time>
      </trkpt>
      <trkpt lat="44.43108" lon="6.12267">
        <ele>1544.0146484</ele>
        <time>2014-07-15T11:09:27Z</time>
      </trkpt>
      <trkpt lat="44.43105" lon="6.1227">
        <ele>1544.0146484</ele>
        <time>2014-07-15T11:09:28Z</time>
      </trkpt>
      <trkpt lat="44.43097" lon="6.12281">
        <ele>1543.0532227</ele>
        <time>2014-07-15T11:09:32Z</time>
      </trkpt>
      <trkpt lat="44.43106" lon="6.12288">
        <ele>1540.6499023</ele>
        <time>2014-07-15T11:09:40Z</time>
      </trkpt>
      <trkpt lat="44.43115" lon="6.12271">
        <ele>1539.6887207</ele>
        <time>2014-07-15T11:09:48Z</time>
      </trkpt>
      <trkpt lat="44.43142" lon="6.12237">
        <ele>1536.8046875</ele>
        <time>2014-07-15T11:10:00Z</time>
      </trkpt>
      <trkpt lat="44.43167" lon="6.12204">
        <ele>1532.9594727</ele>
        <time>2014-07-15T11:10:11Z</time>
      </trkpt>
      <trkpt lat="44.43173" lon="6.12197">
        <ele>1532.9594727</ele>
        <time>2014-07-15T11:10:14Z</time>
      </trkpt>
      <trkpt lat="44.43177" lon="6.12154">
        <ele>1529.5947266</ele>
        <time>2014-07-15T11:10:26Z</time>
      </trkpt>
      <trkpt lat="44.43201" lon="6.12139">
        <ele>1527.6721191</ele>
        <time>2014-07-15T11:10:35Z</time>
      </trkpt>
      <trkpt lat="44.43228" lon="6.1213">
        <ele>1524.7883301</ele>
        <time>2014-07-15T11:10:44Z</time>
      </trkpt>
      <trkpt lat="44.43233" lon="6.12131">
        <ele>1524.7883301</ele>
        <time>2014-07-15T11:10:46Z</time>
      </trkpt>
      <trkpt lat="44.43265" lon="6.12115">
        <ele>1521.423584</ele>
        <time>2014-07-15T11:10:58Z</time>
      </trkpt>
      <trkpt lat="44.43301" lon="6.12103">
        <ele>1518.059082</ele>
        <time>2014-07-15T11:11:12Z</time>
      </trkpt>
      <trkpt lat="44.43313" lon="6.12102">
        <ele>1516.6171875</ele>
        <time>2014-07-15T11:11:16Z</time>
      </trkpt>
      <trkpt lat="44.43325" lon="6.12097">
        <ele>1516.1364746</ele>
        <time>2014-07-15T11:11:20Z</time>
      </trkpt>
      <trkpt lat="44.43337" lon="6.12084">
        <ele>1514.6943359</ele>
        <time>2014-07-15T11:11:26Z</time>
      </trkpt>
      <trkpt lat="44.43349" lon="6.12085">
        <ele>1513.7329102</ele>
        <time>2014-07-15T11:11:30Z</time>
      </trkpt>
      <trkpt lat="44.43364" lon="6.12096">
        <ele>1512.2910156</ele>
        <time>2014-07-15T11:11:34Z</time>
      </trkpt>
      <trkpt lat="44.43395" lon="6.12123">
        <ele>1509.8876953</ele>
        <time>2014-07-15T11:11:43Z</time>
      </trkpt>
      <trkpt lat="44.43393" lon="6.12136">
        <ele>1507.4846191</ele>
        <time>2014-07-15T11:11:51Z</time>
      </trkpt>
      <trkpt lat="44.43372" lon="6.12113">
        <ele>1507.0039063</ele>
        <time>2014-07-15T11:12:02Z</time>
      </trkpt>
      <trkpt lat="44.43361" lon="6.12101">
        <ele>1506.0424805</ele>
        <time>2014-07-15T11:12:06Z</time>
      </trkpt>
      <trkpt lat="44.4335" lon="6.12101">
        <ele>1505.5620117</ele>
        <time>2014-07-15T11:12:10Z</time>
      </trkpt>
      <trkpt lat="44.43345" lon="6.12109">
        <ele>1505.5620117</ele>
        <time>2014-07-15T11:12:12Z</time>
      </trkpt>
      <trkpt lat="44.43328" lon="6.12129">
        <ele>1503.1586914</ele>
        <time>2014-07-15T11:12:18Z</time>
      </trkpt>
      <trkpt lat="44.43299" lon="6.12154">
        <ele>1500.2749023</ele>
        <time>2014-07-15T11:12:29Z</time>
      </trkpt>
      <trkpt lat="44.43273" lon="6.12173">
        <ele>1496.9099121</ele>
        <time>2014-07-15T11:12:37Z</time>
      </trkpt>
      <trkpt lat="44.43261" lon="6.12182">
        <ele>1495.4680176</ele>
        <time>2014-07-15T11:12:41Z</time>
      </trkpt>
      <trkpt lat="44.43248" lon="6.12201">
        <ele>1494.5065918</ele>
        <time>2014-07-15T11:12:46Z</time>
      </trkpt>
      <trkpt lat="44.4323" lon="6.1221">
        <ele>1493.0646973</ele>
        <time>2014-07-15T11:12:53Z</time>
      </trkpt>
      <trkpt lat="44.43228" lon="6.12229">
        <ele>1492.5842285</ele>
        <time>2014-07-15T11:12:57Z</time>
      </trkpt>
      <trkpt lat="44.43228" lon="6.12242">
        <ele>1492.1035156</ele>
        <time>2014-07-15T11:12:59Z</time>
      </trkpt>
      <trkpt lat="44.43225" lon="6.12257">
        <ele>1490.1809082</ele>
        <time>2014-07-15T11:13:02Z</time>
      </trkpt>
      <trkpt lat="44.4321" lon="6.12284">
        <ele>1486.8161621</ele>
        <time>2014-07-15T11:13:10Z</time>
      </trkpt>
      <trkpt lat="44.43207" lon="6.12288">
        <ele>1486.8161621</ele>
        <time>2014-07-15T11:13:11Z</time>
      </trkpt>
      <trkpt lat="44.43202" lon="6.12298">
        <ele>1486.3356934</ele>
        <time>2014-07-15T11:13:13Z</time>
      </trkpt>
      <trkpt lat="44.43189" lon="6.12324">
        <ele>1483.9321289</ele>
        <time>2014-07-15T11:13:18Z</time>
      </trkpt>
      <trkpt lat="44.43185" lon="6.12332">
        <ele>1483.451416</ele>
        <time>2014-07-15T11:13:20Z</time>
      </trkpt>
      <trkpt lat="44.43176" lon="6.12344">
        <ele>1482.9707031</ele>
        <time>2014-07-15T11:13:23Z</time>
      </trkpt>
      <trkpt lat="44.43169" lon="6.12354">
        <ele>1482.0095215</ele>
        <time>2014-07-15T11:13:25Z</time>
      </trkpt>
      <trkpt lat="44.43163" lon="6.12363">
        <ele>1480.567627</ele>
        <time>2014-07-15T11:13:27Z</time>
      </trkpt>
      <trkpt lat="44.4317" lon="6.1237">
        <ele>1479.1254883</ele>
        <time>2014-07-15T11:13:35Z</time>
      </trkpt>
      <trkpt lat="44.43192" lon="6.12351">
        <ele>1477.203125</ele>
        <time>2014-07-15T11:13:43Z</time>
      </trkpt>
      <trkpt lat="44.43216" lon="6.12323">
        <ele>1473.3579102</ele>
        <time>2014-07-15T11:13:53Z</time>
      </trkpt>
      <trkpt lat="44.43247" lon="6.123">
        <ele>1470.9545898</ele>
        <time>2014-07-15T11:14:04Z</time>
      </trkpt>
      <trkpt lat="44.43253" lon="6.12295">
        <ele>1469.5126953</ele>
        <time>2014-07-15T11:14:07Z</time>
      </trkpt>
      <trkpt lat="44.43257" lon="6.12281">
        <ele>1469.0319824</ele>
        <time>2014-07-15T11:14:12Z</time>
      </trkpt>
      <trkpt lat="44.43272" lon="6.12279">
        <ele>1468.5512695</ele>
        <time>2014-07-15T11:14:16Z</time>
      </trkpt>
      <trkpt lat="44.43303" lon="6.12286">
        <ele>1465.6672363</ele>
        <time>2014-07-15T11:14:26Z</time>
      </trkpt>
      <trkpt lat="44.43314" lon="6.12277">
        <ele>1464.2250977</ele>
        <time>2014-07-15T11:14:30Z</time>
      </trkpt>
      <trkpt lat="44.43318" lon="6.12268">
        <ele>1463.7443848</ele>
        <time>2014-07-15T11:14:33Z</time>
      </trkpt>
      <trkpt lat="44.43322" lon="6.12258">
        <ele>1461.8220215</ele>
        <time>2014-07-15T11:14:37Z</time>
      </trkpt>
      <trkpt lat="44.43343" lon="6.12257">
        <ele>1461.3413086</ele>
        <time>2014-07-15T11:14:43Z</time>
      </trkpt>
      <trkpt lat="44.43371" lon="6.12283">
        <ele>1458.9379883</ele>
        <time>2014-07-15T11:14:54Z</time>
      </trkpt>
      <trkpt lat="44.43384" lon="6.12298">
        <ele>1457.4960938</ele>
        <time>2014-07-15T11:14:59Z</time>
      </trkpt>
      <trkpt lat="44.4339" lon="6.12301">
        <ele>1456.0539551</ele>
        <time>2014-07-15T11:15:01Z</time>
      </trkpt>
      <trkpt lat="44.434" lon="6.12304">
        <ele>1454.6120605</ele>
        <time>2014-07-15T11:15:05Z</time>
      </trkpt>
      <trkpt lat="44.43439" lon="6.12313">
        <ele>1451.2473145</ele>
        <time>2014-07-15T11:15:16Z</time>
      </trkpt>
      <trkpt lat="44.43454" lon="6.12318">
        <ele>1449.324707</ele>
        <time>2014-07-15T11:15:21Z</time>
      </trkpt>
      <trkpt lat="44.4345" lon="6.12326">
        <ele>1447.8828125</ele>
        <time>2014-07-15T11:15:29Z</time>
      </trkpt>
      <trkpt lat="44.43436" lon="6.12319">
        <ele>1446.440918</ele>
        <time>2014-07-15T11:15:34Z</time>
      </trkpt>
      <trkpt lat="44.43418" lon="6.12319">
        <ele>1445.9602051</ele>
        <time>2014-07-15T11:15:38Z</time>
      </trkpt>
      <trkpt lat="44.43403" lon="6.12328">
        <ele>1442.5957031</ele>
        <time>2014-07-15T11:15:42Z</time>
      </trkpt>
      <trkpt lat="44.434" lon="6.1233">
        <ele>1442.5957031</ele>
        <time>2014-07-15T11:15:43Z</time>
      </trkpt>
      <trkpt lat="44.43389" lon="6.12338">
        <ele>1443.0761719</ele>
        <time>2014-07-15T11:15:46Z</time>
      </trkpt>
      <trkpt lat="44.43371" lon="6.12342">
        <ele>1441.6342773</ele>
        <time>2014-07-15T11:15:51Z</time>
      </trkpt>
      <trkpt lat="44.43364" lon="6.12328">
        <ele>1440.6728516</ele>
        <time>2014-07-15T11:15:55Z</time>
      </trkpt>
      <trkpt lat="44.43342" lon="6.1232">
        <ele>1440.1923828</ele>
        <time>2014-07-15T11:16:02Z</time>
      </trkpt>
      <trkpt lat="44.43332" lon="6.1235">
        <ele>1438.2697754</ele>
        <time>2014-07-15T11:16:10Z</time>
      </trkpt>
      <trkpt lat="44.43332" lon="6.12367">
        <ele>1436.347168</ele>
        <time>2014-07-15T11:16:13Z</time>
      </trkpt>
      <trkpt lat="44.4333" lon="6.12384">
        <ele>1435.8662109</ele>
        <time>2014-07-15T11:16:17Z</time>
      </trkpt>
      <trkpt lat="44.43327" lon="6.1239">
        <ele>1434.4243164</ele>
        <time>2014-07-15T11:16:19Z</time>
      </trkpt>
      <trkpt lat="44.43316" lon="6.12391">
        <ele>1433.9436035</ele>
        <time>2014-07-15T11:16:23Z</time>
      </trkpt>
      <trkpt lat="44.43309" lon="6.12384">
        <ele>1432.9821777</ele>
        <time>2014-07-15T11:16:26Z</time>
      </trkpt>
      <trkpt lat="44.43295" lon="6.12392">
        <ele>1431.5402832</ele>
        <time>2014-07-15T11:16:34Z</time>
      </trkpt>
      <trkpt lat="44.43284" lon="6.12419">
        <ele>1430.0983887</ele>
        <time>2014-07-15T11:16:40Z</time>
      </trkpt>
      <trkpt lat="44.43277" lon="6.12429">
        <ele>1428.1757813</ele>
        <time>2014-07-15T11:16:43Z</time>
      </trkpt>
      <trkpt lat="44.43268" lon="6.12443">
        <ele>1425.7724609</ele>
        <time>2014-07-15T11:16:48Z</time>
      </trkpt>
      <trkpt lat="44.43274" lon="6.12446">
        <ele>1425.7724609</ele>
        <time>2014-07-15T11:16:55Z</time>
      </trkpt>
      <trkpt lat="44.43298" lon="6.1242">
        <ele>1425.7724609</ele>
        <time>2014-07-15T11:17:07Z</time>
      </trkpt>
      <trkpt lat="44.43321" lon="6.12413">
        <ele>1425.7724609</ele>
        <time>2014-07-15T11:17:16Z</time>
      </trkpt>
      <trkpt lat="44.43345" lon="6.12384">
        <ele>1425.291748</ele>
        <time>2014-07-15T11:17:26Z</time>
      </trkpt>
      <trkpt lat="44.43353" lon="6.1238">
        <ele>1424.8112793</ele>
        <time>2014-07-15T11:17:29Z</time>
      </trkpt>
      <trkpt lat="44.43374" lon="6.12399">
        <ele>1425.291748</ele>
        <time>2014-07-15T11:17:38Z</time>
      </trkpt>
      <trkpt lat="44.43411" lon="6.12405">
        <ele>1423.3693848</ele>
        <time>2014-07-15T11:17:47Z</time>
      </trkpt>
      <trkpt lat="44.4343" lon="6.12427">
        <ele>1422.407959</ele>
        <time>2014-07-15T11:17:53Z</time>
      </trkpt>
      <trkpt lat="44.43465" lon="6.1248">
        <ele>1422.8886719</ele>
        <time>2014-07-15T11:18:05Z</time>
      </trkpt>
      <trkpt lat="44.43471" lon="6.12526">
        <ele>1423.8498535</ele>
        <time>2014-07-15T11:18:16Z</time>
      </trkpt>
      <trkpt lat="44.43489" lon="6.12572">
        <ele>1424.3305664</ele>
        <time>2014-07-15T11:18:30Z</time>
      </trkpt>
      <trkpt lat="44.43507" lon="6.12612">
        <ele>1423.8498535</ele>
        <time>2014-07-15T11:18:39Z</time>
      </trkpt>
      <trkpt lat="44.43511" lon="6.12625">
        <ele>1423.3693848</ele>
        <time>2014-07-15T11:18:41Z</time>
      </trkpt>
      <trkpt lat="44.43537" lon="6.1269">
        <ele>1420.4853516</ele>
        <time>2014-07-15T11:18:52Z</time>
      </trkpt>
      <trkpt lat="44.43551" lon="6.12722">
        <ele>1417.6010742</ele>
        <time>2014-07-15T11:18:58Z</time>
      </trkpt>
      <trkpt lat="44.43555" lon="6.12729">
        <ele>1416.1591797</ele>
        <time>2014-07-15T11:19:01Z</time>
      </trkpt>
      <trkpt lat="44.43559" lon="6.12721">
        <ele>1416.1591797</ele>
        <time>2014-07-15T11:19:18Z</time>
      </trkpt>
      <trkpt lat="44.43561" lon="6.12717">
        <ele>1416.1591797</ele>
        <time>2014-07-15T11:19:28Z</time>
      </trkpt>
      <trkpt lat="44.4356" lon="6.1273">
        <ele>1415.197998</ele>
        <time>2014-07-15T11:19:42Z</time>
      </trkpt>
      <trkpt lat="44.4356" lon="6.12733">
        <ele>1415.197998</ele>
        <time>2014-07-15T11:19:48Z</time>
      </trkpt>
      <trkpt lat="44.4358" lon="6.12778">
        <ele>1414.7172852</ele>
        <time>2014-07-15T11:19:59Z</time>
      </trkpt>
      <trkpt lat="44.43583" lon="6.12784">
        <ele>1414.7172852</ele>
        <time>2014-07-15T11:20:00Z</time>
      </trkpt>
      <trkpt lat="44.43587" lon="6.12797">
        <ele>1413.2753906</ele>
        <time>2014-07-15T11:20:02Z</time>
      </trkpt>
      <trkpt lat="44.43593" lon="6.12813">
        <ele>1410.8720703</ele>
        <time>2014-07-15T11:20:05Z</time>
      </trkpt>
      <trkpt lat="44.43595" lon="6.12818">
        <ele>1410.3913574</ele>
        <time>2014-07-15T11:20:06Z</time>
      </trkpt>
      <trkpt lat="44.43616" lon="6.12838">
        <ele>1406.5461426</ele>
        <time>2014-07-15T11:20:13Z</time>
      </trkpt>
      <trkpt lat="44.43618" lon="6.1284">
        <ele>1406.5461426</ele>
        <time>2014-07-15T11:20:14Z</time>
      </trkpt>
      <trkpt lat="44.43628" lon="6.12845">
        <ele>1404.6235352</ele>
        <time>2014-07-15T11:20:18Z</time>
      </trkpt>
      <trkpt lat="44.43645" lon="6.1286">
        <ele>1403.1813965</ele>
        <time>2014-07-15T11:20:22Z</time>
      </trkpt>
      <trkpt lat="44.43656" lon="6.12874">
        <ele>1401.2587891</ele>
        <time>2014-07-15T11:20:26Z</time>
      </trkpt>
      <trkpt lat="44.43664" lon="6.12884">
        <ele>1399.3361816</ele>
        <time>2014-07-15T11:20:29Z</time>
      </trkpt>
      <trkpt lat="44.43665" lon="6.12894">
        <ele>1398.3747559</ele>
        <time>2014-07-15T11:20:31Z</time>
      </trkpt>
      <trkpt lat="44.43683" lon="6.12921">
        <ele>1397.4135742</ele>
        <time>2014-07-15T11:20:37Z</time>
      </trkpt>
      <trkpt lat="44.43689" lon="6.12931">
        <ele>1396.9328613</ele>
        <time>2014-07-15T11:20:39Z</time>
      </trkpt>
      <trkpt lat="44.43695" lon="6.12964">
        <ele>1394.0490723</ele>
        <time>2014-07-15T11:20:44Z</time>
      </trkpt>
      <trkpt lat="44.43697" lon="6.12975">
        <ele>1393.5683594</ele>
        <time>2014-07-15T11:20:46Z</time>
      </trkpt>
      <trkpt lat="44.43705" lon="6.1299">
        <ele>1392.1264648</ele>
        <time>2014-07-15T11:20:49Z</time>
      </trkpt>
      <trkpt lat="44.43708" lon="6.12992">
        <ele>1391.645752</ele>
        <time>2014-07-15T11:20:50Z</time>
      </trkpt>
      <trkpt lat="44.4373" lon="6.13008">
        <ele>1388.28125</ele>
        <time>2014-07-15T11:20:57Z</time>
      </trkpt>
      <trkpt lat="44.43735" lon="6.13009">
        <ele>1388.28125</ele>
        <time>2014-07-15T11:20:58Z</time>
      </trkpt>
      <trkpt lat="44.43743" lon="6.13017">
        <ele>1387.3195801</ele>
        <time>2014-07-15T11:21:00Z</time>
      </trkpt>
      <trkpt lat="44.4375" lon="6.1303">
        <ele>1385.8776855</ele>
        <time>2014-07-15T11:21:03Z</time>
      </trkpt>
      <trkpt lat="44.43774" lon="6.13074">
        <ele>1384.435791</ele>
        <time>2014-07-15T11:21:10Z</time>
      </trkpt>
      <trkpt lat="44.43782" lon="6.13144">
        <ele>1383.4743652</ele>
        <time>2014-07-15T11:21:20Z</time>
      </trkpt>
      <trkpt lat="44.43794" lon="6.13239">
        <ele>1382.5131836</ele>
        <time>2014-07-15T11:21:34Z</time>
      </trkpt>
      <trkpt lat="44.43782" lon="6.13307">
        <ele>1382.9936523</ele>
        <time>2014-07-15T11:21:49Z</time>
      </trkpt>
      <trkpt lat="44.43782" lon="6.1331">
        <ele>1382.9936523</ele>
        <time>2014-07-15T11:22:01Z</time>
      </trkpt>
      <trkpt lat="44.4376" lon="6.13326">
        <ele>1383.4743652</ele>
        <time>2014-07-15T11:22:14Z</time>
      </trkpt>
      <trkpt lat="44.43752" lon="6.13334">
        <ele>1382.9936523</ele>
        <time>2014-07-15T11:22:18Z</time>
      </trkpt>
      <trkpt lat="44.4373" lon="6.13396">
        <ele>1381.0712891</ele>
        <time>2014-07-15T11:22:30Z</time>
      </trkpt>
      <trkpt lat="44.43739" lon="6.13441">
        <ele>1379.1484375</ele>
        <time>2014-07-15T11:22:38Z</time>
      </trkpt>
      <trkpt lat="44.43748" lon="6.13451">
        <ele>1378.6679688</ele>
        <time>2014-07-15T11:22:41Z</time>
      </trkpt>
      <trkpt lat="44.43769" lon="6.13464">
        <ele>1378.6679688</ele>
        <time>2014-07-15T11:22:47Z</time>
      </trkpt>
      <trkpt lat="44.43777" lon="6.13487">
        <ele>1377.706543</ele>
        <time>2014-07-15T11:22:52Z</time>
      </trkpt>
      <trkpt lat="44.43779" lon="6.135">
        <ele>1376.7453613</ele>
        <time>2014-07-15T11:22:54Z</time>
      </trkpt>
      <trkpt lat="44.43789" lon="6.13519">
        <ele>1374.8227539</ele>
        <time>2014-07-15T11:22:58Z</time>
      </trkpt>
      <trkpt lat="44.43804" lon="6.13524">
        <ele>1374.8227539</ele>
        <time>2014-07-15T11:23:02Z</time>
      </trkpt>
      <trkpt lat="44.4382" lon="6.13542">
        <ele>1375.7839355</ele>
        <time>2014-07-15T11:23:07Z</time>
      </trkpt>
      <trkpt lat="44.43824" lon="6.13568">
        <ele>1375.3032227</ele>
        <time>2014-07-15T11:23:12Z</time>
      </trkpt>
      <trkpt lat="44.43828" lon="6.13577">
        <ele>1375.3032227</ele>
        <time>2014-07-15T11:23:14Z</time>
      </trkpt>
      <trkpt lat="44.43823" lon="6.13597">
        <ele>1374.8227539</ele>
        <time>2014-07-15T11:23:18Z</time>
      </trkpt>
      <trkpt lat="44.43819" lon="6.13627">
        <ele>1374.8227539</ele>
        <time>2014-07-15T11:23:24Z</time>
      </trkpt>
      <trkpt lat="44.4381" lon="6.13637">
        <ele>1374.8227539</ele>
        <time>2014-07-15T11:23:28Z</time>
      </trkpt>
      <trkpt lat="44.43793" lon="6.13654">
        <ele>1375.3032227</ele>
        <time>2014-07-15T11:23:37Z</time>
      </trkpt>
      <trkpt lat="44.43764" lon="6.13652">
        <ele>1373.8613281</ele>
        <time>2014-07-15T11:23:43Z</time>
      </trkpt>
      <trkpt lat="44.43745" lon="6.13654">
        <ele>1371.9384766</ele>
        <time>2014-07-15T11:23:47Z</time>
      </trkpt>
      <trkpt lat="44.43736" lon="6.13654">
        <ele>1370.0158691</ele>
        <time>2014-07-15T11:23:49Z</time>
      </trkpt>
      <trkpt lat="44.43705" lon="6.13665">
        <ele>1367.1320801</ele>
        <time>2014-07-15T11:23:55Z</time>
      </trkpt>
      <trkpt lat="44.43701" lon="6.13667">
        <ele>1367.1320801</ele>
        <time>2014-07-15T11:23:56Z</time>
      </trkpt>
      <trkpt lat="44.43686" lon="6.13701">
        <ele>1365.2094727</ele>
        <time>2014-07-15T11:24:05Z</time>
      </trkpt>
      <trkpt lat="44.43693" lon="6.13723">
        <ele>1365.6901855</ele>
        <time>2014-07-15T11:24:13Z</time>
      </trkpt>
      <trkpt lat="44.43683" lon="6.1377">
        <ele>1367.1320801</ele>
        <time>2014-07-15T11:24:26Z</time>
      </trkpt>
      <trkpt lat="44.43683" lon="6.13775">
        <ele>1366.6513672</ele>
        <time>2014-07-15T11:24:27Z</time>
      </trkpt>
      <trkpt lat="44.43682" lon="6.13801">
        <ele>1365.2094727</ele>
        <time>2014-07-15T11:24:31Z</time>
      </trkpt>
      <trkpt lat="44.43682" lon="6.13809">
        <ele>1365.6901855</ele>
        <time>2014-07-15T11:24:32Z</time>
      </trkpt>
      <trkpt lat="44.43687" lon="6.13845">
        <ele>1364.7287598</ele>
        <time>2014-07-15T11:24:37Z</time>
      </trkpt>
      <trkpt lat="44.43703" lon="6.13884">
        <ele>1361.8449707</ele>
        <time>2014-07-15T11:24:49Z</time>
      </trkpt>
      <trkpt lat="44.43712" lon="6.13897">
        <ele>1360.402832</ele>
        <time>2014-07-15T11:24:53Z</time>
      </trkpt>
      <trkpt lat="44.43723" lon="6.13899">
        <ele>1359.9221191</ele>
        <time>2014-07-15T11:24:56Z</time>
      </trkpt>
      <trkpt lat="44.43738" lon="6.13902">
        <ele>1359.4416504</ele>
        <time>2014-07-15T11:25:00Z</time>
      </trkpt>
      <trkpt lat="44.4376" lon="6.13911">
        <ele>1357.9997559</ele>
        <time>2014-07-15T11:25:07Z</time>
      </trkpt>
      <trkpt lat="44.43763" lon="6.13918">
        <ele>1357.0383301</ele>
        <time>2014-07-15T11:25:09Z</time>
      </trkpt>
      <trkpt lat="44.43765" lon="6.13958">
        <ele>1354.1542969</ele>
        <time>2014-07-15T11:25:20Z</time>
      </trkpt>
      <trkpt lat="44.43762" lon="6.13966">
        <ele>1353.1928711</ele>
        <time>2014-07-15T11:25:22Z</time>
      </trkpt>
      <trkpt lat="44.43764" lon="6.13971">
        <ele>1352.2314453</ele>
        <time>2014-07-15T11:25:24Z</time>
      </trkpt>
      <trkpt lat="44.43767" lon="6.13975">
        <ele>1351.7509766</ele>
        <time>2014-07-15T11:25:26Z</time>
      </trkpt>
      <trkpt lat="44.43796" lon="6.1399">
        <ele>1347.9057617</ele>
        <time>2014-07-15T11:25:36Z</time>
      </trkpt>
      <trkpt lat="44.43805" lon="6.13995">
        <ele>1346.9443359</ele>
        <time>2014-07-15T11:25:39Z</time>
      </trkpt>
      <trkpt lat="44.43819" lon="6.14002">
        <ele>1345.5024414</ele>
        <time>2014-07-15T11:25:45Z</time>
      </trkpt>
      <trkpt lat="44.43839" lon="6.14002">
        <ele>1342.1379395</ele>
        <time>2014-07-15T11:25:59Z</time>
      </trkpt>
      <trkpt lat="44.43842" lon="6.14006">
        <ele>1339.734375</ele>
        <time>2014-07-15T11:26:20Z</time>
      </trkpt>
      <trkpt lat="44.43823" lon="6.14031">
        <ele>1337.3310547</ele>
        <time>2014-07-15T11:26:31Z</time>
      </trkpt>
      <trkpt lat="44.43804" lon="6.1405">
        <ele>1333.9665527</ele>
        <time>2014-07-15T11:26:45Z</time>
      </trkpt>
      <trkpt lat="44.43802" lon="6.14052">
        <ele>1333.9665527</ele>
        <time>2014-07-15T11:26:46Z</time>
      </trkpt>
      <trkpt lat="44.43788" lon="6.14096">
        <ele>1331.0827637</ele>
        <time>2014-07-15T11:26:57Z</time>
      </trkpt>
      <trkpt lat="44.43777" lon="6.14125">
        <ele>1328.1987305</ele>
        <time>2014-07-15T11:27:05Z</time>
      </trkpt>
      <trkpt lat="44.43766" lon="6.14147">
        <ele>1325.7954102</ele>
        <time>2014-07-15T11:27:11Z</time>
      </trkpt>
      <trkpt lat="44.43757" lon="6.14185">
        <ele>1323.3920898</ele>
        <time>2014-07-15T11:27:20Z</time>
      </trkpt>
      <trkpt lat="44.43758" lon="6.14236">
        <ele>1321.4692383</ele>
        <time>2014-07-15T11:27:29Z</time>
      </trkpt>
      <trkpt lat="44.43756" lon="6.14257">
        <ele>1320.0273438</ele>
        <time>2014-07-15T11:27:34Z</time>
      </trkpt>
      <trkpt lat="44.4375" lon="6.14297">
        <ele>1319.0661621</ele>
        <time>2014-07-15T11:27:43Z</time>
      </trkpt>
      <trkpt lat="44.43753" lon="6.14311">
        <ele>1319.0661621</ele>
        <time>2014-07-15T11:27:47Z</time>
      </trkpt>
      <trkpt lat="44.43764" lon="6.14326">
        <ele>1318.1047363</ele>
        <time>2014-07-15T11:27:53Z</time>
      </trkpt>
      <trkpt lat="44.43782" lon="6.14341">
        <ele>1318.1047363</ele>
        <time>2014-07-15T11:28:03Z</time>
      </trkpt>
      <trkpt lat="44.43809" lon="6.14355">
        <ele>1317.6240234</ele>
        <time>2014-07-15T11:28:14Z</time>
      </trkpt>
      <trkpt lat="44.43813" lon="6.14357">
        <ele>1317.6240234</ele>
        <time>2014-07-15T11:28:15Z</time>
      </trkpt>
      <trkpt lat="44.43807" lon="6.14395">
        <ele>1315.7016602</ele>
        <time>2014-07-15T11:28:26Z</time>
      </trkpt>
      <trkpt lat="44.43798" lon="6.14434">
        <ele>1314.7402344</ele>
        <time>2014-07-15T11:28:36Z</time>
      </trkpt>
      <trkpt lat="44.43801" lon="6.14478">
        <ele>1313.7788086</ele>
        <time>2014-07-15T11:28:51Z</time>
      </trkpt>
      <trkpt lat="44.43797" lon="6.14475">
        <ele>1313.2983398</ele>
        <time>2014-07-15T11:29:09Z</time>
      </trkpt>
      <trkpt lat="44.4379" lon="6.14474">
        <ele>1311.3757324</ele>
        <time>2014-07-15T11:29:30Z</time>
      </trkpt>
      <trkpt lat="44.43785" lon="6.14468">
        <ele>1309.9335938</ele>
        <time>2014-07-15T11:29:44Z</time>
      </trkpt>
      <trkpt lat="44.43777" lon="6.14469">
        <ele>1308.4916992</ele>
        <time>2014-07-15T11:30:01Z</time>
      </trkpt>
      <trkpt lat="44.43776" lon="6.14471">
        <ele>1307.5302734</ele>
        <time>2014-07-15T11:30:18Z</time>
      </trkpt>
      <trkpt lat="44.43765" lon="6.14476">
        <ele>1304.6462402</ele>
        <time>2014-07-15T11:30:27Z</time>
      </trkpt>
      <trkpt lat="44.43755" lon="6.14481">
        <ele>1302.2429199</ele>
        <time>2014-07-15T11:30:33Z</time>
      </trkpt>
      <trkpt lat="44.43741" lon="6.14491">
        <ele>1299.8398438</ele>
        <time>2014-07-15T11:30:44Z</time>
      </trkpt>
      <trkpt lat="44.43738" lon="6.14492">
        <ele>1299.8398438</ele>
        <time>2014-07-15T11:30:46Z</time>
      </trkpt>
      <trkpt lat="44.4373" lon="6.14498">
        <ele>1297.4365234</ele>
        <time>2014-07-15T11:30:52Z</time>
      </trkpt>
      <trkpt lat="44.43726" lon="6.14502">
        <ele>1296.9558105</ele>
        <time>2014-07-15T11:30:56Z</time>
      </trkpt>
      <trkpt lat="44.43716" lon="6.14519">
        <ele>1294.0720215</ele>
        <time>2014-07-15T11:31:04Z</time>
      </trkpt>
      <trkpt lat="44.43711" lon="6.14542">
        <ele>1290.7070313</ele>
        <time>2014-07-15T11:31:14Z</time>
      </trkpt>
      <trkpt lat="44.43705" lon="6.14556">
        <ele>1289.2651367</ele>
        <time>2014-07-15T11:31:20Z</time>
      </trkpt>
      <trkpt lat="44.43697" lon="6.14563">
        <ele>1289.2651367</ele>
        <time>2014-07-15T11:31:25Z</time>
      </trkpt>
      <trkpt lat="44.43693" lon="6.14565">
        <ele>1289.2651367</ele>
        <time>2014-07-15T11:31:27Z</time>
      </trkpt>
      <trkpt lat="44.43683" lon="6.1459">
        <ele>1286.8618164</ele>
        <time>2014-07-15T11:31:42Z</time>
      </trkpt>
      <trkpt lat="44.43683" lon="6.14595">
        <ele>1285.9006348</ele>
        <time>2014-07-15T11:32:05Z</time>
      </trkpt>
      <trkpt lat="44.43677" lon="6.14601">
        <ele>1285.4199219</ele>
        <time>2014-07-15T11:32:22Z</time>
      </trkpt>
      <trkpt lat="44.43671" lon="6.14603">
        <ele>1284.4587402</ele>
        <time>2014-07-15T11:32:26Z</time>
      </trkpt>
      <trkpt lat="44.43644" lon="6.14635">
        <ele>1282.5361328</ele>
        <time>2014-07-15T11:32:42Z</time>
      </trkpt>
      <trkpt lat="44.43637" lon="6.14648">
        <ele>1280.1328125</ele>
        <time>2014-07-15T11:32:55Z</time>
      </trkpt>
      <trkpt lat="44.43637" lon="6.14648">
        <ele>1280.1328125</ele>
        <time>2014-07-15T11:32:56Z</time>
      </trkpt>
      <trkpt lat="44.43636" lon="6.14653">
        <ele>1279.1713867</ele>
        <time>2014-07-15T11:33:09Z</time>
      </trkpt>
      <trkpt lat="44.43632" lon="6.14666">
        <ele>1276.2875977</ele>
        <time>2014-07-15T11:33:26Z</time>
      </trkpt>
      <trkpt lat="44.43631" lon="6.14667">
        <ele>1276.2875977</ele>
        <time>2014-07-15T11:33:27Z</time>
      </trkpt>
      <trkpt lat="44.43627" lon="6.14679">
        <ele>1274.3647461</ele>
        <time>2014-07-15T11:33:41Z</time>
      </trkpt>
      <trkpt lat="44.43627" lon="6.14692">
        <ele>1271.0002441</ele>
        <time>2014-07-15T11:33:57Z</time>
      </trkpt>
      <trkpt lat="44.43625" lon="6.14699">
        <ele>1271.0002441</ele>
        <time>2014-07-15T11:34:06Z</time>
      </trkpt>
      <trkpt lat="44.43613" lon="6.14734">
        <ele>1269.0776367</ele>
        <time>2014-07-15T11:34:17Z</time>
      </trkpt>
      <trkpt lat="44.43604" lon="6.14748">
        <ele>1266.1936035</ele>
        <time>2014-07-15T11:34:30Z</time>
      </trkpt>
      <trkpt lat="44.43599" lon="6.1477">
        <ele>1263.7902832</ele>
        <time>2014-07-15T11:34:43Z</time>
      </trkpt>
      <trkpt lat="44.43589" lon="6.14789">
        <ele>1261.387207</ele>
        <time>2014-07-15T11:34:59Z</time>
      </trkpt>
      <trkpt lat="44.43586" lon="6.14792">
        <ele>1259.9448242</ele>
        <time>2014-07-15T11:35:01Z</time>
      </trkpt>
      <trkpt lat="44.43582" lon="6.14795">
        <ele>1258.9836426</ele>
        <time>2014-07-15T11:35:04Z</time>
      </trkpt>
      <trkpt lat="44.43579" lon="6.14798">
        <ele>1258.0224609</ele>
        <time>2014-07-15T11:35:07Z</time>
      </trkpt>
      <trkpt lat="44.43574" lon="6.14807">
        <ele>1257.541748</ele>
        <time>2014-07-15T11:35:12Z</time>
      </trkpt>
      <trkpt lat="44.4357" lon="6.14811">
        <ele>1256.5803223</ele>
        <time>2014-07-15T11:35:15Z</time>
      </trkpt>
      <trkpt lat="44.43566" lon="6.14817">
        <ele>1255.1384277</ele>
        <time>2014-07-15T11:35:20Z</time>
      </trkpt>
      <trkpt lat="44.43559" lon="6.14831">
        <ele>1252.7351074</ele>
        <time>2014-07-15T11:35:33Z</time>
      </trkpt>
      <trkpt lat="44.43556" lon="6.14839">
        <ele>1252.2543945</ele>
        <time>2014-07-15T11:35:39Z</time>
      </trkpt>
      <trkpt lat="44.43554" lon="6.14842">
        <ele>1251.2932129</ele>
        <time>2014-07-15T11:35:42Z</time>
      </trkpt>
      <trkpt lat="44.4355" lon="6.1485">
        <ele>1250.3320313</ele>
        <time>2014-07-15T11:35:48Z</time>
      </trkpt>
      <trkpt lat="44.4354" lon="6.14897">
        <ele>1247.9287109</ele>
        <time>2014-07-15T11:36:01Z</time>
      </trkpt>
      <trkpt lat="44.43527" lon="6.14924">
        <ele>1247.447998</ele>
        <time>2014-07-15T11:36:10Z</time>
      </trkpt>
      <trkpt lat="44.43525" lon="6.14926">
        <ele>1246.9672852</ele>
        <time>2014-07-15T11:36:11Z</time>
      </trkpt>
      <trkpt lat="44.43518" lon="6.14965">
        <ele>1246.4868164</ele>
        <time>2014-07-15T11:36:23Z</time>
      </trkpt>
      <trkpt lat="44.43512" lon="6.14977">
        <ele>1247.447998</ele>
        <time>2014-07-15T11:36:27Z</time>
      </trkpt>
      <trkpt lat="44.435" lon="6.15012">
        <ele>1247.9287109</ele>
        <time>2014-07-15T11:36:41Z</time>
      </trkpt>
      <trkpt lat="44.43484" lon="6.15034">
        <ele>1247.9287109</ele>
        <time>2014-07-15T11:36:51Z</time>
      </trkpt>
      <trkpt lat="44.43482" lon="6.15037">
        <ele>1247.9287109</ele>
        <time>2014-07-15T11:36:52Z</time>
      </trkpt>
      <trkpt lat="44.43458" lon="6.15065">
        <ele>1248.8898926</ele>
        <time>2014-07-15T11:37:06Z</time>
      </trkpt>
      <trkpt lat="44.43457" lon="6.15073">
        <ele>1248.8898926</ele>
        <time>2014-07-15T11:37:07Z</time>
      </trkpt>
      <trkpt lat="44.43449" lon="6.15082">
        <ele>1249.8513184</ele>
        <time>2014-07-15T11:37:11Z</time>
      </trkpt>
      <trkpt lat="44.43437" lon="6.15085">
        <ele>1249.8513184</ele>
        <time>2014-07-15T11:37:16Z</time>
      </trkpt>
      <trkpt lat="44.43435" lon="6.15088">
        <ele>1250.3320313</ele>
        <time>2014-07-15T11:37:18Z</time>
      </trkpt>
      <trkpt lat="44.43421" lon="6.15101">
        <ele>1248.4091797</ele>
        <time>2014-07-15T11:37:30Z</time>
      </trkpt>
      <trkpt lat="44.43417" lon="6.15104">
        <ele>1247.447998</ele>
        <time>2014-07-15T11:37:34Z</time>
      </trkpt>
      <trkpt lat="44.43399" lon="6.15115">
        <ele>1243.6025391</ele>
        <time>2014-07-15T11:37:46Z</time>
      </trkpt>
      <trkpt lat="44.4339" lon="6.15123">
        <ele>1241.6799316</ele>
        <time>2014-07-15T11:37:52Z</time>
      </trkpt>
      <trkpt lat="44.43379" lon="6.15132">
        <ele>1239.7573242</ele>
        <time>2014-07-15T11:38:00Z</time>
      </trkpt>
      <trkpt lat="44.43369" lon="6.15143">
        <ele>1237.3540039</ele>
        <time>2014-07-15T11:38:10Z</time>
      </trkpt>
      <trkpt lat="44.43359" lon="6.15154">
        <ele>1235.9121094</ele>
        <time>2014-07-15T11:38:18Z</time>
      </trkpt>
      <trkpt lat="44.43357" lon="6.15158">
        <ele>1234.9509277</ele>
        <time>2014-07-15T11:38:20Z</time>
      </trkpt>
      <trkpt lat="44.43352" lon="6.15162">
        <ele>1233.989502</ele>
        <time>2014-07-15T11:38:33Z</time>
      </trkpt>
      <trkpt lat="44.43341" lon="6.15172">
        <ele>1232.5476074</ele>
        <time>2014-07-15T11:38:40Z</time>
      </trkpt>
      <trkpt lat="44.43329" lon="6.15187">
        <ele>1231.1057129</ele>
        <time>2014-07-15T11:38:48Z</time>
      </trkpt>
      <trkpt lat="44.43308" lon="6.15217">
        <ele>1228.7023926</ele>
        <time>2014-07-15T11:38:59Z</time>
      </trkpt>
      <trkpt lat="44.43289" lon="6.15244">
        <ele>1227.7407227</ele>
        <time>2014-07-15T11:39:06Z</time>
      </trkpt>
      <trkpt lat="44.43287" lon="6.15248">
        <ele>1228.2216797</ele>
        <time>2014-07-15T11:39:20Z</time>
      </trkpt>
      <trkpt lat="44.43287" lon="6.15249">
        <ele>1227.7407227</ele>
        <time>2014-07-15T11:39:29Z</time>
      </trkpt>
      <trkpt lat="44.43279" lon="6.15257">
        <ele>1228.2216797</ele>
        <time>2014-07-15T11:39:34Z</time>
      </trkpt>
      <trkpt lat="44.43246" lon="6.15278">
        <ele>1227.7407227</ele>
        <time>2014-07-15T11:39:47Z</time>
      </trkpt>
      <trkpt lat="44.43241" lon="6.15278">
        <ele>1225.8181152</ele>
        <time>2014-07-15T11:39:49Z</time>
      </trkpt>
      <trkpt lat="44.43233" lon="6.15285">
        <ele>1223.4150391</ele>
        <time>2014-07-15T11:39:54Z</time>
      </trkpt>
      <trkpt lat="44.43232" lon="6.15286">
        <ele>1223.4150391</ele>
        <time>2014-07-15T11:39:55Z</time>
      </trkpt>
      <trkpt lat="44.4322" lon="6.15301">
        <ele>1221.4921875</ele>
        <time>2014-07-15T11:40:05Z</time>
      </trkpt>
      <trkpt lat="44.43211" lon="6.15301">
        <ele>1220.050293</ele>
        <time>2014-07-15T11:40:17Z</time>
      </trkpt>
      <trkpt lat="44.43209" lon="6.15302">
        <ele>1218.6083984</ele>
        <time>2014-07-15T11:40:20Z</time>
      </trkpt>
      <trkpt lat="44.43194" lon="6.15304">
        <ele>1215.7246094</ele>
        <time>2014-07-15T11:40:31Z</time>
      </trkpt>
      <trkpt lat="44.43184" lon="6.15309">
        <ele>1212.8405762</ele>
        <time>2014-07-15T11:40:38Z</time>
      </trkpt>
      <trkpt lat="44.43179" lon="6.15312">
        <ele>1211.3984375</ele>
        <time>2014-07-15T11:40:42Z</time>
      </trkpt>
      <trkpt lat="44.43176" lon="6.1531">
        <ele>1209.4758301</ele>
        <time>2014-07-15T11:40:53Z</time>
      </trkpt>
      <trkpt lat="44.43174" lon="6.15311">
        <ele>1209.4758301</ele>
        <time>2014-07-15T11:40:55Z</time>
      </trkpt>
      <trkpt lat="44.43157" lon="6.15314">
        <ele>1206.111084</ele>
        <time>2014-07-15T11:41:06Z</time>
      </trkpt>
      <trkpt lat="44.43152" lon="6.15308">
        <ele>1204.6691895</ele>
        <time>2014-07-15T11:41:21Z</time>
      </trkpt>
      <trkpt lat="44.43136" lon="6.15295">
        <ele>1202.2658691</ele>
        <time>2014-07-15T11:41:31Z</time>
      </trkpt>
      <trkpt lat="44.43126" lon="6.15299">
        <ele>1202.746582</ele>
        <time>2014-07-15T11:41:36Z</time>
      </trkpt>
      <trkpt lat="44.43122" lon="6.15305">
        <ele>1201.3046875</ele>
        <time>2014-07-15T11:41:39Z</time>
      </trkpt>
      <trkpt lat="44.43113" lon="6.1532">
        <ele>1199.3820801</ele>
        <time>2014-07-15T11:41:44Z</time>
      </trkpt>
      <trkpt lat="44.43109" lon="6.15326">
        <ele>1197.9401855</ele>
        <time>2014-07-15T11:41:46Z</time>
      </trkpt>
      <trkpt lat="44.43103" lon="6.15343">
        <ele>1194.5751953</ele>
        <time>2014-07-15T11:41:52Z</time>
      </trkpt>
      <trkpt lat="44.43103" lon="6.15346">
        <ele>1194.5751953</ele>
        <time>2014-07-15T11:41:53Z</time>
      </trkpt>
      <trkpt lat="44.43104" lon="6.15349">
        <ele>1193.6140137</ele>
        <time>2014-07-15T11:42:07Z</time>
      </trkpt>
      <trkpt lat="44.43111" lon="6.15351">
        <ele>1194.0947266</ele>
        <time>2014-07-15T11:42:23Z</time>
      </trkpt>
      <trkpt lat="44.43113" lon="6.15355">
        <ele>1193.1333008</ele>
        <time>2014-07-15T11:42:30Z</time>
      </trkpt>
      <trkpt lat="44.43117" lon="6.15367">
        <ele>1191.2106934</ele>
        <time>2014-07-15T11:42:45Z</time>
      </trkpt>
      <trkpt lat="44.43114" lon="6.15369">
        <ele>1190.2495117</ele>
        <time>2014-07-15T11:42:58Z</time>
      </trkpt>
      <trkpt lat="44.43107" lon="6.15376">
        <ele>1188.8076172</ele>
        <time>2014-07-15T11:43:03Z</time>
      </trkpt>
      <trkpt lat="44.43095" lon="6.15391">
        <ele>1185.923584</ele>
        <time>2014-07-15T11:43:12Z</time>
      </trkpt>
      <trkpt lat="44.43091" lon="6.15399">
        <ele>1184.9624023</ele>
        <time>2014-07-15T11:43:16Z</time>
      </trkpt>
      <trkpt lat="44.43086" lon="6.15413">
        <ele>1183.0395508</ele>
        <time>2014-07-15T11:43:26Z</time>
      </trkpt>
      <trkpt lat="44.43085" lon="6.15412">
        <ele>1182.559082</ele>
        <time>2014-07-15T11:43:41Z</time>
      </trkpt>
      <trkpt lat="44.43084" lon="6.15422">
        <ele>1181.5976563</ele>
        <time>2014-07-15T11:43:52Z</time>
      </trkpt>
      <trkpt lat="44.43083" lon="6.15424">
        <ele>1181.1171875</ele>
        <time>2014-07-15T11:43:54Z</time>
      </trkpt>
      <trkpt lat="44.43079" lon="6.15439">
        <ele>1177.7521973</ele>
        <time>2014-07-15T11:44:08Z</time>
      </trkpt>
      <trkpt lat="44.43077" lon="6.15442">
        <ele>1177.2717285</ele>
        <time>2014-07-15T11:44:19Z</time>
      </trkpt>
      <trkpt lat="44.43075" lon="6.15449">
        <ele>1177.2717285</ele>
        <time>2014-07-15T11:44:22Z</time>
      </trkpt>
      <trkpt lat="44.4305" lon="6.15505">
        <ele>1172.9458008</ele>
        <time>2014-07-15T11:44:32Z</time>
      </trkpt>
      <trkpt lat="44.43048" lon="6.1551">
        <ele>1172.9458008</ele>
        <time>2014-07-15T11:44:33Z</time>
      </trkpt>
      <trkpt lat="44.43039" lon="6.15526">
        <ele>1172.9458008</ele>
        <time>2014-07-15T11:44:37Z</time>
      </trkpt>
      <trkpt lat="44.43016" lon="6.15556">
        <ele>1172.4650879</ele>
        <time>2014-07-15T11:44:49Z</time>
      </trkpt>
      <trkpt lat="44.43004" lon="6.1557">
        <ele>1170.5424805</ele>
        <time>2014-07-15T11:44:56Z</time>
      </trkpt>
      <trkpt lat="44.42998" lon="6.15586">
        <ele>1168.1391602</ele>
        <time>2014-07-15T11:45:02Z</time>
      </trkpt>
      <trkpt lat="44.42987" lon="6.15638">
        <ele>1164.7746582</ele>
        <time>2014-07-15T11:45:17Z</time>
      </trkpt>
      <trkpt lat="44.42979" lon="6.15651">
        <ele>1161.890625</ele>
        <time>2014-07-15T11:45:30Z</time>
      </trkpt>
      <trkpt lat="44.42979" lon="6.1566">
        <ele>1160.9291992</ele>
        <time>2014-07-15T11:45:34Z</time>
      </trkpt>
      <trkpt lat="44.42968" lon="6.15679">
        <ele>1157.5646973</ele>
        <time>2014-07-15T11:45:47Z</time>
      </trkpt>
      <trkpt lat="44.42966" lon="6.15681">
        <ele>1157.0839844</ele>
        <time>2014-07-15T11:45:49Z</time>
      </trkpt>
      <trkpt lat="44.42949" lon="6.15698">
        <ele>1155.161377</ele>
        <time>2014-07-15T11:45:59Z</time>
      </trkpt>
      <trkpt lat="44.42943" lon="6.157">
        <ele>1153.7194824</ele>
        <time>2014-07-15T11:46:04Z</time>
      </trkpt>
      <trkpt lat="44.42931" lon="6.1573">
        <ele>1150.3549805</ele>
        <time>2014-07-15T11:46:17Z</time>
      </trkpt>
      <trkpt lat="44.42923" lon="6.15767">
        <ele>1148.4321289</ele>
        <time>2014-07-15T11:46:30Z</time>
      </trkpt>
      <trkpt lat="44.42922" lon="6.15788">
        <ele>1146.9899902</ele>
        <time>2014-07-15T11:46:38Z</time>
      </trkpt>
      <trkpt lat="44.42921" lon="6.15794">
        <ele>1146.5095215</ele>
        <time>2014-07-15T11:46:40Z</time>
      </trkpt>
      <trkpt lat="44.42916" lon="6.15822">
        <ele>1146.5095215</ele>
        <time>2014-07-15T11:46:53Z</time>
      </trkpt>
      <trkpt lat="44.42914" lon="6.15836">
        <ele>1147.951416</ele>
        <time>2014-07-15T11:47:02Z</time>
      </trkpt>
      <trkpt lat="44.4291" lon="6.15861">
        <ele>1149.8742676</ele>
        <time>2014-07-15T11:47:19Z</time>
      </trkpt>
      <trkpt lat="44.42908" lon="6.15862">
        <ele>1149.8742676</ele>
        <time>2014-07-15T11:47:23Z</time>
      </trkpt>
      <trkpt lat="44.42903" lon="6.15865">
        <ele>1150.3549805</ele>
        <time>2014-07-15T11:47:30Z</time>
      </trkpt>
      <trkpt lat="44.42883" lon="6.1587">
        <ele>1146.9899902</ele>
        <time>2014-07-15T11:47:40Z</time>
      </trkpt>
      <trkpt lat="44.42863" lon="6.15864">
        <ele>1145.5480957</ele>
        <time>2014-07-15T11:47:49Z</time>
      </trkpt>
      <trkpt lat="44.42846" lon="6.15862">
        <ele>1143.1447754</ele>
        <time>2014-07-15T11:48:00Z</time>
      </trkpt>
      <trkpt lat="44.42837" lon="6.15859">
        <ele>1141.7028809</ele>
        <time>2014-07-15T11:48:06Z</time>
      </trkpt>
      <trkpt lat="44.42829" lon="6.1586">
        <ele>1140.2609863</ele>
        <time>2014-07-15T11:48:20Z</time>
      </trkpt>
      <trkpt lat="44.42829" lon="6.1586">
        <ele>1140.2609863</ele>
        <time>2014-07-15T11:48:21Z</time>
      </trkpt>
      <trkpt lat="44.42829" lon="6.1586">
        <ele>1139.7802734</ele>
        <time>2014-07-15T11:48:33Z</time>
      </trkpt>
      <trkpt lat="44.42827" lon="6.15865">
        <ele>1140.7414551</ele>
        <time>2014-07-15T11:48:49Z</time>
      </trkpt>
      <trkpt lat="44.42826" lon="6.15865">
        <ele>1140.7414551</ele>
        <time>2014-07-15T11:49:09Z</time>
      </trkpt>
      <trkpt lat="44.42827" lon="6.15864">
        <ele>1138.8190918</ele>
        <time>2014-07-15T11:50:32Z</time>
      </trkpt>
      <trkpt lat="44.42826" lon="6.15851">
        <ele>1135.9350586</ele>
        <time>2014-07-15T11:50:44Z</time>
      </trkpt>
      <trkpt lat="44.42827" lon="6.15848">
        <ele>1135.4543457</ele>
        <time>2014-07-15T11:50:46Z</time>
      </trkpt>
      <trkpt lat="44.42835" lon="6.15827">
        <ele>1131.6088867</ele>
        <time>2014-07-15T11:50:55Z</time>
      </trkpt>
      <trkpt lat="44.42836" lon="6.15823">
        <ele>1130.6477051</ele>
        <time>2014-07-15T11:50:57Z</time>
      </trkpt>
      <trkpt lat="44.42833" lon="6.15817">
        <ele>1130.6477051</ele>
        <time>2014-07-15T11:50:59Z</time>
      </trkpt>
      <trkpt lat="44.42833" lon="6.1581">
        <ele>1129.2055664</ele>
        <time>2014-07-15T11:51:01Z</time>
      </trkpt>
      <trkpt lat="44.42832" lon="6.15797">
        <ele>1128.2443848</ele>
        <time>2014-07-15T11:51:05Z</time>
      </trkpt>
      <trkpt lat="44.42829" lon="6.15761">
        <ele>1124.3991699</ele>
        <time>2014-07-15T11:51:15Z</time>
      </trkpt>
      <trkpt lat="44.42828" lon="6.15759">
        <ele>1124.3991699</ele>
        <time>2014-07-15T11:51:16Z</time>
      </trkpt>
      <trkpt lat="44.42828" lon="6.15752">
        <ele>1122.4765625</ele>
        <time>2014-07-15T11:51:18Z</time>
      </trkpt>
      <trkpt lat="44.42827" lon="6.15732">
        <ele>1120.0732422</ele>
        <time>2014-07-15T11:51:24Z</time>
      </trkpt>
      <trkpt lat="44.42827" lon="6.15714">
        <ele>1116.2280273</ele>
        <time>2014-07-15T11:51:31Z</time>
      </trkpt>
      <trkpt lat="44.42828" lon="6.1571">
        <ele>1115.7473145</ele>
        <time>2014-07-15T11:51:33Z</time>
      </trkpt>
      <trkpt lat="44.42828" lon="6.15696">
        <ele>1113.8244629</ele>
        <time>2014-07-15T11:51:37Z</time>
      </trkpt>
      <trkpt lat="44.42829" lon="6.15695">
        <ele>1113.8244629</ele>
        <time>2014-07-15T11:51:58Z</time>
      </trkpt>
      <trkpt lat="44.4283" lon="6.15694">
        <ele>1112.3825684</ele>
        <time>2014-07-15T11:52:12Z</time>
      </trkpt>
      <trkpt lat="44.42824" lon="6.1569">
        <ele>1111.4213867</ele>
        <time>2014-07-15T11:52:26Z</time>
      </trkpt>
      <trkpt lat="44.42824" lon="6.15686">
        <ele>1110.9406738</ele>
        <time>2014-07-15T11:52:30Z</time>
      </trkpt>
      <trkpt lat="44.42821" lon="6.15669">
        <ele>1107.5761719</ele>
        <time>2014-07-15T11:52:45Z</time>
      </trkpt>
      <trkpt lat="44.42821" lon="6.1565">
        <ele>1104.6921387</ele>
        <time>2014-07-15T11:53:04Z</time>
      </trkpt>
      <trkpt lat="44.42819" lon="6.15644">
        <ele>1102.7695313</ele>
        <time>2014-07-15T11:53:11Z</time>
      </trkpt>
      <trkpt lat="44.42817" lon="6.15642">
        <ele>1102.2888184</ele>
        <time>2014-07-15T11:53:14Z</time>
      </trkpt>
      <trkpt lat="44.42816" lon="6.15643">
        <ele>1100.3664551</ele>
        <time>2014-07-15T11:53:29Z</time>
      </trkpt>
      <trkpt lat="44.42819" lon="6.15639">
        <ele>1098.4433594</ele>
        <time>2014-07-15T11:53:41Z</time>
      </trkpt>
      <trkpt lat="44.42835" lon="6.15626">
        <ele>1095.5595703</ele>
        <time>2014-07-15T11:53:50Z</time>
      </trkpt>
      <trkpt lat="44.42831" lon="6.15616">
        <ele>1094.1176758</ele>
        <time>2014-07-15T11:54:01Z</time>
      </trkpt>
      <trkpt lat="44.42828" lon="6.15603">
        <ele>1090.2724609</ele>
        <time>2014-07-15T11:54:14Z</time>
      </trkpt>
      <trkpt lat="44.42824" lon="6.15607">
        <ele>1088.8305664</ele>
        <time>2014-07-15T11:54:26Z</time>
      </trkpt>
      <trkpt lat="44.42823" lon="6.15614">
        <ele>1088.3498535</ele>
        <time>2014-07-15T11:54:34Z</time>
      </trkpt>
      <trkpt lat="44.42817" lon="6.15614">
        <ele>1088.3498535</ele>
        <time>2014-07-15T11:54:49Z</time>
      </trkpt>
      <trkpt lat="44.42813" lon="6.15609">
        <ele>1087.8691406</ele>
        <time>2014-07-15T11:54:53Z</time>
      </trkpt>
      <trkpt lat="44.42808" lon="6.15604">
        <ele>1086.4272461</ele>
        <time>2014-07-15T11:54:57Z</time>
      </trkpt>
      <trkpt lat="44.42801" lon="6.15585">
        <ele>1082.5817871</ele>
        <time>2014-07-15T11:55:05Z</time>
      </trkpt>
      <trkpt lat="44.42787" lon="6.15567">
        <ele>1080.1784668</ele>
        <time>2014-07-15T11:55:14Z</time>
      </trkpt>
      <trkpt lat="44.42783" lon="6.15565">
        <ele>1078.7365723</ele>
        <time>2014-07-15T11:55:16Z</time>
      </trkpt>
      <trkpt lat="44.42704" lon="6.15541">
        <ele>1075.3718262</ele>
        <time>2014-07-15T11:55:27Z</time>
      </trkpt>
      <trkpt lat="44.42676" lon="6.15516">
        <ele>1072.4880371</ele>
        <time>2014-07-15T11:55:38Z</time>
      </trkpt>
      <trkpt lat="44.42674" lon="6.15511">
        <ele>1071.5266113</ele>
        <time>2014-07-15T11:55:40Z</time>
      </trkpt>
      <trkpt lat="44.42655" lon="6.15491">
        <ele>1066.7199707</ele>
        <time>2014-07-15T11:55:50Z</time>
      </trkpt>
      <trkpt lat="44.42648" lon="6.15482">
        <ele>1065.2780762</ele>
        <time>2014-07-15T11:55:54Z</time>
      </trkpt>
      <trkpt lat="44.42628" lon="6.15475">
        <ele>1061.4328613</ele>
        <time>2014-07-15T11:56:00Z</time>
      </trkpt>
      <trkpt lat="44.42624" lon="6.15474">
        <ele>1061.4328613</ele>
        <time>2014-07-15T11:56:01Z</time>
      </trkpt>
      <trkpt lat="44.42611" lon="6.1547">
        <ele>1060.4714355</ele>
        <time>2014-07-15T11:56:04Z</time>
      </trkpt>
      <trkpt lat="44.42587" lon="6.15424">
        <ele>1058.5488281</ele>
        <time>2014-07-15T11:56:15Z</time>
      </trkpt>
      <trkpt lat="44.42583" lon="6.15417">
        <ele>1057.5876465</ele>
        <time>2014-07-15T11:56:17Z</time>
      </trkpt>
      <trkpt lat="44.42558" lon="6.15388">
        <ele>1054.2231445</ele>
        <time>2014-07-15T11:56:27Z</time>
      </trkpt>
      <trkpt lat="44.42553" lon="6.15378">
        <ele>1052.7810059</ele>
        <time>2014-07-15T11:56:30Z</time>
      </trkpt>
      <trkpt lat="44.42548" lon="6.15363">
        <ele>1051.3388672</ele>
        <time>2014-07-15T11:56:34Z</time>
      </trkpt>
      <trkpt lat="44.42532" lon="6.15321">
        <ele>1047.9743652</ele>
        <time>2014-07-15T11:56:45Z</time>
      </trkpt>
      <trkpt lat="44.42529" lon="6.15313">
        <ele>1047.0129395</ele>
        <time>2014-07-15T11:56:47Z</time>
      </trkpt>
      <trkpt lat="44.42525" lon="6.153">
        <ele>1046.0517578</ele>
        <time>2014-07-15T11:56:50Z</time>
      </trkpt>
      <trkpt lat="44.4252" lon="6.15279">
        <ele>1044.1291504</ele>
        <time>2014-07-15T11:56:54Z</time>
      </trkpt>
      <trkpt lat="44.42499" lon="6.15243">
        <ele>1040.7644043</ele>
        <time>2014-07-15T11:57:06Z</time>
      </trkpt>
      <trkpt lat="44.42488" lon="6.15224">
        <ele>1039.3225098</ele>
        <time>2014-07-15T11:57:12Z</time>
      </trkpt>
      <trkpt lat="44.42483" lon="6.15219">
        <ele>1037.8806152</ele>
        <time>2014-07-15T11:57:15Z</time>
      </trkpt>
      <trkpt lat="44.4248" lon="6.15215">
        <ele>1038.3613281</ele>
        <time>2014-07-15T11:57:17Z</time>
      </trkpt>
      <trkpt lat="44.42446" lon="6.15182">
        <ele>1034.996582</ele>
        <time>2014-07-15T11:57:31Z</time>
      </trkpt>
      <trkpt lat="44.42418" lon="6.15175">
        <ele>1031.1513672</ele>
        <time>2014-07-15T11:57:41Z</time>
      </trkpt>
      <trkpt lat="44.42401" lon="6.15175">
        <ele>1029.2285156</ele>
        <time>2014-07-15T11:57:47Z</time>
      </trkpt>
      <trkpt lat="44.42384" lon="6.15179">
        <ele>1027.3061523</ele>
        <time>2014-07-15T11:57:56Z</time>
      </trkpt>
      <trkpt lat="44.42384" lon="6.15177">
        <ele>1026.8254395</ele>
        <time>2014-07-15T11:57:59Z</time>
      </trkpt>
      <trkpt lat="44.42406" lon="6.15158">
        <ele>1025.8640137</ele>
        <time>2014-07-15T11:58:09Z</time>
      </trkpt>
      <trkpt lat="44.4243" lon="6.15142">
        <ele>1023.9414063</ele>
        <time>2014-07-15T11:58:17Z</time>
      </trkpt>
      <trkpt lat="44.42451" lon="6.15133">
        <ele>1021.0576172</ele>
        <time>2014-07-15T11:58:23Z</time>
      </trkpt>
      <trkpt lat="44.42454" lon="6.1513">
        <ele>1021.0576172</ele>
        <time>2014-07-15T11:58:24Z</time>
      </trkpt>
      <trkpt lat="44.42456" lon="6.15128">
        <ele>1020.0961914</ele>
        <time>2014-07-15T11:58:25Z</time>
      </trkpt>
      <trkpt lat="44.42451" lon="6.1511">
        <ele>1020.0961914</ele>
        <time>2014-07-15T11:58:30Z</time>
      </trkpt>
      <trkpt lat="44.42434" lon="6.15097">
        <ele>1018.1733398</ele>
        <time>2014-07-15T11:58:35Z</time>
      </trkpt>
      <trkpt lat="44.42414" lon="6.15103">
        <ele>1016.2507324</ele>
        <time>2014-07-15T11:58:39Z</time>
      </trkpt>
      <trkpt lat="44.42399" lon="6.15107">
        <ele>1013.8474121</ele>
        <time>2014-07-15T11:58:42Z</time>
      </trkpt>
      <trkpt lat="44.42391" lon="6.15108">
        <ele>1011.9250488</ele>
        <time>2014-07-15T11:58:44Z</time>
      </trkpt>
      <trkpt lat="44.42363" lon="6.15109">
        <ele>1008.5603027</ele>
        <time>2014-07-15T11:58:50Z</time>
      </trkpt>
      <trkpt lat="44.42359" lon="6.15108">
        <ele>1008.5603027</ele>
        <time>2014-07-15T11:58:51Z</time>
      </trkpt>
      <trkpt lat="44.42336" lon="6.15111">
        <ele>1005.1958008</ele>
        <time>2014-07-15T11:58:57Z</time>
      </trkpt>
      <trkpt lat="44.42334" lon="6.15114">
        <ele>1005.1958008</ele>
        <time>2014-07-15T11:58:58Z</time>
      </trkpt>
      <trkpt lat="44.42307" lon="6.15131">
        <ele>1000.3891602</ele>
        <time>2014-07-15T11:59:06Z</time>
      </trkpt>
      <trkpt lat="44.42304" lon="6.15131">
        <ele>1000.3891602</ele>
        <time>2014-07-15T11:59:07Z</time>
      </trkpt>
      <trkpt lat="44.42294" lon="6.15129">
        <ele>998.4663086</ele>
        <time>2014-07-15T11:59:10Z</time>
      </trkpt>
      <trkpt lat="44.42291" lon="6.15128">
        <ele>997.0244141</ele>
        <time>2014-07-15T11:59:11Z</time>
      </trkpt>
      <trkpt lat="44.42291" lon="6.15112">
        <ele>995.5825195</ele>
        <time>2014-07-15T11:59:16Z</time>
      </trkpt>
      <trkpt lat="44.42294" lon="6.15108">
        <ele>995.1018066</ele>
        <time>2014-07-15T11:59:17Z</time>
      </trkpt>
      <trkpt lat="44.42298" lon="6.15099">
        <ele>994.6210938</ele>
        <time>2014-07-15T11:59:19Z</time>
      </trkpt>
      <trkpt lat="44.42311" lon="6.15052">
        <ele>991.7373047</ele>
        <time>2014-07-15T11:59:26Z</time>
      </trkpt>
      <trkpt lat="44.42322" lon="6.15006">
        <ele>989.3339844</ele>
        <time>2014-07-15T11:59:32Z</time>
      </trkpt>
      <trkpt lat="44.42328" lon="6.14986">
        <ele>987.4111328</ele>
        <time>2014-07-15T11:59:35Z</time>
      </trkpt>
      <trkpt lat="44.42337" lon="6.14966">
        <ele>985.0080566</ele>
        <time>2014-07-15T11:59:39Z</time>
      </trkpt>
      <trkpt lat="44.42336" lon="6.14959">
        <ele>984.0466309</ele>
        <time>2014-07-15T11:59:41Z</time>
      </trkpt>
      <trkpt lat="44.4232" lon="6.1496">
        <ele>983.0852051</ele>
        <time>2014-07-15T11:59:47Z</time>
      </trkpt>
      <trkpt lat="44.42308" lon="6.14969">
        <ele>981.1628418</ele>
        <time>2014-07-15T11:59:50Z</time>
      </trkpt>
      <trkpt lat="44.42292" lon="6.1499">
        <ele>977.317627</ele>
        <time>2014-07-15T11:59:55Z</time>
      </trkpt>
      <trkpt lat="44.4229" lon="6.14994">
        <ele>977.317627</ele>
        <time>2014-07-15T11:59:56Z</time>
      </trkpt>
      <trkpt lat="44.42287" lon="6.15006">
        <ele>975.8754883</ele>
        <time>2014-07-15T12:00:00Z</time>
      </trkpt>
      <trkpt lat="44.42278" lon="6.15012">
        <ele>974.4335938</ele>
        <time>2014-07-15T12:00:04Z</time>
      </trkpt>
      <trkpt lat="44.42273" lon="6.14999">
        <ele>972.0302734</ele>
        <time>2014-07-15T12:00:10Z</time>
      </trkpt>
      <trkpt lat="44.42275" lon="6.14996">
        <ele>971.5493164</ele>
        <time>2014-07-15T12:00:11Z</time>
      </trkpt>
      <trkpt lat="44.42284" lon="6.14982">
        <ele>970.1074219</ele>
        <time>2014-07-15T12:00:14Z</time>
      </trkpt>
      <trkpt lat="44.42289" lon="6.14969">
        <ele>970.1074219</ele>
        <time>2014-07-15T12:00:17Z</time>
      </trkpt>
      <trkpt lat="44.42291" lon="6.14943">
        <ele>968.1848145</ele>
        <time>2014-07-15T12:00:21Z</time>
      </trkpt>
      <trkpt lat="44.42293" lon="6.1493">
        <ele>965.7817383</ele>
        <time>2014-07-15T12:00:25Z</time>
      </trkpt>
      <trkpt lat="44.42277" lon="6.14912">
        <ele>963.8588867</ele>
        <time>2014-07-15T12:00:33Z</time>
      </trkpt>
      <trkpt lat="44.42238" lon="6.14921">
        <ele>960.4943848</ele>
        <time>2014-07-15T12:00:40Z</time>
      </trkpt>
      <trkpt lat="44.4222" lon="6.14928">
        <ele>958.0913086</ele>
        <time>2014-07-15T12:00:45Z</time>
      </trkpt>
      <trkpt lat="44.42225" lon="6.14909">
        <ele>956.6491699</ele>
        <time>2014-07-15T12:00:52Z</time>
      </trkpt>
      <trkpt lat="44.42253" lon="6.14886">
        <ele>954.2458496</ele>
        <time>2014-07-15T12:00:58Z</time>
      </trkpt>
      <trkpt lat="44.42256" lon="6.14884">
        <ele>952.322998</ele>
        <time>2014-07-15T12:00:59Z</time>
      </trkpt>
      <trkpt lat="44.42245" lon="6.14876">
        <ele>950.8811035</ele>
        <time>2014-07-15T12:01:06Z</time>
      </trkpt>
      <trkpt lat="44.42242" lon="6.14877">
        <ele>950.4006348</ele>
        <time>2014-07-15T12:01:07Z</time>
      </trkpt>
      <trkpt lat="44.42225" lon="6.14888">
        <ele>948.9584961</ele>
        <time>2014-07-15T12:01:12Z</time>
      </trkpt>
      <trkpt lat="44.42194" lon="6.1492">
        <ele>946.074707</ele>
        <time>2014-07-15T12:01:22Z</time>
      </trkpt>
      <trkpt lat="44.42186" lon="6.14924">
        <ele>944.6325684</ele>
        <time>2014-07-15T12:01:24Z</time>
      </trkpt>
      <trkpt lat="44.42172" lon="6.14925">
        <ele>942.2294922</ele>
        <time>2014-07-15T12:01:28Z</time>
      </trkpt>
      <trkpt lat="44.42166" lon="6.14929">
        <ele>940.3068848</ele>
        <time>2014-07-15T12:01:30Z</time>
      </trkpt>
      <trkpt lat="44.42151" lon="6.14926">
        <ele>939.3452148</ele>
        <time>2014-07-15T12:01:34Z</time>
      </trkpt>
      <trkpt lat="44.42138" lon="6.1492">
        <ele>939.3452148</ele>
        <time>2014-07-15T12:01:40Z</time>
      </trkpt>
      <trkpt lat="44.42096" lon="6.14939">
        <ele>940.3068848</ele>
        <time>2014-07-15T12:01:52Z</time>
      </trkpt>
      <trkpt lat="44.42068" lon="6.14946">
        <ele>941.2680664</ele>
        <time>2014-07-15T12:02:02Z</time>
      </trkpt>
      <trkpt lat="44.42039" lon="6.14983">
        <ele>940.7873535</ele>
        <time>2014-07-15T12:02:13Z</time>
      </trkpt>
      <trkpt lat="44.42" lon="6.15094">
        <ele>939.8259277</ele>
        <time>2014-07-15T12:02:29Z</time>
      </trkpt>
      <trkpt lat="44.41975" lon="6.15166">
        <ele>936.9418945</ele>
        <time>2014-07-15T12:02:37Z</time>
      </trkpt>
      <trkpt lat="44.41949" lon="6.15253">
        <ele>936.4614258</ele>
        <time>2014-07-15T12:02:45Z</time>
      </trkpt>
      <trkpt lat="44.41933" lon="6.15364">
        <ele>933.5773926</ele>
        <time>2014-07-15T12:02:53Z</time>
      </trkpt>
      <trkpt lat="44.41925" lon="6.15411">
        <ele>931.6547852</ele>
        <time>2014-07-15T12:02:56Z</time>
      </trkpt>
      <trkpt lat="44.41921" lon="6.15444">
        <ele>929.7321777</ele>
        <time>2014-07-15T12:02:58Z</time>
      </trkpt>
      <trkpt lat="44.41914" lon="6.15493">
        <ele>927.8095703</ele>
        <time>2014-07-15T12:03:01Z</time>
      </trkpt>
      <trkpt lat="44.41907" lon="6.15554">
        <ele>923.9641113</ele>
        <time>2014-07-15T12:03:05Z</time>
      </trkpt>
      <trkpt lat="44.41904" lon="6.15567">
        <ele>923.9641113</ele>
        <time>2014-07-15T12:03:06Z</time>
      </trkpt>
      <trkpt lat="44.419" lon="6.15595">
        <ele>922.5222168</ele>
        <time>2014-07-15T12:03:08Z</time>
      </trkpt>
      <trkpt lat="44.41899" lon="6.15609">
        <ele>922.0415039</ele>
        <time>2014-07-15T12:03:09Z</time>
      </trkpt>
      <trkpt lat="44.419" lon="6.15652">
        <ele>920.1188965</ele>
        <time>2014-07-15T12:03:12Z</time>
      </trkpt>
      <trkpt lat="44.41907" lon="6.15753">
        <ele>918.1962891</ele>
        <time>2014-07-15T12:03:19Z</time>
      </trkpt>
      <trkpt lat="44.41906" lon="6.15779">
        <ele>913.8703613</ele>
        <time>2014-07-15T12:03:21Z</time>
      </trkpt>
      <trkpt lat="44.41905" lon="6.1579">
        <ele>913.8703613</ele>
        <time>2014-07-15T12:03:22Z</time>
      </trkpt>
      <trkpt lat="44.41904" lon="6.15809">
        <ele>916.2736816</ele>
        <time>2014-07-15T12:03:24Z</time>
      </trkpt>
      <trkpt lat="44.41903" lon="6.15828">
        <ele>913.8703613</ele>
        <time>2014-07-15T12:03:26Z</time>
      </trkpt>
      <trkpt lat="44.41897" lon="6.15913">
        <ele>910.5058594</ele>
        <time>2014-07-15T12:03:34Z</time>
      </trkpt>
      <trkpt lat="44.41894" lon="6.15935">
        <ele>911.4672852</ele>
        <time>2014-07-15T12:03:36Z</time>
      </trkpt>
      <trkpt lat="44.41887" lon="6.15978">
        <ele>909.5446777</ele>
        <time>2014-07-15T12:03:40Z</time>
      </trkpt>
      <trkpt lat="44.4187" lon="6.16102">
        <ele>905.2185059</ele>
        <time>2014-07-15T12:03:53Z</time>
      </trkpt>
      <trkpt lat="44.41889" lon="6.1612">
        <ele>906.1796875</ele>
        <time>2014-07-15T12:04:02Z</time>
      </trkpt>
      <trkpt lat="44.41895" lon="6.16121">
        <ele>907.1411133</ele>
        <time>2014-07-15T12:04:15Z</time>
      </trkpt>
      <trkpt lat="44.41895" lon="6.16121">
        <ele>907.1411133</ele>
        <time>2014-07-15T12:04:50Z</time>
      </trkpt>
    </trkseg>
  </trk>
</gpx>